[[{"header":{"parameterUnit":"m.s-1","parameterCategory":1,"la1":30.6,"la2":28.766,"lo1":-90.7593,"lo2":-88.6598,"dy":0.0162,"dx":0.0183,"nx":116,"ny":114,"refTime":"2023-07-11T06:00:00:Z","depth":0,"parameterNumber":2,"parameterNumberName":"U-component_of_WINDS"},"data":[0.0,0.0,0.0,0.0,0.0,0.0,0.0,0.0,0.0,0.0,0.0,0.0,0.0,0.0,0.0,0.0,0.0,0.0,0.0,0.0,0.0,0.0,0.0,0.0,0.0,0.0,0.0,0.0,0.0,0.0,0.0,0.0,0.0,0.0,0.0,0.0,0.0,0.0,0.0,0.0,0.0,0.0,0.0,0.0,0.0,0.0,0.0,0.0,0.0,0.0,0.0,0.0,0.0,0.0,0.0,0.0,0.0,0.0,0.0,0.0,0.0,0.0,0.0,0.0,0.0,0.0,0.0,0.0,0.0,0.0,0.0,0.0,0.0,0.0,0.0,0.0,0.0,0.0,0.0,0.0,0.0,0.0,0.0,0.0,0.0,0.0,0.0,0.0,0.0,0.0,0.0,0.0,0.0,0.0,0.0,0.0,0.0,0.0,0.0,0.0,0.0,0.0,0.0,0.0,0.0,0.0,0.0,0.0,0.0,0.0,0.0,0.0,0.0,0.0,0.0,0.0,0.0,0.0,0.0,0.0,0.0,0.0,0.0,0.0,0.0,0.0,0.0,0.0,0.0,0.0,0.0,0.0,0.0,0.0,0.0,0.0,0.0,0.0,0.0,0.0,0.0,0.0,0.0,0.0,0.0,0.0,0.0,0.0,0.0,0.0,0.0,0.0,0.0,0.0,0.0,0.0,0.0,0.0,0.0,0.0,0.0,0.0,0.0,0.0,0.0,0.0,0.0,0.0,0.0,0.0,0.0,0.0,0.0,0.0,0.0,0.0,0.0,0.0,0.0,0.0,0.0,0.0,0.0,0.0,0.0,0.0,0.0,0.0,0.0,0.0,0.0,0.0,0.0,0.0,0.0,0.0,0.0,0.0,0.0,0.0,0.0,0.0,0.0,0.0,0.0,0.0,0.0,0.0,0.0,0.0,0.0,0.0,0.0,0.0,0.0,0.0,0.0,0.0,0.0,0.0,0.0,0.0,0.0,0.0,0.0,0.0,0.0,0.0,0.0,0.0,0.0,0.0,0.0,0.0,0.0,0.0,0.0,0.0,0.0,0.0,0.0,0.0,0.0,0.0,0.0,0.0,0.0,0.0,0.0,0.0,0.0,0.0,0.0,0.0,0.0,0.0,0.0,0.0,0.0,0.0,0.0,0.0,0.0,0.0,0.0,0.0,0.0,0.0,0.0,0.0,0.0,0.0,0.0,0.0,0.0,0.0,0.0,0.0,0.0,0.0,0.0,0.0,0.0,0.0,0.0,0.0,0.0,0.0,0.0,0.0,0.0,0.0,0.0,0.0,0.0,0.0,0.0,0.0,0.0,0.0,0.0,0.0,0.0,0.0,0.0,0.0,0.0,0.0,0.0,0.0,0.0,0.0,0.0,0.0,0.0,0.0,0.0,0.0,0.0,0.0,0.0,0.0,0.0,0.0,0.0,0.0,0.0,0.0,0.0,0.0,0.0,0.0,0.0,0.0,0.0,0.0,0.0,0.0,0.0,0.0,0.0,0.0,0.0,0.0,0.0,0.0,0.0,0.0,0.0,0.0,0.0,0.0,0.0,0.0,0.0,0.0,0.0,0.0,0.0,0.0,0.0,0.0,0.0,0.0,0.0,0.0,0.0,0.0,0.0,0.0,0.0,0.0,0.0,0.0,0.0,0.0,0.0,0.0,0.0,0.0,0.0,0.0,0.0,0.0,0.0,0.0,0.0,0.0,0.0,0.0,0.0,0.0,0.0,0.0,0.0,0.0,0.0,0.0,0.0,0.0,0.0,0.0,0.0,0.0,0.0,0.0,0.0,0.0,0.0,0.0,0.0,0.0,0.0,0.0,0.0,0.0,0.0,0.0,0.0,0.0,0.0,0.0,0.0,0.0,0.0,0.0,0.0,0.0,0.0,0.0,0.0,0.0,0.0,0.0,0.0,0.0,0.0,0.0,0.0,0.0,0.0,0.0,0.0,0.0,0.0,0.0,0.0,0.0,0.0,0.0,0.0,0.0,0.0,0.0,0.0,0.0,0.0,0.0,0.0,0.0,0.0,0.0,0.0,0.0,0.0,0.0,0.0,0.0,0.0,0.0,0.0,0.0,0.0,0.0,0.0,0.0,0.0,0.0,0.0,0.0,0.0,0.0,0.0,0.0,0.0,0.0,0.0,0.0,0.0,0.0,0.0,0.0,0.0,0.0,0.0,0.0,0.0,0.0,0.0,0.0,0.0,0.0,0.0,0.0,0.0,0.0,0.0,0.0,0.0,0.0,0.0,0.0,0.0,0.0,0.0,0.0,0.0,0.0,0.0,0.0,0.0,0.0,0.0,0.0,0.0,0.0,0.0,0.0,0.0,0.0,0.0,0.0,0.0,0.0,0.0,0.0,0.0,0.0,0.0,0.0,0.0,0.0,0.0,0.0,0.0,0.0,0.0,0.0,0.0,0.0,0.0,0.0,0.0,0.0,0.0,0.0,0.0,0.0,0.0,0.0,0.0,0.0,0.0,0.0,0.0,0.0,0.0,0.0,0.0,0.0,0.0,0.0,0.0,0.0,0.0,0.0,0.0,0.0,0.0,0.0,0.0,0.0,0.0,0.0,0.0,0.0,0.0,0.0,0.0,0.0,0.0,0.0,0.0,0.0,0.0,0.0,0.0,0.0,0.0,0.0,0.0,0.0,0.0,0.0,0.0,0.0,0.0,0.0,0.0,0.0,0.0,0.0,0.0,0.0,0.0,0.0,0.0,0.0,0.0,0.0,0.0,0.0,0.0,0.0,0.0,0.0,0.0,0.0,0.0,0.0,0.0,0.0,0.0,0.0,0.0,0.0,0.0,0.0,0.0,0.0,0.0,0.0,0.0,0.0,0.0,0.0,0.0,0.0,0.0,0.0,0.0,0.0,0.0,0.0,0.0,0.0,0.0,0.0,0.0,0.0,0.0,0.0,0.0,0.0,0.0,0.0,0.0,0.0,0.0,0.0,0.0,0.0,0.0,0.0,0.0,0.0,0.0,0.0,0.0,0.0,0.0,0.0,0.0,0.0,0.0,0.0,0.0,0.0,0.0,0.0,0.0,0.0,0.0,0.0,0.0,0.0,0.0,0.0,0.0,0.0,0.0,0.0,0.0,0.0,0.0,0.0,0.0,0.0,0.0,0.0,0.0,0.0,0.0,0.0,0.0,0.0,0.0,0.0,0.0,0.0,0.0,0.0,0.0,0.0,0.0,0.0,0.0,0.0,0.0,0.0,0.0,0.0,0.0,0.0,0.0,0.0,0.0,0.0,0.0,0.0,0.0,0.0,0.0,0.0,0.0,0.0,0.0,0.0,0.0,0.0,0.0,0.0,0.0,0.0,0.0,0.0,0.0,0.0,0.0,0.0,0.0,0.0,0.0,0.0,0.0,0.0,0.0,0.0,0.0,0.0,0.0,0.0,0.0,0.0,0.0,0.0,0.0,0.0,0.0,0.0,0.0,0.0,0.0,0.0,0.0,0.0,0.0,0.0,0.0,0.0,0.0,0.0,0.0,0.0,0.0,0.0,0.0,0.0,0.0,0.0,0.0,0.0,0.0,0.0,0.0,0.0,0.0,0.0,0.0,0.0,0.0,0.0,0.0,0.0,0.0,0.0,0.0,0.0,0.0,0.0,0.0,0.0,0.0,0.0,0.0,0.0,0.0,0.0,0.0,0.0,0.0,0.0,0.0,0.0,0.0,0.0,0.0,0.0,0.0,0.0,0.0,0.0,0.0,0.0,0.0,0.0,0.0,0.0,0.0,0.0,0.0,0.0,0.0,0.0,0.0,0.0,0.0,0.0,0.0,0.0,0.0,0.0,0.0,0.0,0.0,0.0,0.0,0.0,0.0,0.0,0.0,0.0,0.0,0.0,0.0,0.0,0.0,0.0,0.0,0.0,0.0,0.0,0.0,0.0,0.0,0.0,0.0,0.0,0.0,0.0,0.0,0.0,0.0,0.0,0.0,0.0,0.0,0.0,0.0,0.0,0.0,0.0,0.0,0.0,0.0,0.0,0.0,0.0,0.0,0.0,0.0,0.0,0.0,0.0,0.0,0.0,0.0,0.0,0.0,0.0,0.0,0.0,0.0,0.0,0.0,0.0,0.0,0.0,0.0,0.0,0.0,0.0,0.0,0.0,0.0,0.0,0.0,0.0,0.0,0.0,0.0,0.0,0.0,0.0,0.0,0.0,0.0,0.0,0.0,0.0,0.0,0.0,0.0,0.0,0.0,0.0,0.0,0.0,0.0,0.0,0.0,0.0,0.0,0.0,0.0,0.0,0.0,0.0,0.0,0.0,0.0,0.0,0.0,0.0,0.0,0.0,0.0,0.0,0.0,0.0,0.0,0.0,0.0,0.0,0.0,0.0,0.0,0.0,0.0,0.0,0.0,0.0,0.0,0.0,0.0,0.0,0.0,0.0,0.0,0.0,0.0,0.0,0.0,0.0,0.0,0.0,0.0,0.0,0.0,0.0,0.0,0.0,0.0,0.0,0.0,0.0,0.0,0.0,0.0,0.0,0.0,0.0,0.0,0.0,0.0,0.0,0.0,0.0,0.0,0.0,0.0,0.0,0.0,0.0,0.0,0.0,0.0,0.0,0.0,0.0,0.0,0.0,0.0,0.0,0.0,0.0,0.0,0.0,0.0,0.0,0.0,0.0,0.0,0.0,0.0,0.0,0.0,0.0,0.0,0.0,0.0,0.0,0.0,0.0,0.0,0.0,0.0,0.0,0.0,0.0,0.0,0.0,0.0,0.0,0.0,0.0,0.0,0.0,0.0,0.0,0.0,0.0,0.0,0.0,0.0,0.0,0.0,0.0,0.0,0.0,0.0,0.0,0.0,0.0,0.0,0.0,0.0,0.0,0.0,0.0,0.0,0.0,0.0,0.0,0.0,0.0,0.0,0.0,0.0,0.0,0.0,0.0,0.0,0.0,0.0,0.0,0.0,0.0,0.0,0.0,0.0,0.0,0.0,0.0,0.0,0.0,0.0,0.0,0.0,0.0,0.0,0.0,0.0,0.0,0.0,0.0,0.0,0.0,0.0,0.0,0.0,0.0,0.0,0.0,0.0,0.0,0.0,0.0,0.0,0.0,0.0,0.0,0.0,0.0,0.0,0.0,0.0,0.0,0.0,0.0,0.0,0.0,0.0,0.0,0.0,0.0,0.0,0.0,0.0,0.0,0.0,0.0,0.0,0.0,0.0,0.0,0.0,0.0,0.0,0.0,0.0,0.0,0.0,0.0,0.0,0.0,0.0,0.0,0.0,0.0,0.0,0.0,0.0,0.0,0.0,0.0,0.0,0.0,0.0,0.0,0.0,0.0,0.0,0.0,0.0,0.0,0.0,0.0,0.0,0.0,0.0,0.0,0.0,0.0,0.0,0.0,0.0,0.0,0.0,0.0,0.0,0.0,0.0,0.0,0.0,0.0,0.0,0.0,0.0,0.0,0.0,0.0,0.0,0.0,0.0,0.0,0.0,0.0,0.0,0.0,0.0,0.0,0.0,0.0,0.0,0.0,0.0,0.0,0.0,0.0,0.0,0.0,0.0,0.0,0.0,0.0,0.0,0.0,0.0,0.0,0.0,0.0,0.0,0.0,0.0,0.0,0.0,0.0,0.0,0.0,0.0,0.0,0.0,0.0,0.0,0.0,0.0,0.0,0.0,0.0,0.0,0.0,0.0,0.0,0.0,0.0,0.0,0.0,0.0,0.0,0.0,0.0,0.0,0.0,0.0,0.0,0.0,0.0,0.0,0.0,0.0,0.0,0.0,0.0,0.0,0.0,0.0,0.0,0.0,0.0,0.0,0.0,0.0,0.0,0.0,0.0,0.0,0.0,0.0,0.0,0.0,0.0,0.0,0.0,0.0,0.0,0.0,0.0,0.0,0.0,0.0,0.0,0.0,0.0,0.0,0.0,0.0,0.0,0.0,0.0,0.0,0.0,0.0,0.0,0.0,0.0,0.0,0.0,0.0,0.0,0.0,0.0,0.0,0.0,0.0,0.0,0.0,0.0,0.0,0.0,0.0,0.0,0.0,0.0,0.0,0.0,0.0,0.0,0.0,0.0,0.0,0.0,0.0,0.0,0.0,0.0,0.0,0.0,0.0,0.0,-0.9338,0.0,0.0,0.0,0.0,0.0,0.0,0.0,0.0,0.0,0.0,0.0,0.0,0.0,0.0,0.0,0.0,0.0,0.0,0.0,0.0,0.0,0.0,0.0,0.0,0.0,0.0,0.0,0.0,0.0,0.0,0.0,0.0,0.0,0.0,0.0,0.0,0.0,0.0,0.0,0.0,0.0,0.0,0.0,0.0,0.0,0.0,0.0,0.0,0.0,0.0,0.0,0.0,0.0,0.0,0.0,0.0,0.0,0.0,0.0,0.0,0.0,0.0,0.0,0.0,0.0,0.0,0.0,0.0,0.0,0.0,0.0,0.0,0.0,0.0,0.0,0.0,0.0,0.0,0.0,0.0,0.0,0.0,0.0,0.0,0.0,0.0,0.0,0.0,0.0,0.0,0.0,0.0,0.0,0.0,0.0,0.0,0.0,0.0,0.0,0.0,0.0,0.0,0.0,0.0,0.0,0.0,0.0,0.0,0.0,0.0,0.0,0.0,0.0,0.0,0.0,0.0,-0.9266,0.0,0.0,0.0,0.0,0.0,0.0,0.0,0.0,0.0,0.0,0.0,0.0,0.0,0.0,0.0,0.0,0.0,0.0,0.0,0.0,0.0,0.0,0.0,0.0,0.0,0.0,0.0,0.0,0.0,0.0,0.0,0.0,0.0,0.0,0.0,0.0,0.0,0.0,0.0,0.0,0.0,0.0,0.0,0.0,0.0,0.0,0.0,0.0,0.0,0.0,0.0,0.0,0.0,0.0,0.0,0.0,0.0,0.0,0.0,0.0,0.0,0.0,0.0,0.0,0.0,0.0,0.0,0.0,0.0,0.0,0.0,0.0,0.0,0.0,0.0,0.0,0.0,0.0,0.0,0.0,0.0,0.0,0.0,0.0,0.0,0.0,0.0,0.0,0.0,0.0,0.0,0.0,0.0,0.0,0.0,0.0,0.0,0.0,0.0,0.0,0.0,0.0,0.0,0.0,0.0,0.0,0.0,0.0,-1.5384,-1.5735,-1.6054,-1.5802,-1.5465,-1.5109,-1.3943,-1.1838,-0.9278,-0.9743,0.0,0.0,0.0,0.0,0.0,0.0,0.0,0.0,0.0,0.0,0.0,0.0,0.0,0.0,0.0,0.0,0.0,0.0,0.0,0.0,0.0,0.0,0.0,0.0,0.0,0.0,0.0,0.0,0.0,0.0,0.0,0.0,0.0,0.0,0.0,0.0,0.0,0.0,0.0,0.0,0.0,0.0,0.0,0.0,0.0,0.0,0.0,0.0,0.0,0.0,0.0,0.0,0.0,0.0,0.0,0.0,0.0,0.0,0.0,0.0,0.0,0.0,0.0,0.0,0.0,0.0,0.0,0.0,0.0,0.0,0.0,0.0,0.0,0.0,0.0,0.0,0.0,0.0,0.0,0.0,0.0,0.0,0.0,0.0,0.0,0.0,-1.0079,-0.8885,0.0,0.0,0.0,0.0,0.0,0.0,0.0,0.0,0.0,0.0,0.0,0.0,0.0,-1.6224,-1.6711,-1.7415,-1.744,-1.6776,-1.8434,-1.9061,-1.8812,-1.9552,-1.9858,-1.9758,-1.9108,0.0,-1.1734,-1.0542,0.0,0.0,0.0,0.0,0.0,0.0,0.0,0.0,0.0,0.0,0.0,0.0,0.0,0.0,0.0,0.0,0.0,0.0,0.0,0.0,0.0,0.0,0.0,0.0,0.0,0.0,0.0,0.0,0.0,0.0,0.0,0.0,0.0,0.0,0.0,0.0,0.0,0.0,0.0,0.0,0.0,0.0,0.0,0.0,0.0,0.0,0.0,0.0,0.0,0.0,0.0,0.0,0.0,0.0,0.0,0.0,0.0,0.0,0.0,0.0,0.0,0.0,0.0,0.0,0.0,0.0,0.0,0.0,0.0,0.0,0.0,0.0,0.0,0.0,0.0,0.0,0.0,0.0,0.0,0.0,0.0,0.0,0.0,0.0,0.0,-0.9906,-0.9797,-0.7714,-0.8948,-0.9629,0.0,0.0,0.0,0.0,0.0,0.0,0.0,0.0,0.0,-1.5158,-1.7427,-1.9042,-1.9937,-2.1022,-2.1685,-2.1854,-2.2404,-2.2699,-2.2857,-2.2639,-2.2359,-2.202,-2.1455,-1.9594,-1.6843,-1.4714,-1.3038,-1.172,0.0,0.0,0.0,0.0,-1.0763,-1.0807,0.0,0.0,0.0,0.0,0.0,0.0,0.0,0.0,0.0,0.0,0.0,0.0,0.0,0.0,0.0,0.0,0.0,0.0,0.0,0.0,0.0,0.0,0.0,0.0,0.0,0.0,0.0,0.0,0.0,0.0,0.0,0.0,0.0,0.0,0.0,0.0,0.0,0.0,0.0,0.0,0.0,0.0,0.0,0.0,0.0,0.0,0.0,0.0,0.0,0.0,0.0,0.0,0.0,0.0,0.0,0.0,0.0,0.0,0.0,0.0,0.0,0.0,0.0,0.0,0.0,0.0,0.0,0.0,0.0,0.0,0.0,0.0,0.0,0.0,0.0,0.0,0.0,-0.9904,-1.008,-0.7333,-0.906,-1.0152,0.0,0.0,0.0,0.0,0.0,0.0,-1.3427,-1.5271,-1.6872,-1.8016,-2.0485,-2.2231,-2.3207,-2.4429,-2.5448,-2.6226,-2.5711,-2.5661,-2.5988,-2.4908,-2.4104,-2.354,-2.2987,-2.2196,-2.1104,-1.824,-1.6005,-1.4365,-1.3789,-1.3634,-1.3655,-1.3362,-1.3472,-1.358,0.0,0.0,0.0,0.0,0.0,0.0,0.0,0.0,0.0,0.0,0.0,0.0,0.0,0.0,0.0,0.0,0.0,0.0,0.0,0.0,0.0,0.0,0.0,0.0,0.0,0.0,0.0,0.0,0.0,0.0,0.0,0.0,0.0,0.0,0.0,0.0,0.0,0.0,0.0,0.0,0.0,0.0,0.0,0.0,0.0,0.0,0.0,0.0,0.0,0.0,0.0,0.0,0.0,0.0,0.0,0.0,0.0,0.0,0.0,0.0,0.0,0.0,0.0,0.0,0.0,0.0,0.0,0.0,0.0,0.0,0.0,0.0,0.0,0.0,0.0,0.0,0.0,0.0,0.0,-0.9235,-1.1156,0.0,0.0,0.0,0.0,-1.439,-1.4606,-1.4841,-1.5225,-1.8159,-2.0086,-2.0705,-2.4274,-2.644,-2.703,-2.7607,-2.7934,-2.7971,-2.7419,-2.7168,-2.7155,-2.6025,-2.5234,-2.4707,-2.4155,-2.3577,-2.2702,-1.9205,-1.7615,-1.7229,-1.574,-1.5447,-1.5752,-1.5047,-1.4647,-1.4189,0.0,0.0,0.0,0.0,0.0,0.0,0.0,0.0,0.0,0.0,0.0,0.0,0.0,0.0,0.0,0.0,0.0,0.0,0.0,0.0,0.0,0.0,0.0,0.0,0.0,0.0,0.0,0.0,0.0,0.0,0.0,0.0,0.0,0.0,0.0,0.0,0.0,0.0,0.0,0.0,0.0,0.0,0.0,0.0,0.0,0.0,0.0,0.0,0.0,0.0,0.0,0.0,0.0,0.0,0.0,0.0,0.0,0.0,0.0,0.0,0.0,0.0,0.0,0.0,0.0,0.0,0.0,0.0,0.0,0.0,0.0,0.0,0.0,0.0,0.0,0.0,0.0,0.0,0.0,-1.282,-1.4564,0.0,-1.4376,-1.436,-1.4733,-1.5515,-1.6577,-1.7416,-1.7845,-2.1018,-2.3187,-2.401,-2.6639,-2.8323,-2.8888,-2.9101,-2.9189,-2.9189,-2.8612,-2.816,-2.7783,-2.703,-2.6126,-2.5159,-2.4958,-2.3813,-2.1894,-2.0641,-2.0338,-2.0486,-1.9245,-1.8859,-1.8946,-1.8282,-1.7994,-1.7694,0.0,0.0,0.0,0.0,0.0,0.0,0.0,0.0,0.0,0.0,0.0,0.0,0.0,0.0,0.0,0.0,0.0,0.0,0.0,0.0,0.0,0.0,0.0,0.0,0.0,0.0,0.0,0.0,0.0,0.0,0.0,0.0,0.0,0.0,0.0,0.0,0.0,0.0,0.0,0.0,0.0,0.0,-1.3691,0.0,0.0,0.0,0.0,0.0,0.0,0.0,0.0,0.0,0.0,0.0,0.0,0.0,0.0,0.0,0.0,0.0,0.0,0.0,0.0,0.0,0.0,0.0,0.0,0.0,0.0,0.0,0.0,0.0,0.0,0.0,0.0,0.0,0.0,0.0,-1.5546,-1.5459,-1.6973,-1.7734,-1.7002,-1.705,-1.7336,-1.7935,-1.9213,-2.0068,-2.0496,-2.3382,-2.5386,-2.6049,-2.8089,-2.9402,-2.9792,-2.9792,-2.9792,-2.9779,-2.9013,-2.83,-2.7607,-2.6878,-2.5779,-2.4461,-2.4461,-2.3411,-2.1583,-2.141,-2.1694,-2.2078,-2.1391,-2.1269,-2.143,-2.0865,-2.0652,-2.0378,0.0,0.0,0.0,0.0,0.0,0.0,0.0,0.0,0.0,0.0,0.0,0.0,0.0,0.0,0.0,0.0,0.0,0.0,0.0,0.0,0.0,0.0,0.0,0.0,0.0,0.0,0.0,0.0,0.0,0.0,0.0,0.0,0.0,0.0,0.0,0.0,0.0,0.0,0.0,0.0,0.0,0.0,-1.5676,0.0,0.0,0.0,0.0,0.0,0.0,0.0,0.0,0.0,0.0,0.0,0.0,0.0,0.0,0.0,0.0,0.0,0.0,0.0,0.0,0.0,0.0,0.0,0.0,0.0,0.0,0.0,0.0,0.0,0.0,0.0,0.0,0.0,-1.2998,-1.6289,-1.8144,-1.6967,-1.8379,-1.9238,-1.8818,-1.916,-2.0107,-2.1797,-2.2305,-2.2715,-2.3115,-2.5231,-2.6483,-2.6483,-2.8633,-2.9792,-2.9792,-2.9779,-2.9767,-2.9702,-2.8662,-2.7582,-2.6514,-2.5504,-2.4176,-2.2666,-2.2666,-2.2388,-2.1829,-2.1341,-2.1419,-2.1889,-2.1847,-2.2347,-2.2967,-2.2443,-2.2218,-2.1844,0.0,0.0,0.0,0.0,0.0,0.0,0.0,0.0,0.0,0.0,0.0,0.0,0.0,0.0,0.0,0.0,0.0,0.0,0.0,0.0,0.0,0.0,0.0,0.0,0.0,0.0,0.0,0.0,0.0,0.0,0.0,0.0,0.0,0.0,0.0,0.0,0.0,0.0,0.0,0.0,0.0,0.0,-1.7194,0.0,0.0,0.0,0.0,0.0,0.0,0.0,0.0,0.0,0.0,0.0,0.0,0.0,0.0,0.0,0.0,0.0,0.0,0.0,0.0,0.0,0.0,0.0,0.0,0.0,0.0,0.0,0.0,0.0,0.0,0.0,0.0,-1.6123,-1.6902,-1.8242,-1.9443,-2.0361,-2.1426,-2.2031,-2.1914,-2.2012,-2.2275,-2.2754,-2.29,-2.3018,-2.3135,-2.5231,-2.6483,-2.6483,-2.8633,-2.9792,-2.9792,-2.9377,-2.8957,-2.8585,-2.8634,-2.7657,-2.5882,-2.6094,-2.4865,-2.2518,-2.2518,-2.1681,-2.0305,-2.0183,-2.0421,-2.0962,-2.1286,-2.1499,-2.167,-2.1544,-2.071,-1.9441,0.0,0.0,0.0,0.0,0.0,0.0,0.0,0.0,0.0,0.0,0.0,0.0,0.0,0.0,0.0,0.0,0.0,0.0,0.0,0.0,0.0,0.0,0.0,0.0,0.0,0.0,0.0,0.0,0.0,0.0,0.0,0.0,0.0,0.0,0.0,0.0,0.0,0.0,0.0,0.0,0.0,0.0,-2.041,-1.8955,-1.7648,-1.6582,-1.6199,-1.6372,-1.652,-1.4823,0.0,0.0,0.0,0.0,0.0,0.0,0.0,0.0,0.0,0.0,0.0,0.0,0.0,0.0,0.0,0.0,0.0,0.0,0.0,0.0,0.0,0.0,0.0,0.0,-1.6812,-1.8552,-2.0051,-2.0478,-2.1084,-2.2275,-2.2842,-2.3213,-2.3389,-2.3242,-2.3213,-2.3398,-2.3242,-2.3135,-2.3135,-2.5231,-2.6483,-2.6483,-2.8633,-2.9534,-2.9106,-2.8774,-2.8204,-2.7441,-2.7494,-2.6674,-2.5065,-2.5195,-2.4127,0.0,-2.2267,-2.1504,-2.0352,-2.0166,-2.0272,0.0,0.0,0.0,0.0,0.0,-2.0107,-1.8564,0.0,0.0,0.0,0.0,0.0,0.0,0.0,0.0,0.0,0.0,0.0,0.0,0.0,0.0,0.0,0.0,0.0,0.0,0.0,0.0,0.0,0.0,0.0,0.0,0.0,0.0,0.0,0.0,0.0,0.0,0.0,0.0,0.0,0.0,0.0,0.0,0.0,0.0,0.0,0.0,0.0,0.0,-2.4403,-2.2533,-2.1305,-2.0536,-1.9573,-1.859,-1.7609,-1.7275,0.0,0.0,0.0,0.0,0.0,0.0,0.0,0.0,0.0,0.0,0.0,0.0,0.0,0.0,0.0,0.0,0.0,0.0,0.0,0.0,0.0,0.0,0.0,0.0,-1.9064,-2.0216,-2.2363,-2.2656,-2.2793,-2.3174,-2.3252,-2.3437,-2.3828,-2.3467,-2.3379,-2.376,-2.3389,-2.3135,-2.3135,0.0,0.0,0.0,0.0,-2.9028,-2.7936,-2.7865,-2.7302,-2.6295,-2.5795,-2.5098,-2.4096,-2.3614,-2.2869,-2.1953,-2.1855,-2.1592,-2.1201,-2.0752,-2.0537,-2.0487,-2.0502,-2.0998,-2.1578,-2.1083,-1.9877,-1.8562,0.0,0.0,0.0,0.0,0.0,0.0,0.0,0.0,0.0,0.0,0.0,0.0,0.0,0.0,0.0,0.0,0.0,0.0,0.0,0.0,0.0,0.0,0.0,0.0,0.0,0.0,0.0,0.0,0.0,0.0,0.0,0.0,0.0,0.0,0.0,0.0,0.0,0.0,0.0,0.0,0.0,0.0,-2.6638,-2.5772,-2.4824,-2.3788,-2.2464,-2.322,-2.4255,-2.0499,-2.0656,-2.1883,-1.8338,0.0,0.0,0.0,0.0,0.0,0.0,0.0,0.0,0.0,0.0,0.0,0.0,0.0,0.0,0.0,0.0,0.0,0.0,0.0,0.0,-1.9162,-1.9915,-2.0996,-2.3242,-2.3545,-2.3574,-2.3652,-2.3965,-2.4199,-2.4287,-2.3916,-2.3701,-2.3779,-2.3389,-2.3135,-2.3135,-2.5231,-2.6058,-2.5126,-2.7267,-2.7947,-2.6801,-2.63,-2.5732,-2.5115,0.0,0.0,-2.3335,-2.3784,-2.3422,-2.2353,-2.166,-2.1309,-2.1201,-2.0752,-2.0361,-2.0019,-2.0078,-1.9939,-1.9715,-1.9264,-1.8714,-1.814,0.0,0.0,0.0,0.0,0.0,0.0,0.0,0.0,0.0,0.0,0.0,0.0,0.0,0.0,0.0,0.0,0.0,0.0,0.0,0.0,0.0,0.0,0.0,0.0,0.0,0.0,0.0,0.0,0.0,0.0,0.0,0.0,0.0,0.0,0.0,0.0,0.0,0.0,0.0,0.0,0.0,0.0,-2.9753,-2.8495,-2.7262,-2.6133,-2.5806,-2.5493,-2.4911,-2.3293,-2.3192,-2.3384,-2.0948,-1.899,-1.7277,0.0,0.0,0.0,0.0,0.0,0.0,0.0,0.0,0.0,0.0,0.0,0.0,0.0,0.0,-1.6129,0.0,0.0,-1.9565,-2.1442,-2.2129,-2.2799,-2.3913,-2.4287,-2.4346,-2.4131,-2.4287,-2.4502,-2.4717,-2.4355,-2.4102,-2.4102,-2.3711,-2.3369,-2.3154,-2.5231,-2.5975,-2.4872,-2.693,-2.7348,-2.563,-2.5391,-2.4808,-2.3963,-2.4229,-2.3921,-2.3125,-2.3493,-2.3318,-2.2793,-2.2148,-2.1758,-2.1514,-2.084,-2.0312,-1.9912,-1.9912,-1.9521,-1.8965,-1.8965,-1.8555,-1.7969,0.0,0.0,0.0,0.0,0.0,0.0,0.0,0.0,0.0,0.0,0.0,0.0,0.0,0.0,0.0,0.0,0.0,0.0,0.0,0.0,0.0,0.0,0.0,0.0,0.0,0.0,0.0,0.0,0.0,0.0,0.0,0.0,0.0,0.0,0.0,0.0,0.0,0.0,0.0,0.0,0.0,0.0,-3.2677,-3.0702,-2.9193,-2.8108,-2.8148,-2.6323,-2.3912,-2.481,-2.4482,-2.3569,-2.2983,-2.1764,-2.0124,-1.8071,-1.631,0.0,0.0,0.0,0.0,0.0,0.0,0.0,0.0,0.0,-1.5343,-1.6634,-1.8078,-1.9424,-2.0122,-2.1426,-2.2757,-2.3638,-2.4137,-2.4443,-2.4531,-2.4775,-2.4844,-2.458,-2.4619,-2.4814,-2.5166,-2.4717,-2.4414,-2.4414,-2.3945,-2.3516,-2.3154,-2.5231,-2.5891,-2.4542,-2.6614,-2.6685,-2.4457,-2.4457,-2.4049,-2.3135,-2.3135,-2.3135,-2.3135,-2.3135,-2.3135,-2.3105,-2.2607,-2.2148,-2.1699,-2.0898,-2.0312,-1.9912,-1.9912,-1.9443,-1.8799,-1.9062,-1.8521,-1.7695,0.0,0.0,0.0,0.0,0.0,0.0,0.0,0.0,0.0,0.0,0.0,0.0,0.0,0.0,0.0,0.0,0.0,0.0,0.0,0.0,0.0,0.0,0.0,0.0,0.0,0.0,0.0,0.0,0.0,0.0,0.0,0.0,0.0,0.0,0.0,0.0,0.0,0.0,0.0,0.0,0.0,0.0,-3.4038,-3.2063,-3.0824,-2.9878,-2.754,-2.5754,-2.4393,-2.3705,-2.3454,-2.3615,-2.4565,-2.3389,-2.1269,-1.9565,0.0,-1.5341,-1.4223,-1.3923,-1.4187,-1.5266,-1.5426,-1.6061,0.0,0.0,-2.0272,-2.036,-2.1996,-2.3188,-2.2444,-2.3207,-2.4111,-2.4289,-2.4336,-2.4551,-2.4941,-2.4697,-2.4619,-2.4951,-2.5352,-2.5615,-2.5664,-2.4902,-2.4414,-2.4414,-2.3672,-2.3193,-2.3135,-2.5231,-2.5473,-2.3387,-2.5473,-2.5557,-2.3299,-2.3309,-2.3222,-2.3135,-2.3135,-2.3135,-2.3135,-2.3135,-2.3135,-2.3096,-2.2305,-2.1709,-2.1269,-2.0771,-2.0312,-1.9912,-1.9912,-1.9629,-1.918,-1.8828,-1.7891,-1.6715,0.0,0.0,0.0,0.0,0.0,0.0,0.0,0.0,0.0,0.0,0.0,0.0,0.0,0.0,0.0,0.0,0.0,0.0,0.0,0.0,0.0,0.0,0.0,0.0,0.0,0.0,0.0,0.0,0.0,0.0,0.0,0.0,0.0,0.0,0.0,0.0,0.0,0.0,0.0,0.0,0.0,0.0,-3.3724,-3.2138,-3.0387,-2.854,-2.6642,-2.5156,0.0,0.0,-2.318,-2.3653,-2.4549,-2.368,-2.2072,-2.0709,-1.9249,0.0,-1.7002,-1.661,0.0,0.0,-1.8038,-1.9308,-2.0757,-2.153,-2.22,-2.3119,-2.449,-2.5269,-2.454,-2.5187,-2.5769,0.0,-2.5599,-2.5625,-2.581,-2.5234,-2.4863,-2.5049,-2.501,-2.4971,-2.4971,-2.4629,-2.4316,-2.4072,-2.3721,-2.3408,-2.3154,-2.4628,-2.4798,-2.3135,-2.4638,-2.4713,-2.3135,-2.3135,-2.3135,-2.3135,-2.3135,-2.3135,-2.3135,-2.3135,-2.3008,-2.2754,-2.2402,-2.1865,-2.1221,-2.1035,-2.0547,-1.9912,-1.9912,-1.9658,-1.9268,-1.9082,-1.8152,-1.6857,0.0,0.0,0.0,0.0,0.0,0.0,0.0,0.0,0.0,0.0,0.0,0.0,0.0,0.0,0.0,0.0,0.0,0.0,0.0,0.0,0.0,0.0,0.0,0.0,0.0,0.0,0.0,0.0,0.0,0.0,0.0,0.0,0.0,0.0,0.0,0.0,0.0,0.0,0.0,0.0,0.0,0.0,-3.3559,-3.1704,-2.946,-2.7096,-2.56,-2.3969,0.0,0.0,-2.1994,-2.2667,-2.355,-2.326,-2.2421,-2.1133,-1.9838,-1.8767,-1.842,0.0,0.0,-1.8603,-2.0122,-2.1711,-2.2231,-2.2962,-2.3869,-2.533,-2.6113,-2.6396,-2.584,-2.6338,0.0,-2.6279,-2.6309,-2.6387,-2.6387,-2.5625,-2.5019,-2.4902,-2.4404,-2.4062,-2.4062,-2.417,-2.4121,-2.3809,-2.3682,-2.3467,-2.3154,-2.4211,-2.4296,-2.3135,-2.4211,-2.4211,-2.3135,-2.3135,-2.3135,-2.3135,-2.3135,-2.3135,-2.3135,-2.3135,-2.2785,-2.2217,-2.2262,-2.1806,-2.0881,-2.0983,-2.0674,-2.0088,-2.0088,-1.9912,-1.9619,-1.9502,-1.8358,-1.6814,0.0,0.0,0.0,0.0,0.0,0.0,0.0,0.0,0.0,0.0,0.0,0.0,0.0,0.0,0.0,0.0,0.0,0.0,0.0,0.0,0.0,0.0,0.0,0.0,0.0,0.0,0.0,0.0,0.0,0.0,0.0,0.0,0.0,0.0,0.0,0.0,0.0,0.0,0.0,0.0,0.0,0.0,-3.4098,-3.0866,-2.8382,-2.6363,-2.4373,0.0,0.0,0.0,-1.9271,-2.0034,-2.1365,-2.2103,0.0,-2.0585,-1.8366,0.0,0.0,0.0,-1.8178,-2.0162,-2.1271,-2.2438,-2.4545,-2.5293,-2.5869,-2.6777,-2.6973,-2.6738,-2.5898,-2.6103,-2.6269,-2.583,-2.6113,-2.6387,-2.6387,-2.5625,-2.4912,-2.4492,-2.3691,-2.3184,0.0,-2.3555,-2.3799,-2.3789,-2.3398,-2.3154,-2.3135,-2.4211,-2.4296,-2.3135,-2.4211,-2.4211,-2.3135,-2.3135,-2.3135,-2.3135,-2.3135,-2.3135,-2.3135,-2.3135,-2.2482,-2.1328,-2.173,-2.1182,-2.0048,-2.0432,-2.0566,-2.0547,-2.0547,-2.0537,-2.0478,-2.0049,-1.83,-1.6211,0.0,0.0,0.0,0.0,0.0,0.0,0.0,0.0,0.0,0.0,0.0,0.0,0.0,0.0,0.0,0.0,0.0,0.0,0.0,0.0,0.0,0.0,0.0,0.0,0.0,0.0,0.0,0.0,0.0,0.0,0.0,0.0,0.0,0.0,0.0,0.0,0.0,0.0,0.0,0.0,0.0,0.0,-3.2766,-2.9026,-2.6348,-2.4283,0.0,0.0,0.0,0.0,-1.9413,-1.9837,-2.0533,0.0,0.0,-1.9995,-1.8989,-1.8214,0.0,0.0,-2.0066,-2.156,-2.2693,-2.3984,-2.5586,-2.6064,-2.6328,-2.6894,-2.649,-2.5615,-2.4414,-2.4862,-2.5288,-2.5037,-2.5816,-2.6484,-2.6768,-2.6309,-2.5566,-2.4541,-2.416,0.0,0.0,0.0,0.0,-2.3359,-2.3223,-2.3135,-2.3135,-2.3751,-2.3998,-2.3574,-2.4177,-2.4187,-2.3574,-2.3574,-2.3428,-2.3135,-2.3135,-2.3135,-2.3047,-2.2306,-2.1658,-2.1266,-2.0403,-2.0031,-1.9991,-1.997,-2.0169,-2.0566,-2.0566,-2.0566,-2.0547,-2.04,-1.9378,-1.8004,0.0,0.0,0.0,0.0,0.0,0.0,0.0,0.0,0.0,0.0,0.0,0.0,0.0,0.0,0.0,0.0,0.0,0.0,0.0,0.0,0.0,0.0,0.0,0.0,0.0,0.0,0.0,0.0,0.0,0.0,0.0,0.0,0.0,0.0,0.0,0.0,0.0,0.0,0.0,0.0,0.0,0.0,-2.9155,-2.6163,-2.3859,0.0,0.0,0.0,0.0,0.0,0.0,0.0,0.0,-1.9712,-1.9701,-1.9654,-1.9533,-1.957,0.0,-2.1158,-2.1883,-2.3113,-2.416,-2.5146,-2.6162,-2.6143,-2.5947,-2.6064,-2.4987,-2.3804,-2.2715,-2.2715,-2.3055,-2.3919,-2.4461,-2.5023,-2.5857,-2.5751,-2.5212,-2.4212,-2.4311,0.0,0.0,0.0,0.0,-2.3154,-2.3428,-2.3525,-2.3379,-2.3779,-2.4014,-2.4014,-2.4277,-2.4287,-2.4014,-2.3867,-2.3574,-2.3135,-2.3135,-2.2862,-2.2403,-2.1658,-2.0845,-2.0017,-1.9287,-1.9095,-1.9408,-1.9448,-1.9962,-2.0566,-2.0566,-2.0566,-2.0566,-2.0566,-2.0157,-1.9446,0.0,0.0,0.0,0.0,0.0,0.0,0.0,0.0,0.0,0.0,0.0,0.0,0.0,0.0,0.0,0.0,0.0,0.0,0.0,0.0,0.0,0.0,0.0,0.0,0.0,0.0,0.0,0.0,0.0,0.0,0.0,0.0,0.0,0.0,0.0,0.0,0.0,0.0,0.0,0.0,0.0,0.0,-2.3762,-2.2493,0.0,0.0,0.0,0.0,0.0,0.0,0.0,0.0,0.0,0.0,-1.9749,-1.9707,-2.0034,-2.0648,-2.1728,-2.2668,-2.3638,-2.4908,-2.5469,-2.5879,-2.6299,-2.5654,-2.4834,-2.4438,-2.2774,-2.1321,0.0,0.0,-1.9857,-2.2247,-2.2147,-2.2306,-2.3795,-2.4234,-2.4187,0.0,0.0,0.0,0.0,0.0,0.0,-2.3242,0.0,-2.4219,-2.3838,-2.4228,-2.4453,-2.4453,-2.4473,-2.4473,-2.4453,-2.4033,-2.3603,-2.3174,-2.3086,-2.2422,-2.1293,-2.1203,-1.9852,-1.7762,-1.8398,-1.849,-1.8329,-1.9042,-1.982,-2.0625,-2.0605,-2.0615,-2.0625,-2.0605,-2.0596,-2.0518,0.0,0.0,0.0,0.0,0.0,0.0,0.0,0.0,0.0,0.0,0.0,0.0,0.0,0.0,0.0,0.0,0.0,0.0,0.0,0.0,0.0,0.0,0.0,0.0,0.0,0.0,0.0,0.0,0.0,0.0,0.0,0.0,0.0,0.0,0.0,0.0,0.0,0.0,0.0,0.0,0.0,0.0,-2.2547,0.0,0.0,0.0,0.0,0.0,0.0,0.0,0.0,0.0,0.0,0.0,-2.0657,-2.1255,0.0,-2.297,-2.3881,-2.4808,-2.5688,-2.6398,-2.6367,-2.625,-2.6367,-2.4971,-2.3584,-2.3165,-2.1323,-1.9488,0.0,0.0,0.0,-1.9756,-2.0959,0.0,-2.2946,-2.4526,0.0,0.0,0.0,-2.5498,-2.4512,-2.4619,0.0,0.0,-2.4004,-2.4043,-2.4248,-2.4668,-2.4902,-2.4902,-2.5225,-2.5244,-2.4902,-2.4473,-2.4043,-2.3623,-2.2706,-2.1979,-2.1203,-1.9405,-1.8326,-1.7669,-1.6699,-1.7221,-1.8682,-1.8312,-1.9504,-2.1514,-2.1191,-2.126,-2.1514,-2.1191,-2.1064,-2.0936,0.0,0.0,0.0,0.0,0.0,0.0,0.0,0.0,0.0,0.0,0.0,0.0,0.0,0.0,0.0,0.0,0.0,0.0,0.0,0.0,0.0,0.0,0.0,0.0,0.0,0.0,0.0,0.0,0.0,0.0,0.0,0.0,0.0,0.0,0.0,0.0,0.0,0.0,0.0,0.0,0.0,0.0,0.0,0.0,0.0,0.0,0.0,0.0,0.0,0.0,0.0,-2.0001,-2.0946,-2.1452,-2.1818,-2.2784,0.0,-2.4356,-2.5345,-2.6274,-2.6963,-2.7002,-2.6699,-2.6173,-2.5445,-2.3941,-2.2308,-2.1204,-1.9402,0.0,0.0,0.0,0.0,0.0,0.0,0.0,-2.0956,-2.3186,-2.4298,0.0,-2.5097,0.0,-2.5615,-2.5439,-2.541,0.0,-2.499,-2.4668,-2.4697,-2.5117,-2.5361,-2.5361,-2.5605,-2.5518,-2.5068,-2.4824,-2.4204,-2.3221,-2.2464,-2.1406,-1.982,-1.845,-1.7544,-1.6842,0.0,-1.7318,-1.8838,-1.9041,-2.0186,-2.1865,-2.1611,-2.167,-2.1855,-2.1611,-2.1523,-2.1484,0.0,0.0,0.0,0.0,0.0,0.0,0.0,0.0,0.0,0.0,0.0,0.0,0.0,0.0,0.0,0.0,0.0,0.0,0.0,0.0,0.0,0.0,0.0,0.0,0.0,0.0,0.0,0.0,0.0,0.0,0.0,0.0,0.0,0.0,0.0,0.0,0.0,0.0,0.0,0.0,0.0,0.0,0.0,0.0,0.0,0.0,0.0,0.0,0.0,0.0,-1.9336,-2.0322,-2.1747,-2.2548,-2.3138,-2.4136,-2.4775,-2.5409,-2.63,-2.7139,-2.7656,-2.7275,-2.6787,-2.5964,-2.4268,-2.2736,-2.1069,-1.9079,0.0,0.0,-1.5785,0.0,-1.4419,-1.6545,0.0,-1.6741,-1.8606,-2.1156,-2.2826,-2.2761,-2.4856,-2.6553,-2.6973,-2.6289,-2.6152,-2.6953,-2.6328,-2.5713,-2.5264,-2.5615,-2.5771,-2.5654,-2.5703,-2.5518,-2.5068,-2.5022,-2.4051,-2.2497,-2.2108,-2.0637,-1.8074,-1.7882,-1.7237,-1.6109,-1.7225,0.0,-1.9187,-2.0298,-2.1258,-2.2041,-2.1992,-2.2002,-2.2041,-2.1992,-2.1973,-2.1963,0.0,0.0,0.0,0.0,0.0,0.0,0.0,0.0,0.0,0.0,0.0,0.0,0.0,0.0,0.0,0.0,0.0,0.0,0.0,0.0,0.0,0.0,0.0,0.0,0.0,0.0,0.0,0.0,0.0,0.0,0.0,0.0,0.0,0.0,0.0,0.0,0.0,0.0,0.0,0.0,0.0,0.0,0.0,0.0,0.0,0.0,0.0,0.0,0.0,0.0,-1.9643,-2.0371,-2.2262,-2.3412,-2.4305,-2.5189,-2.5994,-2.6784,-2.7339,-2.7803,-2.8164,-2.8086,-2.7226,-2.5964,-2.4268,-2.208,0.0,0.0,0.0,-1.5179,-1.4788,-1.4177,0.0,-1.5205,0.0,0.0,0.0,0.0,-2.2467,0.0,0.0,0.0,0.0,0.0,0.0,0.0,0.0,-2.6611,-2.6182,-2.623,-2.5947,-2.5205,-2.5547,-2.5518,-2.5068,-2.4319,-2.3581,-2.2892,-2.0736,-1.914,-1.8082,-1.7036,-1.6868,-1.7412,-1.7598,0.0,-2.09,-2.0754,-2.1584,-2.2891,-2.2539,-2.2617,-2.2881,-2.2529,-2.2402,-2.2353,0.0,0.0,0.0,0.0,0.0,0.0,0.0,0.0,0.0,0.0,0.0,0.0,0.0,0.0,0.0,0.0,0.0,0.0,0.0,0.0,0.0,0.0,0.0,0.0,0.0,0.0,0.0,0.0,0.0,0.0,0.0,0.0,0.0,0.0,0.0,0.0,0.0,0.0,0.0,0.0,0.0,0.0,0.0,0.0,0.0,0.0,0.0,0.0,0.0,0.0,-1.9045,-2.0128,-2.2594,-2.3831,-2.4639,-2.5752,-2.6367,-2.6885,-2.7754,-2.8135,-2.8242,-2.8018,-2.6826,-2.5212,-2.3086,0.0,0.0,0.0,0.0,-1.4943,-1.4566,0.0,0.0,0.0,0.0,0.0,0.0,0.0,0.0,0.0,0.0,0.0,0.0,0.0,0.0,0.0,0.0,-2.707,-2.6426,-2.6172,-2.5752,-2.5088,-2.5273,-2.4986,-2.3982,-2.3578,-2.2589,-2.1195,-1.9999,-1.8657,-1.7366,-1.6789,-1.6919,-1.7684,-1.8319,0.0,-2.1364,-2.1738,-2.2408,-2.3115,-2.292,-2.2959,-2.3115,-2.291,-2.2832,-2.2812,0.0,0.0,0.0,0.0,0.0,0.0,0.0,0.0,0.0,0.0,0.0,0.0,0.0,0.0,0.0,0.0,0.0,0.0,0.0,0.0,0.0,0.0,0.0,0.0,0.0,0.0,0.0,0.0,0.0,0.0,0.0,0.0,0.0,0.0,0.0,0.0,0.0,0.0,0.0,0.0,0.0,0.0,0.0,0.0,0.0,0.0,0.0,0.0,0.0,0.0,-1.8008,-1.9293,-2.2002,-2.3624,-2.4686,-2.5486,-2.6247,-2.6953,-2.779,-2.8154,-2.8174,-2.7656,-2.6221,-2.4286,-2.1849,-1.9918,0.0,0.0,0.0,-1.4845,-1.4438,0.0,0.0,0.0,0.0,0.0,0.0,0.0,0.0,0.0,0.0,0.0,0.0,0.0,0.0,0.0,0.0,0.0,-2.6426,-2.5977,-2.5488,-2.4941,-2.5107,-2.4431,-2.2874,-2.2735,-2.167,-1.9627,-1.9324,-1.8313,-1.68,-1.7095,-1.7674,-1.8356,-1.9561,0.0,0.0,-2.2715,-2.3135,-2.3135,-2.3135,-2.3135,-2.3135,-2.3135,-2.3135,-2.3135,0.0,0.0,0.0,0.0,0.0,0.0,0.0,0.0,0.0,0.0,0.0,0.0,0.0,0.0,0.0,0.0,0.0,0.0,0.0,0.0,0.0,0.0,0.0,0.0,0.0,0.0,0.0,0.0,0.0,0.0,0.0,0.0,0.0,0.0,0.0,0.0,0.0,0.0,0.0,0.0,0.0,0.0,0.0,0.0,0.0,0.0,0.0,0.0,0.0,0.0,0.0,-1.7189,-1.9241,-2.2165,-2.4691,-2.3782,0.0,0.0,-2.725,-2.7705,-2.8096,-2.7275,-2.5762,-2.3827,-2.134,0.0,0.0,0.0,-1.4845,-1.4438,-1.4019,-1.3139,0.0,0.0,0.0,0.0,0.0,0.0,0.0,0.0,0.0,0.0,0.0,0.0,0.0,0.0,0.0,0.0,-2.6406,-2.5977,-2.5352,-2.4502,-2.5254,-2.4602,-2.2479,-2.2073,-2.1111,-1.9627,-1.8408,-1.7519,-1.721,-1.8405,-1.949,-2.0358,-2.1366,0.0,0.0,-2.3213,-2.3135,-2.3135,-2.3135,-2.3135,-2.3135,-2.3135,-2.3135,-2.3135,0.0,0.0,0.0,0.0,0.0,0.0,0.0,0.0,0.0,0.0,0.0,0.0,0.0,0.0,0.0,0.0,0.0,0.0,0.0,0.0,0.0,0.0,0.0,0.0,0.0,0.0,0.0,0.0,0.0,0.0,0.0,0.0,0.0,0.0,0.0,0.0,0.0,0.0,0.0,0.0,0.0,0.0,0.0,0.0,0.0,0.0,0.0,0.0,0.0,0.0,0.0,0.0,-1.6956,-1.9228,0.0,0.0,-2.3966,-2.5445,-2.6616,-2.7266,-2.7383,-2.6787,-2.5245,-2.3283,-2.0893,0.0,0.0,-1.5012,-1.4234,-1.3809,-1.3409,-1.2839,-1.2537,0.0,0.0,0.0,0.0,0.0,0.0,0.0,0.0,0.0,0.0,0.0,0.0,0.0,0.0,0.0,-2.6006,-2.583,-2.5054,-2.3558,-2.3864,-2.2886,-2.0426,-2.0778,-2.0329,-1.9241,-1.9524,-1.9552,-1.9231,-2.0027,-2.0916,-2.1803,-2.191,0.0,0.0,-2.332,-2.3135,-2.3135,-2.3135,-2.3135,-2.3135,-2.3135,-2.3135,-2.3135,0.0,0.0,0.0,0.0,0.0,0.0,0.0,0.0,0.0,0.0,0.0,0.0,0.0,0.0,0.0,0.0,0.0,0.0,0.0,0.0,0.0,0.0,0.0,0.0,0.0,0.0,0.0,0.0,0.0,0.0,0.0,0.0,0.0,0.0,0.0,0.0,0.0,0.0,0.0,0.0,0.0,0.0,0.0,0.0,0.0,0.0,0.0,0.0,0.0,0.0,0.0,0.0,0.0,0.0,0.0,0.0,-2.2204,-2.3716,-2.5229,-2.6123,-2.6475,-2.5791,-2.4226,-2.2328,0.0,0.0,0.0,-1.4539,-1.3713,-1.3206,-1.3006,-1.2666,-1.2467,0.0,0.0,0.0,0.0,0.0,0.0,0.0,0.0,0.0,0.0,0.0,0.0,0.0,0.0,0.0,0.0,-2.5742,-2.483,-2.3105,-2.3386,-2.2249,-1.9392,-2.0419,-2.0565,-1.9637,-2.052,-2.0925,-2.0997,-2.1641,-2.2319,-2.294,-2.2925,0.0,0.0,-2.3506,-2.3262,-2.3135,-2.3135,-2.3135,-2.3135,-2.3135,-2.3135,-2.3135,0.0,0.0,0.0,0.0,0.0,0.0,0.0,0.0,0.0,0.0,0.0,0.0,0.0,0.0,0.0,0.0,0.0,0.0,0.0,0.0,0.0,0.0,0.0,0.0,0.0,0.0,0.0,0.0,0.0,0.0,0.0,0.0,0.0,0.0,0.0,0.0,0.0,0.0,0.0,0.0,0.0,0.0,0.0,0.0,0.0,0.0,0.0,0.0,0.0,0.0,0.0,0.0,0.0,0.0,0.0,0.0,-2.0533,-2.3525,-2.2809,-2.419,-2.5439,-2.4141,-2.2544,-2.0898,0.0,0.0,0.0,-1.4267,-1.3361,-1.2758,-1.2874,-1.2615,-1.2559,-1.3098,0.0,0.0,0.0,0.0,0.0,0.0,0.0,0.0,0.0,0.0,0.0,0.0,0.0,0.0,0.0,-2.5742,-2.483,-2.3105,-2.4374,-2.3586,-2.0393,-2.1743,-2.1926,-2.0999,-2.0999,-2.1188,-2.1736,-2.3067,-2.3683,0.0,0.0,0.0,0.0,-2.3955,-2.3525,-2.3135,-2.3135,-2.3135,-2.3135,-2.3135,-2.3135,-2.3135,0.0,0.0,0.0,0.0,0.0,0.0,0.0,0.0,0.0,0.0,0.0,0.0,0.0,0.0,0.0,0.0,0.0,0.0,0.0,0.0,0.0,0.0,0.0,0.0,0.0,0.0,0.0,0.0,0.0,0.0,0.0,0.0,0.0,0.0,0.0,0.0,0.0,0.0,0.0,0.0,0.0,0.0,0.0,0.0,0.0,0.0,0.0,0.0,0.0,0.0,0.0,0.0,0.0,0.0,0.0,0.0,0.0,0.0,-2.1068,-2.1773,-2.2198,-2.1808,-2.0778,-1.9426,-1.7663,0.0,0.0,-1.3248,-1.277,-1.2484,-1.1864,-1.2091,-1.2592,-1.311,-1.3546,0.0,0.0,0.0,0.0,0.0,0.0,0.0,0.0,0.0,0.0,0.0,0.0,0.0,0.0,-2.5742,-2.483,-2.3105,-2.3386,-2.2601,-2.0385,-2.1735,-2.228,-2.2014,-2.3249,-2.3846,-2.4082,-2.478,-2.5118,0.0,0.0,0.0,0.0,-2.3965,-2.3535,-2.3135,-2.3135,-2.3135,-2.3135,-2.3135,-2.3135,-2.3135,0.0,0.0,0.0,0.0,0.0,0.0,0.0,0.0,0.0,0.0,0.0,0.0,0.0,0.0,0.0,0.0,0.0,0.0,0.0,0.0,0.0,0.0,0.0,0.0,0.0,0.0,0.0,0.0,0.0,0.0,0.0,0.0,0.0,0.0,0.0,0.0,0.0,0.0,0.0,0.0,0.0,0.0,-1.3173,0.0,0.0,0.0,0.0,0.0,0.0,0.0,0.0,0.0,0.0,0.0,0.0,0.0,0.0,0.0,0.0,-1.989,-2.0175,-2.003,-1.9291,0.0,0.0,0.0,0.0,0.0,0.0,-1.1855,-1.1295,-1.1519,-1.1996,-1.276,-1.3383,0.0,0.0,0.0,0.0,0.0,0.0,0.0,0.0,0.0,0.0,0.0,0.0,0.0,0.0,-2.5576,-2.4881,-2.3567,-2.3548,-2.2682,-2.0959,-2.2285,-2.3029,-2.3186,-2.4477,-2.5156,-2.5322,-2.5439,-2.5488,0.0,0.0,0.0,0.0,-2.3896,-2.3535,-2.3135,-2.3135,-2.3135,-2.3135,-2.3135,-2.3135,-2.3135,0.0,0.0,0.0,0.0,0.0,0.0,0.0,0.0,0.0,0.0,0.0,0.0,0.0,0.0,0.0,0.0,0.0,0.0,0.0,0.0,0.0,0.0,0.0,0.0,0.0,0.0,0.0,-1.441,-1.3803,-1.3498,-1.3481,0.0,0.0,0.0,0.0,0.0,0.0,0.0,0.0,0.0,0.0,0.0,0.0,0.0,0.0,0.0,0.0,0.0,0.0,0.0,0.0,0.0,0.0,0.0,0.0,0.0,0.0,0.0,0.0,0.0,0.0,0.0,0.0,0.0,0.0,0.0,0.0,0.0,0.0,0.0,0.0,-1.0956,-1.1132,-1.2341,-1.2985,0.0,0.0,0.0,0.0,0.0,0.0,0.0,0.0,0.0,0.0,0.0,0.0,0.0,0.0,-2.5273,-2.4853,-2.4385,-2.4375,-2.3601,-2.1897,-2.3157,-2.4033,-2.4424,-2.4893,-2.5322,-2.5674,-2.5254,-2.5049,0.0,0.0,0.0,0.0,-2.3879,-2.3614,-2.3135,-2.3135,-2.3135,-2.3135,-2.3135,-2.3135,-2.3135,0.0,0.0,0.0,0.0,0.0,0.0,0.0,0.0,0.0,0.0,0.0,0.0,0.0,0.0,0.0,0.0,0.0,0.0,0.0,0.0,0.0,0.0,0.0,0.0,0.0,0.0,0.0,-1.3667,-1.4213,-1.4384,-1.4259,-1.4983,0.0,0.0,0.0,0.0,0.0,0.0,0.0,0.0,0.0,0.0,0.0,0.0,0.0,0.0,-1.3052,-1.3208,0.0,0.0,0.0,0.0,0.0,0.0,0.0,0.0,-1.4265,-1.47,-1.5019,0.0,-1.6522,0.0,0.0,0.0,0.0,0.0,0.0,0.0,0.0,0.0,0.0,0.0,0.0,0.0,0.0,0.0,0.0,0.0,0.0,0.0,0.0,0.0,0.0,0.0,0.0,0.0,0.0,0.0,0.0,-2.4941,-2.4717,-2.3965,-2.3935,-2.3541,-2.284,-2.3754,-2.4316,-2.4424,-2.5205,-2.5449,-2.5225,-2.5117,-2.4883,0.0,0.0,0.0,-2.3879,-2.4642,-2.4301,-2.3135,-2.3135,-2.3135,-2.3135,-2.3135,-2.3135,-2.3135,0.0,0.0,0.0,0.0,0.0,0.0,0.0,0.0,0.0,0.0,0.0,0.0,0.0,0.0,0.0,0.0,0.0,0.0,0.0,0.0,0.0,0.0,0.0,0.0,0.0,0.0,0.0,0.0,0.0,-1.4604,0.0,0.0,0.0,0.0,0.0,0.0,0.0,0.0,0.0,0.0,-1.3396,0.0,0.0,0.0,0.0,0.0,-1.2754,-1.3075,0.0,-1.4145,-1.4435,-1.4543,0.0,0.0,0.0,0.0,-1.3068,-1.3424,-1.3373,-1.4371,-1.5433,-1.5293,-1.4924,-1.431,0.0,0.0,0.0,0.0,0.0,0.0,0.0,0.0,0.0,0.0,0.0,0.0,0.0,0.0,0.0,0.0,0.0,0.0,0.0,0.0,0.0,0.0,0.0,0.0,0.0,-2.4463,-2.4268,-2.3809,-2.3594,-2.3379,-2.3135,-2.3799,-2.4131,-2.4141,-2.4805,-2.501,-2.4766,-2.5105,-2.4784,0.0,0.0,0.0,-2.3575,-2.4676,-2.4359,-2.3135,-2.3135,-2.3135,-2.3135,-2.3135,-2.3135,-2.3135,0.0,0.0,0.0,0.0,0.0,0.0,0.0,0.0,0.0,0.0,0.0,0.0,0.0,0.0,0.0,0.0,0.0,0.0,0.0,0.0,0.0,0.0,0.0,0.0,0.0,0.0,0.0,0.0,0.0,0.0,0.0,0.0,-1.5544,0.0,0.0,0.0,0.0,0.0,0.0,0.0,-1.3396,0.0,0.0,0.0,0.0,0.0,0.0,0.0,0.0,-1.3767,-1.4222,-1.4522,-1.3817,0.0,0.0,0.0,0.0,0.0,-1.1985,-1.3302,-1.4769,-1.5124,-1.4613,-1.3853,0.0,0.0,0.0,0.0,0.0,0.0,0.0,0.0,0.0,0.0,0.0,0.0,0.0,0.0,0.0,0.0,0.0,0.0,0.0,0.0,0.0,0.0,0.0,0.0,0.0,-2.3945,-2.376,-2.3691,-2.333,-2.3135,-2.3135,-2.3574,-2.3879,-2.4048,-2.4483,-2.4733,-2.4836,-2.5415,-2.5119,-2.4275,0.0,0.0,-2.3474,-2.4628,-2.4296,-2.3135,-2.3135,-2.3135,-2.3135,-2.3135,-2.3135,-2.3135,0.0,0.0,0.0,0.0,0.0,0.0,0.0,0.0,0.0,0.0,0.0,0.0,0.0,0.0,0.0,0.0,0.0,0.0,0.0,0.0,0.0,0.0,0.0,0.0,0.0,0.0,0.0,0.0,0.0,0.0,-1.4528,-1.6542,-1.7067,-1.6343,0.0,-1.4919,-1.4344,-1.4344,-1.3971,-1.3396,-1.3396,0.0,0.0,0.0,0.0,0.0,0.0,0.0,0.0,-1.3706,-1.3431,-1.2705,-1.3021,0.0,0.0,0.0,0.0,0.0,-1.1004,-1.179,-1.2768,-1.2553,-1.2716,-1.2649,0.0,0.0,0.0,0.0,0.0,0.0,0.0,0.0,0.0,0.0,0.0,0.0,0.0,0.0,0.0,0.0,0.0,0.0,0.0,0.0,0.0,0.0,0.0,0.0,0.0,-2.3623,-2.3623,-2.3252,-2.3174,-2.3135,-2.3135,-2.3574,-2.4217,-2.5171,-2.5627,-2.6161,-2.6702,-2.6808,-2.6554,-2.6168,0.0,-2.6603,-2.4628,-2.5808,-2.4978,-2.3135,-2.3135,-2.3135,-2.3135,-2.3135,-2.3135,-2.3222,0.0,0.0,0.0,0.0,0.0,0.0,0.0,0.0,0.0,0.0,0.0,0.0,0.0,0.0,0.0,0.0,0.0,0.0,0.0,0.0,0.0,0.0,0.0,0.0,0.0,0.0,0.0,0.0,0.0,-1.4834,-1.4511,-1.5525,-1.6052,-1.6072,0.0,-1.4208,-1.3921,-1.4344,-1.4073,-1.3413,0.0,0.0,0.0,0.0,0.0,0.0,0.0,0.0,0.0,0.0,-1.2719,-1.2197,-1.2159,0.0,0.0,0.0,0.0,0.0,-1.0302,-1.1094,-1.1814,-1.1096,-1.1536,-1.2019,0.0,0.0,0.0,0.0,0.0,0.0,0.0,0.0,0.0,0.0,0.0,0.0,0.0,0.0,0.0,0.0,0.0,0.0,0.0,0.0,0.0,0.0,0.0,0.0,0.0,0.0,-2.335,-2.3144,-2.3135,-2.3387,-2.4049,-2.4252,-2.4615,-2.5123,-2.5937,-2.6439,-2.6808,-2.7378,-2.7252,-2.6554,0.0,-2.7441,-2.4872,-2.6058,-2.5147,-2.3135,-2.3135,-2.3135,-2.3135,-2.3135,-2.3464,-2.4125,0.0,0.0,0.0,0.0,0.0,0.0,0.0,0.0,0.0,0.0,0.0,0.0,0.0,0.0,0.0,0.0,0.0,0.0,0.0,0.0,0.0,0.0,0.0,0.0,0.0,0.0,-1.3632,-1.3076,-1.3597,-1.4014,-1.4331,-1.4441,-1.4763,0.0,0.0,-1.3566,-1.3447,-1.4191,-1.4037,-1.3345,0.0,0.0,0.0,0.0,0.0,0.0,0.0,0.0,0.0,0.0,0.0,0.0,0.0,0.0,0.0,-1.0018,-0.9905,-0.988,-0.9742,-1.0558,-1.1187,0.0,0.0,0.0,0.0,0.0,0.0,0.0,0.0,0.0,0.0,0.0,0.0,0.0,0.0,0.0,0.0,0.0,0.0,0.0,0.0,0.0,0.0,0.0,0.0,0.0,0.0,0.0,0.0,0.0,-2.3135,-2.3135,-2.3387,-2.3877,-2.4787,-2.5284,-2.5525,-2.5608,-2.6461,-2.7046,-2.7302,-2.8108,-2.8028,-2.7395,-2.904,-2.8039,-2.5294,-2.6141,-2.5147,-2.3135,-2.3135,-2.3135,-2.3135,-2.3135,-2.38,-2.4872,0.0,0.0,0.0,0.0,0.0,0.0,0.0,0.0,0.0,0.0,0.0,0.0,0.0,0.0,0.0,0.0,0.0,0.0,0.0,0.0,0.0,0.0,0.0,0.0,0.0,-1.264,-1.2157,-1.2107,-1.1975,-1.2573,-1.3856,-1.4293,-1.4402,-1.4211,0.0,-1.4039,-1.3447,-1.4191,-1.393,-1.3081,-1.3809,0.0,0.0,0.0,0.0,0.0,0.0,0.0,0.0,0.0,0.0,0.0,0.0,0.0,-0.9956,-0.9905,-0.9905,-0.9792,-0.9302,-1.0034,-1.0754,-0.9847,0.0,0.0,0.0,0.0,0.0,0.0,0.0,0.0,0.0,0.0,0.0,0.0,0.0,0.0,0.0,0.0,0.0,0.0,0.0,0.0,0.0,0.0,0.0,0.0,0.0,0.0,0.0,0.0,0.0,-2.3135,-2.4135,-2.4702,-2.4787,-2.6849,-2.7844,-2.7844,-2.7924,-2.8518,-2.9546,-2.9624,-2.9624,-2.9546,-2.9714,-2.8462,-2.6389,-2.6483,-2.5147,-2.3135,-2.3135,-2.3135,-2.3135,-2.3135,-2.38,-2.4957,0.0,0.0,0.0,0.0,0.0,0.0,0.0,0.0,0.0,0.0,0.0,0.0,0.0,0.0,0.0,0.0,0.0,0.0,0.0,0.0,0.0,0.0,0.0,-1.3396,-1.3396,-1.3305,-1.2851,-1.2007,-1.176,-1.244,-1.3992,-1.4181,0.0,0.0,0.0,0.0,-1.4516,-1.5247,-1.4722,-1.3412,-1.3978,-1.3425,0.0,0.0,0.0,0.0,0.0,0.0,0.0,0.0,-1.0341,-0.9931,0.0,0.0,-0.9905,-0.9905,-0.9905,-0.9855,-0.9642,-1.0814,-1.1799,-1.0691,0.0,0.0,0.0,0.0,0.0,0.0,0.0,0.0,0.0,0.0,0.0,0.0,0.0,0.0,0.0,0.0,0.0,0.0,0.0,0.0,0.0,0.0,0.0,0.0,0.0,0.0,0.0,0.0,0.0,-2.4125,-2.4542,-2.5452,-2.6849,-2.7671,-2.8438,-2.9197,-2.9197,-2.9365,-2.9792,-2.9792,-2.9792,-2.9792,-2.9792,-2.8949,-2.7522,-2.7522,-2.6202,-2.4125,-2.3387,-2.3135,-2.3222,-2.3887,-2.4882,-2.6047,0.0,0.0,0.0,0.0,0.0,0.0,0.0,0.0,0.0,0.0,0.0,0.0,0.0,0.0,0.0,0.0,0.0,0.0,0.0,0.0,0.0,0.0,0.0,-1.3396,-1.3396,-1.3705,-1.3325,-1.2188,-1.1925,-1.2274,-1.3206,0.0,0.0,0.0,0.0,0.0,0.0,-1.555,-1.4976,-1.382,-1.4155,-1.3543,0.0,0.0,0.0,0.0,0.0,0.0,0.0,0.0,0.0,0.0,0.0,0.0,0.0,0.0,0.0,-0.9905,-0.9905,-1.0906,-1.1859,0.0,0.0,0.0,0.0,0.0,0.0,0.0,0.0,0.0,0.0,0.0,0.0,0.0,0.0,0.0,0.0,0.0,0.0,0.0,0.0,0.0,0.0,0.0,0.0,0.0,0.0,0.0,0.0,0.0,0.0,0.0,-2.5452,-2.6603,-2.8096,-2.8438,-2.9028,-2.9792,-2.9792,-2.9792,-2.9792,-2.9792,-2.9792,-2.9792,-2.9792,-2.9118,-2.8096,-2.8096,-2.7023,-2.5294,-2.4478,-2.4135,-2.4221,-2.4628,-2.5546,-2.6554,0.0,0.0,0.0,0.0,0.0,0.0,0.0,0.0,0.0,0.0,0.0,0.0,0.0,0.0,0.0,0.0,0.0,0.0,0.0,0.0,0.0,0.0,0.0,-1.3396,-1.3396,-1.3518,-1.3275,-1.2591,-1.2316,-1.1854,-1.1259,-1.3206,0.0,0.0,0.0,0.0,0.0,0.0,-1.4514,-1.4208,-1.4288,-1.3705,-1.2754,0.0,0.0,0.0,0.0,0.0,0.0,0.0,0.0,0.0,0.0,0.0,0.0,0.0,-0.9905,-0.9905,-0.9893,-1.0049,0.0,0.0,0.0,0.0,0.0,0.0,0.0,0.0,0.0,0.0,0.0,0.0,0.0,0.0,0.0,0.0,0.0,0.0,0.0,0.0,0.0,0.0,0.0,0.0,0.0,0.0,0.0,0.0,0.0,0.0,0.0,0.0,-2.6919,-2.8072,-2.8084,-2.9184,-2.9779,-2.9792,-2.9779,-2.9779,-2.9792,-2.9792,-2.9792,-2.9792,-2.9792,-2.9184,-2.8096,-2.8096,-2.7441,-2.6472,-2.6483,-2.6483,-2.6389,-2.521,-2.5546,-2.6307,0.0,0.0,0.0,0.0,0.0,0.0,0.0,0.0,0.0,0.0,0.0,0.0,0.0,0.0,0.0,0.0,0.0,0.0,0.0,0.0,0.0,0.0,0.0,0.0,0.0,0.0,-1.351,-1.2748,-1.1718,-1.1543,0.0,0.0,0.0,-1.521,0.0,0.0,0.0,0.0,-1.5366,-1.4615,-1.4626,-1.392,-1.2754,0.0,0.0,0.0,0.0,0.0,0.0,0.0,0.0,0.0,0.0,0.0,0.0,0.0,-0.9905,-0.9854,-0.9607,0.0,0.0,0.0,0.0,0.0,0.0,0.0,0.0,0.0,0.0,0.0,0.0,0.0,0.0,0.0,0.0,0.0,0.0,0.0,0.0,0.0,0.0,0.0,0.0,0.0,0.0,0.0,0.0,0.0,0.0,0.0,0.0,0.0,-2.6228,-2.7512,-2.8682,-2.8637,-2.9013,-2.9779,-2.9377,-2.9402,-2.9792,-2.9792,-2.9792,-2.9792,-2.9792,-2.9624,-2.9197,-2.8426,-2.7924,-2.7522,-2.6801,-2.6483,-2.6554,-2.6942,-2.6871,-2.6554,0.0,0.0,0.0,0.0,0.0,0.0,0.0,0.0,0.0,0.0,0.0,0.0,0.0,0.0,0.0,0.0,0.0,0.0,0.0,0.0,0.0,0.0,0.0,0.0,0.0,-1.3479,-1.3312,0.0,0.0,0.0,0.0,0.0,0.0,-1.5486,0.0,-1.6977,0.0,0.0,-1.5513,-1.5184,-1.4902,-1.4087,-1.2957,0.0,0.0,0.0,0.0,0.0,0.0,0.0,0.0,0.0,0.0,0.0,0.0,0.0,-0.9686,-0.9705,-0.9671,0.0,0.0,0.0,0.0,0.0,0.0,0.0,0.0,0.0,0.0,0.0,0.0,0.0,0.0,0.0,0.0,0.0,0.0,0.0,0.0,0.0,0.0,0.0,0.0,0.0,0.0,0.0,0.0,0.0,0.0,0.0,0.0,0.0,-2.6574,-2.7569,-2.8599,-2.8273,-2.8448,-2.9114,-2.8775,-2.8787,-2.9139,-2.9591,-2.9534,-2.9106,-2.9106,-2.9365,-2.9792,-2.9028,-2.8767,-2.8688,-2.8039,-2.7799,-2.7799,-2.7533,-2.7046,-2.6472,0.0,0.0,0.0,0.0,0.0,0.0,0.0,0.0,0.0,0.0,0.0,0.0,0.0,0.0,0.0,0.0,0.0,0.0,0.0,0.0,0.0,0.0,0.0,0.0,0.0,0.0,0.0,0.0,0.0,0.0,0.0,0.0,-1.4951,-1.5199,0.0,-1.6789,0.0,-1.535,-1.5169,-1.5649,-1.4962,-1.4089,-1.3171,-1.2812,0.0,0.0,0.0,0.0,0.0,0.0,0.0,0.0,0.0,0.0,0.0,-0.9502,-0.9441,-0.9615,0.0,0.0,0.0,0.0,0.0,0.0,0.0,0.0,0.0,0.0,0.0,0.0,0.0,0.0,0.0,0.0,0.0,0.0,0.0,0.0,0.0,0.0,0.0,0.0,0.0,0.0,0.0,0.0,0.0,0.0,0.0,0.0,0.0,-2.6356,-2.7422,-2.7984,-2.8034,-2.7984,-2.8009,-2.8109,-2.8059,-2.8059,-2.8147,-2.9164,-2.9073,-2.8024,-2.7992,-2.8518,-2.9468,-2.9468,-2.9468,-2.9468,-2.9468,-2.9468,-2.9287,-2.7221,-2.6389,-2.6058,0.0,0.0,0.0,0.0,0.0,0.0,0.0,0.0,0.0,0.0,0.0,0.0,0.0,0.0,0.0,0.0,0.0,0.0,0.0,0.0,0.0,0.0,0.0,0.0,0.0,0.0,0.0,0.0,0.0,0.0,0.0,0.0,0.0,-1.4857,0.0,-1.6659,-1.6336,-1.5243,-1.4872,-1.4932,-1.3991,-1.3176,-1.247,-1.1921,-1.1161,0.0,0.0,0.0,0.0,0.0,0.0,0.0,0.0,-0.9905,-0.9841,-0.9502,-0.9895,0.0,0.0,0.0,0.0,0.0,0.0,0.0,0.0,0.0,0.0,0.0,0.0,0.0,0.0,0.0,0.0,0.0,0.0,0.0,0.0,0.0,0.0,0.0,0.0,0.0,0.0,0.0,0.0,0.0,0.0,0.0,0.0,0.0,0.0,-2.5253,-2.63,-2.7017,-2.7457,-2.703,-2.7256,0.0,-2.767,-2.7682,-2.8109,-2.836,-2.8137,-2.7423,-2.7036,-2.6964,-2.7221,-2.7221,-2.7221,-2.7221,-2.7221,-2.7221,-2.7139,-2.6648,-2.5975,-2.5126,0.0,0.0,0.0,0.0,0.0,0.0,0.0,0.0,0.0,0.0,0.0,0.0,0.0,0.0,0.0,0.0,0.0,0.0,0.0,0.0,0.0,0.0,0.0,0.0,0.0,0.0,0.0,0.0,0.0,0.0,0.0,0.0,0.0,-1.4767,0.0,-1.6448,-1.6243,-1.5563,-1.4983,-1.4519,-1.3989,-1.3013,-1.1832,-1.1508,-1.0886,-1.0173,-1.0272,0.0,0.0,0.0,0.0,0.0,0.0,0.0,-0.9841,-0.9502,-0.9583,-0.9969,0.0,0.0,0.0,0.0,0.0,0.0,0.0,0.0,0.0,0.0,0.0,0.0,0.0,0.0,0.0,0.0,0.0,0.0,0.0,0.0,0.0,0.0,0.0,0.0,0.0,0.0,0.0,0.0,0.0,0.0,0.0,-2.2147,-2.319,-2.4815,-2.5393,-2.5812,-2.6101,-2.5824,-2.5963,-2.6527,-2.649,-2.6766,-2.7331,-2.6857,-2.6769,-2.6866,-2.5643,-2.5363,-2.5869,-2.6105,-2.6195,-2.6228,-2.6382,-2.6483,-2.6389,-2.5891,-2.5294,-2.4702,0.0,0.0,0.0,0.0,0.0,0.0,0.0,0.0,0.0,0.0,0.0,0.0,0.0,0.0,0.0,0.0,0.0,0.0,0.0,0.0,0.0,0.0,0.0,0.0,0.0,0.0,0.0,0.0,0.0,0.0,0.0,0.0,0.0,-1.4758,0.0,0.0,-1.6176,-1.5706,-1.4961,-1.4109,-1.3969,-1.283,-1.1242,-1.1269,-1.0703,-0.9918,-1.0006,-0.9981,-0.9931,-1.0131,0.0,0.0,0.0,0.0,-0.9841,-0.9502,-0.9274,-0.9477,0.0,0.0,0.0,0.0,0.0,0.0,0.0,0.0,0.0,0.0,0.0,0.0,0.0,0.0,0.0,0.0,0.0,0.0,0.0,0.0,0.0,0.0,0.0,0.0,0.0,0.0,0.0,0.0,0.0,0.0,-2.1776,-2.2049,-2.2916,-2.4743,-2.482,-2.482,-2.482,-2.482,-2.482,-2.4833,-2.5347,-2.585,-2.6339,-2.5394,-2.5394,-2.6083,-2.4233,-2.3891,-2.4657,-2.4974,-2.5172,-2.5293,-2.57,-2.5815,-2.5808,-2.4882,-2.4542,-2.4372,0.0,0.0,0.0,0.0,0.0,0.0,0.0,0.0,0.0,0.0,0.0,0.0,0.0,0.0,0.0,0.0,0.0,0.0,-1.8642,0.0,0.0,-1.6219,-1.5121,0.0,0.0,0.0,0.0,0.0,0.0,0.0,0.0,0.0,0.0,-1.4837,0.0,0.0,0.0,-1.476,-1.3966,-1.3361,-1.2607,-1.1601,-1.0556,-1.0724,-1.0409,-0.9968,-1.0418,-1.0307,-1.0056,-1.1035,-1.0709,0.0,0.0,0.0,-0.9841,-0.9502,-0.9893,0.0,0.0,0.0,0.0,0.0,0.0,0.0,0.0,0.0,0.0,0.0,0.0,0.0,0.0,0.0,0.0,0.0,0.0,0.0,0.0,0.0,0.0,0.0,0.0,0.0,0.0,0.0,0.0,0.0,0.0,0.0,-2.1419,-2.2224,-2.3308,-2.473,-2.482,-2.482,-2.482,-2.482,-2.482,-2.4833,-2.5347,-2.5636,-2.5737,-2.5228,-2.4788,-2.4453,-2.3699,-2.295,-2.2359,-2.2419,-2.2669,-2.2924,-2.2983,-2.3232,-2.356,-2.3387,-2.3299,-2.3309,0.0,0.0,0.0,0.0,0.0,0.0,0.0,0.0,0.0,0.0,0.0,0.0,0.0,0.0,0.0,-1.8371,-1.8508,-1.8452,-1.8135,-1.7289,-1.6653,-1.6276,-1.5436,-1.5164,0.0,0.0,0.0,0.0,0.0,0.0,0.0,-1.4703,-1.5108,0.0,0.0,0.0,0.0,0.0,0.0,0.0,-1.2724,-1.1947,-1.1043,-1.1165,-1.103,-1.0816,-1.1106,-1.1048,-1.0922,-1.1425,-1.1261,-1.0856,-1.0778,0.0,0.0,0.0,-0.9871,0.0,0.0,0.0,0.0,0.0,0.0,0.0,0.0,0.0,0.0,0.0,0.0,0.0,0.0,0.0,0.0,0.0,0.0,0.0,0.0,0.0,0.0,0.0,0.0,0.0,0.0,0.0,0.0,0.0,0.0,-2.0182,-2.1626,-2.202,-2.272,-2.3804,-2.3879,-2.3879,-2.3879,-2.3879,-2.4042,-2.4356,-2.4594,-2.5021,-2.5598,-2.5432,-2.4755,-2.3787,-2.2926,-2.2033,-2.1172,-2.1416,-2.1777,-2.2187,-2.2422,-2.2773,-2.3135,-2.3135,-2.3135,-2.3135,0.0,0.0,0.0,0.0,0.0,0.0,0.0,0.0,0.0,0.0,0.0,0.0,0.0,0.0,0.0,0.0,-1.8391,-1.8235,-1.7642,-1.7239,-1.6744,-1.608,-1.5479,-1.5345,-1.5656,0.0,0.0,0.0,0.0,0.0,-1.3825,-1.4521,-1.5036,0.0,-1.5674,0.0,0.0,0.0,0.0,0.0,0.0,0.0,0.0,-1.1551,-1.1455,-1.1308,-1.1339,-1.1374,-1.1412,-1.1701,-1.1701,-1.154,-1.1269,-1.0973,0.0,0.0,0.0,0.0,0.0,0.0,0.0,0.0,0.0,0.0,0.0,0.0,0.0,0.0,0.0,0.0,0.0,0.0,0.0,0.0,0.0,0.0,0.0,0.0,0.0,0.0,0.0,0.0,0.0,0.0,0.0,0.0,0.0,-2.0083,-2.1412,-2.1668,-2.2164,-2.2852,-2.2786,-2.2786,-2.2924,-2.2924,-2.3138,-2.3577,-2.3866,-2.4418,-2.5197,-2.5473,-2.4905,-2.3636,-2.2796,-2.1821,-2.0964,-2.0997,-2.1387,-2.1914,-2.2236,-2.2676,-2.3135,-2.3135,-2.3135,-2.3135,0.0,0.0,0.0,0.0,0.0,0.0,0.0,0.0,0.0,0.0,0.0,0.0,0.0,-1.7849,-1.8187,-1.8187,-1.8208,-1.7958,-1.7351,-1.6722,-1.606,-1.5381,-1.4996,0.0,-1.394,0.0,0.0,0.0,0.0,0.0,-1.381,-1.384,-1.4554,-1.5782,-1.5784,-1.5551,-1.5074,0.0,0.0,0.0,0.0,0.0,0.0,0.0,0.0,0.0,0.0,-1.0744,-1.0906,-1.2002,-1.2027,-1.1676,-1.2171,-1.1607,-1.0774,0.0,0.0,0.0,0.0,0.0,0.0,0.0,0.0,0.0,0.0,0.0,0.0,0.0,0.0,0.0,0.0,0.0,0.0,0.0,0.0,0.0,0.0,0.0,0.0,0.0,0.0,0.0,0.0,0.0,0.0,0.0,0.0,-2.0193,-2.0251,-2.1092,-2.175,-2.2334,-2.1845,-2.1832,-2.2347,-2.2347,-2.2372,-2.241,-2.3489,-2.4029,-2.4117,-2.5134,-2.5062,-2.4153,-2.3614,-2.285,-2.1886,-2.0954,-2.1113,-2.1885,-2.1904,-2.2422,-2.3135,-2.3135,-2.3135,-2.3135,0.0,0.0,0.0,0.0,0.0,0.0,0.0,0.0,0.0,0.0,0.0,0.0,0.0,-1.7158,-1.7304,-1.7304,-1.6905,-1.6479,-1.6053,-1.5185,-1.4682,-1.4656,-1.4121,-1.373,-1.3469,0.0,0.0,0.0,0.0,-1.4438,-1.4453,-1.4872,-1.5349,-1.5799,-1.5799,-1.5389,-1.4721,-1.4564,0.0,0.0,0.0,0.0,0.0,0.0,0.0,0.0,0.0,0.0,0.0,-1.2698,-1.2761,-1.2614,-1.2484,-1.1967,-1.1296,-1.0988,-1.0765,0.0,0.0,0.0,0.0,0.0,0.0,0.0,0.0,0.0,0.0,0.0,0.0,0.0,0.0,0.0,0.0,0.0,0.0,0.0,0.0,0.0,0.0,0.0,0.0,0.0,0.0,0.0,0.0,0.0,0.0,0.0,-2.1006,-2.1313,-2.1581,-2.1782,-2.1594,-2.1581,-2.1782,-2.2133,-2.2309,-2.2322,-2.3075,-2.364,-2.4017,-2.4757,-2.4743,-2.4186,-2.3674,-2.2925,-2.1962,-2.1011,-2.0928,-2.1494,-2.1777,-2.2236,-2.2773,-2.3037,-2.3135,-2.3135,0.0,0.0,0.0,0.0,0.0,0.0,0.0,0.0,0.0,0.0,0.0,0.0,0.0,0.0,-1.5914,-1.5839,-1.5397,-1.4983,-1.4689,-1.4021,-1.3591,-1.3496,-1.3227,-1.3066,-1.2979,0.0,0.0,0.0,0.0,0.0,0.0,0.0,-1.558,-1.5551,-1.5418,-1.5043,0.0,0.0,0.0,-1.3191,0.0,0.0,-1.3176,0.0,0.0,0.0,0.0,0.0,0.0,0.0,0.0,-1.3094,-1.2769,-1.226,-1.163,-1.1094,-1.0941,0.0,0.0,0.0,0.0,0.0,0.0,0.0,0.0,0.0,0.0,0.0,0.0,0.0,0.0,0.0,0.0,0.0,0.0,0.0,0.0,0.0,0.0,0.0,0.0,0.0,0.0,0.0,0.0,0.0,0.0,0.0,-2.0916,-2.0928,-2.0928,-2.0928,-2.1117,-2.1204,-2.1204,-2.1581,-2.1945,-2.2322,-2.2686,-2.3163,-2.3728,-2.4293,-2.43,-2.3845,-2.3424,-2.2772,-2.1962,-2.1011,-2.083,-2.126,-2.1553,-2.2012,-2.2529,-2.2666,-2.2891,-2.3115,0.0,0.0,0.0,0.0,0.0,0.0,0.0,0.0,0.0,0.0,0.0,0.0,0.0,0.0,0.0,-1.3907,-1.3809,-1.365,-1.3425,-1.3281,-1.2853,-1.198,-1.2415,-1.2577,-1.2298,0.0,0.0,0.0,0.0,0.0,0.0,0.0,-1.509,0.0,-1.4658,-1.447,-1.447,0.0,-1.3648,-1.3181,0.0,-1.3299,-1.3564,0.0,0.0,0.0,-1.2456,-1.2317,0.0,0.0,0.0,0.0,0.0,0.0,-1.1737,0.0,0.0,0.0,0.0,0.0,0.0,0.0,0.0,0.0,0.0,0.0,0.0,0.0,0.0,0.0,0.0,0.0,0.0,0.0,0.0,0.0,0.0,0.0,0.0,0.0,0.0,0.0,0.0,0.0,0.0,0.0,0.0,-1.9798,-1.9798,-1.9798,-1.9798,-1.9798,-2.0351,-2.0693,-2.0693,-2.0706,-2.1204,-2.2259,-2.2297,-2.2527,-2.3065,-2.3666,-2.3671,-2.3156,-2.2831,-2.2393,-2.1866,-2.1001,-2.082,-2.1221,-2.123,-2.1738,-2.2432,-2.2041,-2.2422,-2.3066,0.0,0.0,0.0,0.0,0.0,0.0,0.0,0.0,0.0,0.0,0.0,0.0,0.0,-1.4066,-1.3812,-1.3643,-1.3247,-1.3135,-1.3444,-1.2403,-1.2047,-1.2662,-1.2361,-1.2163,-1.2087,0.0,0.0,0.0,0.0,0.0,0.0,0.0,0.0,0.0,-1.4246,-1.4052,-1.4052,-1.3967,0.0,0.0,-1.3413,-1.3398,0.0,0.0,0.0,0.0,0.0,-1.2445,0.0,0.0,-1.341,-1.3031,0.0,0.0,0.0,0.0,0.0,0.0,-1.2102,0.0,0.0,0.0,0.0,0.0,0.0,0.0,0.0,0.0,0.0,0.0,0.0,0.0,0.0,0.0,0.0,0.0,0.0,0.0,0.0,0.0,0.0,0.0,0.0,0.0,0.0,0.0,-1.9798,-1.9798,-1.9798,-1.9798,-1.9798,-1.9798,-1.9962,-2.0037,-2.0037,-2.0451,-2.0869,-2.1129,-2.1933,-2.2021,-2.1632,-2.2623,-2.2267,-2.0866,-2.1145,-2.098,-2.0476,-2.0584,-2.0635,-2.0781,-2.1103,-2.1377,-2.165,-2.2158,-2.248,-2.2715,0.0,0.0,0.0,0.0,0.0,0.0,0.0,0.0,0.0,0.0,0.0,0.0,0.0,0.0,-1.3027,-1.2727,-1.2528,-1.2503,-1.2674,-1.1966,-1.1788,-1.239,-1.2264,-1.2243,-1.2397,0.0,0.0,0.0,0.0,0.0,0.0,0.0,0.0,0.0,0.0,0.0,0.0,0.0,0.0,0.0,-1.3333,0.0,0.0,-1.2992,-1.3171,0.0,0.0,0.0,-1.4083,-1.4183,-1.3918,0.0,0.0,0.0,0.0,0.0,0.0,0.0,0.0,0.0,0.0,0.0,0.0,0.0,0.0,-1.2934,0.0,0.0,0.0,0.0,0.0,0.0,0.0,0.0,0.0,0.0,0.0,0.0,0.0,0.0,0.0,0.0,0.0,0.0,0.0,-1.9786,-1.9798,-1.9798,-1.9798,-1.9798,-1.9798,-1.9798,-1.9798,-1.9911,-2.0162,-2.0263,-2.0539,-2.1016,-2.143,-2.1432,-2.1021,-2.1711,-2.1251,-1.9933,-2.0474,-2.0442,-1.9951,-2.0391,-2.0566,-2.0596,-2.0859,-2.1064,-2.1289,-2.1797,-2.2207,-2.2549,0.0,0.0,0.0,0.0,0.0,0.0,0.0,0.0,0.0,0.0,0.0,0.0,0.0,0.0,0.0,0.0,-1.1947,-1.1951,-1.1794,-1.1947,-1.1951,-1.1807,-1.2241,-1.2673,-1.3001,0.0,0.0,0.0,0.0,0.0,0.0,0.0,0.0,0.0,0.0,0.0,0.0,0.0,0.0,-1.3284,-1.3185,-1.3354,0.0,0.0,-1.3683,0.0,-1.4072,-1.4639,-1.5398,-1.4903,-1.4482,0.0,0.0,0.0,0.0,0.0,-1.2615,0.0,0.0,0.0,0.0,0.0,0.0,0.0,-1.3388,-1.3291,-1.345,0.0,0.0,0.0,0.0,0.0,0.0,0.0,0.0,0.0,0.0,0.0,0.0,0.0,0.0,0.0,0.0,-1.8668,-1.9221,-1.9685,-1.9773,-1.9798,-1.9798,-1.9798,-1.9798,-1.9798,-1.9798,-2.0049,-2.0618,-2.0062,-2.0313,-2.1292,-2.092,-2.0736,-2.0794,-2.0853,-2.0396,-1.9723,-2.0191,-2.0153,-1.9883,-2.0312,-2.0518,-2.0566,-2.0566,-2.081,-2.1172,-2.1269,-2.1787,-2.2461,-1.0909,0.0,0.0,0.0,0.0,0.0,0.0,0.0,0.0,0.0,0.0,0.0,0.0,0.0,0.0,0.0,-1.2537,-1.2493,-1.2847,-1.2512,-1.2506,-1.286,-1.2985,-1.3069,-1.3158,-1.3272,0.0,0.0,0.0,0.0,0.0,0.0,0.0,0.0,0.0,0.0,0.0,0.0,0.0,-1.3864,-1.4102,0.0,-1.3224,-1.3888,-1.4058,-1.3993,-1.4404,-1.471,-1.4869,0.0,-1.5031,-1.5219,0.0,0.0,0.0,0.0,0.0,0.0,0.0,0.0,0.0,0.0,0.0,0.0,-1.1375,-1.0799,-1.0563,0.0,0.0,0.0,0.0,0.0,0.0,0.0,0.0,0.0,0.0,0.0,0.0,0.0,0.0,0.0,0.0,-1.8442,-1.9021,-1.9171,-1.9572,-1.9798,-1.9798,-1.9798,-1.9798,-1.9798,-1.9798,-1.9861,-1.9962,-1.9861,-1.9911,-2.0137,-2.0542,-2.0193,-1.9306,-1.9772,-1.9404,-1.8418,-1.8774,-1.9147,-1.9443,-1.9863,-2.0244,-2.0566,-2.0566,-2.0625,-2.0781,-2.1494,-2.1865,-2.21,-1.0534,0.0,0.0,0.0,0.0,0.0,0.0,0.0,0.0,0.0,0.0,0.0,0.0,0.0,0.0,0.0,0.0,0.0,0.0,-1.2947,-1.3069,-1.3609,-1.3348,-1.3323,-1.3634,-1.3336,0.0,0.0,0.0,0.0,0.0,0.0,0.0,0.0,0.0,0.0,0.0,0.0,-1.4912,-1.4287,-1.4226,0.0,-1.3086,-1.3805,-1.4158,-1.4329,-1.4915,-1.5332,-1.5656,-1.6001,-1.5904,0.0,0.0,-1.5279,-1.5116,0.0,-1.4249,-1.4311,0.0,0.0,0.0,-1.3198,0.0,0.0,0.0,-1.1318,-1.099,0.0,0.0,0.0,0.0,0.0,0.0,0.0,0.0,0.0,0.0,0.0,0.0,0.0,0.0,0.0,0.0,-1.789,-1.843,-1.8933,-1.9271,-1.9522,-1.9786,-1.9798,-1.9798,-1.9798,-1.9798,-1.9798,-1.9798,-1.9798,-1.9798,-1.9811,-1.9707,-1.9337,-1.8578,-1.8703,-1.8395,-1.7744,-1.8594,-1.9082,-1.9336,-1.9971,-2.0371,-2.0566,-2.0566,-2.0566,-2.0674,-2.1562,-2.1885,-2.2012,-1.0753,0.0,0.0,0.0,0.0,0.0,0.0,0.0,0.0,0.0,0.0,0.0,0.0,0.0,0.0,0.0,0.0,0.0,0.0,0.0,0.0,-1.3758,-1.3408,-1.3396,-1.3758,-1.3408,-1.3198,0.0,0.0,0.0,0.0,0.0,0.0,0.0,0.0,0.0,0.0,0.0,0.0,-1.4561,0.0,-1.3883,-1.3482,-1.3899,-1.446,-1.5097,-1.5579,-1.6095,-1.6584,-1.7049,0.0,-1.5894,-1.6132,-1.6045,0.0,0.0,0.0,0.0,0.0,0.0,0.0,0.0,0.0,-1.2058,0.0,0.0,0.0,-1.3142,0.0,0.0,0.0,0.0,0.0,0.0,0.0,0.0,0.0,0.0,0.0,0.0,0.0,0.0,0.0,-1.6954,-1.7601,-1.8883,-1.8682,-1.8907,-1.9761,-1.971,-1.9698,-1.9798,-1.9798,-1.9798,-1.9798,-1.9643,-1.9579,-1.9579,-1.8821,-1.838,-1.8181,-1.7917,-1.7673,-1.7568,-1.8682,-1.9209,-1.9346,-2.0117,-2.0488,-2.0566,-2.0566,-2.0566,-2.0664,-2.1465,-2.1768,-2.1885,-1.1738,-1.1777,0.0,0.0,0.0,0.0,0.0,0.0,0.0,0.0,0.0,0.0,0.0,0.0,0.0,0.0,0.0,0.0,-1.4727,0.0,0.0,-1.263,-1.2973,-1.2998,-1.2605,-1.2985,-1.3198,0.0,0.0,0.0,0.0,0.0,0.0,0.0,-1.3362,0.0,0.0,0.0,-1.5225,0.0,-1.5112,-1.5234,0.0,-1.5123,-1.5574,-1.6218,-1.6367,-1.6423,-1.6522,0.0,-1.6534,-1.6258,0.0,-1.568,0.0,0.0,0.0,0.0,0.0,0.0,0.0,0.0,-1.2789,0.0,0.0,0.0,-1.1023,-1.0774,0.0,0.0,0.0,0.0,0.0,0.0,0.0,0.0,0.0,0.0,0.0,0.0,0.0,0.0,0.0,0.0,-1.676,-1.882,-1.7606,-1.7677,-1.9698,-1.9359,-1.9334,-1.9786,-1.9798,-1.9798,-1.9798,-1.915,-1.8821,-1.8821,-1.8058,-1.7774,-1.784,-1.7831,-1.7836,-1.7969,-1.8486,-1.8936,-1.9326,-1.9795,-2.0215,-2.0566,-2.0566,-2.0566,-2.0625,-2.1123,-2.1309,-2.1435,-1.325,-1.2673,0.0,0.0,0.0,0.0,0.0,0.0,0.0,0.0,0.0,0.0,0.0,0.0,0.0,0.0,0.0,-1.4563,0.0,0.0,0.0,0.0,0.0,0.0,-1.3835,-1.3398,-1.3198,-1.3198,-1.3459,0.0,0.0,0.0,0.0,0.0,-1.3898,0.0,-1.453,0.0,0.0,0.0,0.0,0.0,0.0,-1.5449,-1.5556,-1.6446,-1.651,-1.6522,-1.6522,0.0,-1.6522,0.0,0.0,0.0,0.0,0.0,0.0,0.0,0.0,0.0,0.0,0.0,0.0,0.0,-1.2256,0.0,-1.1306,0.0,0.0,0.0,0.0,0.0,0.0,0.0,0.0,0.0,0.0,0.0,0.0,0.0,0.0,0.0,0.0,0.0,0.0,0.0,-1.681,-1.7011,-1.9233,-1.9096,-1.9271,-1.9786,-1.9798,-1.9579,-1.915,-1.8874,-1.8501,-1.8058,-1.7302,-1.7105,-1.7415,-1.7266,-1.7372,-1.7686,-1.835,-1.8887,-1.9316,-1.9746,-2.0166,-2.0566,-2.0566,-2.0566,-2.0625,-2.1064,-2.123,-2.1357,-1.4816,0.0,0.0,0.0,0.0,0.0,0.0,0.0,0.0,0.0,0.0,0.0,-1.4085,-1.4362,0.0,0.0,0.0,-1.4979,0.0,0.0,-1.494,0.0,0.0,0.0,0.0,-1.4215,-1.3941,-1.4102,0.0,0.0,0.0,0.0,0.0,0.0,0.0,-1.4411,-1.4241,0.0,0.0,-1.5771,-1.6903,-1.735,-1.7149,-1.5914,-1.5972,-1.6735,-1.6572,-1.6522,-1.6522,-1.6522,-1.6522,0.0,-1.6835,0.0,0.0,0.0,0.0,0.0,-1.386,0.0,0.0,0.0,0.0,0.0,0.0,0.0,0.0,0.0,0.0,0.0,0.0,0.0,0.0,0.0,0.0,0.0,0.0,0.0,0.0,0.0,0.0,0.0,0.0,0.0,0.0,-1.6773,-1.5649,-1.6098,-1.8833,-1.8833,-1.9108,-1.9786,-1.9798,-1.9423,-1.8715,-1.8501,-1.8015,-1.7302,-1.6665,-1.6639,-1.7042,-1.6951,-1.7148,-1.7588,-1.8193,-1.8779,-1.9307,-1.9619,-2.0068,-2.0566,-2.0566,-2.0566,-2.0605,-2.0937,-2.1055,-2.1172,-1.6248,-1.622,0.0,0.0,0.0,0.0,0.0,0.0,0.0,0.0,0.0,0.0,0.0,0.0,0.0,0.0,0.0,-1.6627,-1.5016,0.0,-1.4488,0.0,0.0,-1.4852,0.0,0.0,0.0,0.0,0.0,0.0,0.0,0.0,0.0,0.0,0.0,-1.4594,-1.4992,-1.5261,-1.5064,-1.4674,-1.5873,-1.6061,-1.5784,0.0,-1.735,-1.7275,-1.6722,0.0,0.0,-1.6522,-1.6522,0.0,0.0,0.0,0.0,0.0,0.0,0.0,0.0,0.0,0.0,-1.3336,0.0,0.0,0.0,0.0,-1.1055,0.0,0.0,0.0,0.0,0.0,0.0,-1.0272,0.0,0.0,0.0,0.0,0.0,0.0,0.0,0.0,0.0,0.0,0.0,-1.5502,-1.3902,-1.46,-1.877,-1.8518,-1.8719,-1.9773,-1.9798,-1.9423,-1.8715,-1.8004,-1.7246,-1.6549,-1.6247,-1.6331,-1.6719,-1.7168,-1.7598,-1.7988,-1.8018,-1.8506,-1.9287,-1.9307,-1.9805,-2.0566,-2.0566,-2.0566,-2.0566,-2.0576,-2.0586,-2.0713,0.0,0.0,0.0,0.0,0.0,0.0,0.0,-1.5122,0.0,0.0,0.0,0.0,0.0,0.0,-1.6932,0.0,0.0,-1.6514,-1.5986,-1.6268,0.0,0.0,0.0,-1.5593,0.0,0.0,0.0,0.0,0.0,0.0,0.0,0.0,0.0,0.0,0.0,-1.5135,0.0,0.0,0.0,0.0,0.0,-1.7025,-1.7322,0.0,0.0,-1.6886,-1.7438,-1.74,0.0,-1.7513,-1.7137,-1.6559,-1.6748,-1.6672,-1.6371,-1.563,-1.5542,0.0,0.0,0.0,-1.4953,-1.4035,0.0,0.0,0.0,0.0,0.0,0.0,0.0,0.0,0.0,0.0,0.0,-1.0698,0.0,0.0,0.0,0.0,0.0,0.0,0.0,0.0,0.0,0.0,0.0,-1.4649,-1.4384,-1.5408,-1.8329,-1.7836,-1.7956,-1.9061,-1.8608,-1.8015,-1.7246,-1.6978,-1.6482,-1.5758,-1.5674,-1.6016,-1.6738,-1.6885,-1.7344,-1.8008,-1.8008,-1.8496,-1.9287,-1.9287,-1.9795,-2.0566,-2.0566,-2.1011,-2.1441,-2.0867,-2.0752,-2.1133,-1.553,0.0,0.0,0.0,0.0,0.0,0.0,0.0,0.0,0.0,-1.7597,0.0,-1.8001,0.0,-1.7867,0.0,-1.7133,-1.6751,-1.6098,-1.6765,0.0,-1.5203,-1.5869,0.0,0.0,0.0,0.0,0.0,0.0,-1.7675,0.0,0.0,0.0,0.0,0.0,0.0,0.0,0.0,-1.5367,0.0,0.0,-1.7395,0.0,0.0,-1.7264,-1.7187,0.0,-1.7815,-1.7702,-1.7852,-1.7426,-1.6886,-1.7262,-1.6986,-1.6446,-1.6095,-1.5982,-1.5869,-1.5316,-1.5429,0.0,-1.4853,-1.4756,0.0,-1.3288,0.0,0.0,0.0,0.0,0.0,0.0,0.0,0.0,0.0,-1.0274,0.0,0.0,-0.8932,0.0,0.0,0.0,0.0,0.0,0.0,-1.2115,-1.3803,-1.3779,-1.4757,0.0,0.0,-1.758,-1.8405,-1.7954,-1.7345,-1.6482,-1.6492,-1.6233,-1.5644,-1.6088,-1.6556,-1.6963,-1.7422,-1.7734,-1.8008,-1.8008,-1.8496,-1.9287,-1.9287,-2.0009,-2.1078,-2.0712,-2.1375,-2.2403,-2.1078,-2.0947,-2.1562,0.0,0.0,0.0,0.0,-1.6826,0.0,0.0,0.0,-1.7316,0.0,-1.8097,-1.8588,-1.867,-1.8768,-1.8572,-1.8159,-1.8126,0.0,-1.5453,-1.6837,0.0,0.0,-1.6245,-1.7364,-1.7284,0.0,0.0,0.0,0.0,0.0,0.0,0.0,0.0,0.0,-1.707,0.0,-1.5287,-1.5248,-1.5369,-1.56,-1.6593,-1.7089,-1.728,-1.7679,-1.803,-1.8179,-1.7677,-1.7815,-1.8179,-1.7664,-1.7463,-1.7426,-1.7451,-1.7049,-1.6559,-1.6559,-1.6547,-1.6409,-1.5881,-1.5731,-1.5731,-1.5731,0.0,0.0,0.0,0.0,-1.2559,0.0,0.0,0.0,0.0,0.0,0.0,0.0,0.0,0.0,0.0,0.0,0.0,0.0,0.0,0.0,0.0,-0.9587,-0.969,-1.2883,-1.2181,0.0,0.0,0.0,-1.7441,-1.7843,-1.78,-1.7364,-1.6425,-1.6436,-1.6318,-1.6125,-1.7297,-1.7707,-1.7458,-1.8598,-1.8747,-1.8008,-1.8076,-1.8556,-1.9258,-1.9393,-2.0394,-2.1855,-2.1048,-2.1876,-2.3305,-2.1502,-2.1332,-2.2056,-1.6577,-1.7181,-1.7571,0.0,-1.7313,-1.6899,0.0,0.0,0.0,0.0,-1.9655,-2.024,-2.0096,-1.9764,-1.9378,-1.8923,-1.8322,0.0,0.0,0.0,0.0,-1.5662,-1.6737,-1.7364,-1.7284,-1.7827,0.0,-1.8893,0.0,0.0,-1.8717,0.0,0.0,0.0,0.0,0.0,-1.5123,-1.5595,-1.5839,-1.6023,-1.6717,-1.733,0.0,0.0,-1.8668,-1.8844,-1.9095,-1.9032,-1.8857,-1.9095,-1.8656,-1.8066,-1.848,-1.794,-1.7162,-1.7162,-1.6861,-1.6484,-1.6346,-1.6308,-1.6308,-1.6308,-1.6211,-1.5991,0.0,0.0,0.0,0.0,0.0,0.0,0.0,0.0,0.0,0.0,0.0,0.0,0.0,0.0,0.0,-1.0572,0.0,0.0,-0.955,-1.0233,-1.1186,-1.2295,-1.2622,0.0,0.0,0.0,0.0,-1.7058,-1.6437,-1.5904,-1.569,-1.569,-1.5802,-1.6115,-1.6079,-1.6564,-1.7373,-1.7407,-1.7599,-1.8008,-1.8654,-1.8899,-1.887,-2.0149,-2.1047,-2.1597,-2.1964,-2.2681,-2.353,-2.381,-2.3764,-2.3691,-1.7443,0.0,0.0,-1.7399,0.0,0.0,-1.7899,0.0,0.0,-1.9697,-2.0141,0.0,-1.9878,-1.9851,-1.9545,-1.8724,-1.837,0.0,-1.7685,0.0,0.0,-1.6702,-1.7594,-1.7726,-1.6976,-1.7729,0.0,-1.8535,0.0,0.0,-1.8717,0.0,0.0,0.0,0.0,-1.749,0.0,-1.6163,-1.6494,-1.6559,-1.745,0.0,0.0,-1.8695,-1.9015,-1.9409,-1.9698,-1.961,-1.9384,-1.9447,-1.9058,-1.8618,-1.8883,-1.8267,-1.7388,-1.7388,-1.6974,-1.6522,-1.6522,-1.6697,-1.6961,-1.7187,-1.7438,-1.7447,-1.6971,-1.6681,-1.6308,0.0,0.0,0.0,0.0,0.0,0.0,0.0,0.0,0.0,0.0,0.0,0.0,0.0,0.0,0.0,-0.984,-1.0117,-1.0873,-1.2135,0.0,0.0,0.0,0.0,0.0,-1.5885,-1.6266,-1.613,-1.541,-1.5995,-1.6219,-1.6125,-1.6755,-1.7185,-1.7448,-1.8127,-1.8428,-1.8586,-1.8654,-1.9281,-2.0136,-2.0758,-2.1528,-2.2386,-2.3327,-2.3913,-2.4393,-2.5341,-2.4858,-2.3813,0.0,0.0,0.0,0.0,0.0,0.0,0.0,-1.9336,0.0,-2.0749,0.0,-1.9794,-1.9432,-1.9889,-1.971,-1.8516,0.0,-1.8721,-1.8313,-1.877,-1.8596,-1.7616,-1.8495,-1.8232,-1.666,-1.7657,0.0,0.0,0.0,0.0,0.0,0.0,0.0,0.0,0.0,0.0,0.0,-1.6734,-1.6998,0.0,-1.8337,-1.8813,-1.8826,-1.889,-1.9287,-1.9798,-1.9798,-1.9798,-1.9736,-1.9284,-1.9083,-1.9083,-1.9083,-1.843,-1.7601,-1.7601,-1.7187,-1.6722,-1.6647,-1.7049,-1.7601,-1.8078,-1.8618,-1.892,-1.8505,-1.8104,-1.7533,-1.6539,-1.592,-1.5489,0.0,0.0,0.0,0.0,0.0,0.0,0.0,0.0,0.0,0.0,0.0,0.0,0.0,-0.9951,-1.0015,0.0,0.0,0.0,0.0,0.0,0.0,-1.4843,-1.6531,-1.6806,-1.5575,0.0,-1.6945,-1.6325,-1.8083,-1.8392,-1.7537,-1.9437,-1.989,-1.911,-1.8721,-1.9724,-2.174,-2.1209,-2.1974,-2.3509,-2.4527,-2.4985,-2.517,-2.5923,-2.5016,-2.3389,0.0,0.0,0.0,0.0,0.0,-2.1104,-2.1763,-2.1753,-2.177,-2.2125,-2.2513,-2.2567,-2.2115,-2.1812,-2.1352,-2.0708,-2.0369,0.0,0.0,0.0,0.0,-1.8434,-1.8795,-1.8468,-1.7262,-1.7865,-1.8173,0.0,0.0,0.0,0.0,0.0,0.0,0.0,0.0,0.0,-1.7418,-1.6452,0.0,-1.7746,-1.8482,-1.8813,-1.8871,-1.9393,-1.9674,-1.9798,-1.9798,-1.9798,-1.9786,-1.9698,-1.966,-1.966,-1.966,-1.9246,-1.8744,-1.8744,-1.8342,-1.7815,-1.735,-1.7639,-1.8078,-1.8179,-1.8618,-1.912,-1.9447,-1.9471,-1.9358,-1.9158,-1.8659,-1.8149,-1.77,0.0,0.0,0.0,0.0,0.0,0.0,0.0,0.0,0.0,0.0,0.0,0.0,0.0,0.0,0.0,0.0,0.0,0.0,0.0,0.0,0.0,-1.5254,0.0,0.0,0.0,-1.6364,-1.7492,-1.6961,-1.7083,-1.7891,-1.862,-1.8682,-1.8337,-2.0333,-2.0915,-2.0507,-2.1708,-2.2434,-2.2927,-2.4028,-2.4393,-2.4413,-2.4512,-2.4328,-2.3929,0.0,0.0,0.0,0.0,0.0,0.0,0.0,-2.4334,0.0,-2.3415,-2.2894,-2.2504,-2.2333,-2.232,-2.2056,-2.1375,-2.1029,-2.0651,-1.9998,-2.0123,-1.9757,-1.8821,-1.9207,0.0,-1.784,-1.8066,-1.828,-1.8521,0.0,0.0,0.0,0.0,0.0,0.0,0.0,-1.8281,0.0,0.0,0.0,-1.8389,-1.9068,-1.9338,-1.9341,-1.9699,-1.9798,-1.9798,-1.9798,-1.9798,-1.9798,-1.9798,-1.9798,-1.9798,-1.9798,-1.9447,-1.8983,-1.8983,-1.8643,-1.8141,-1.789,-1.8216,-1.8631,-1.8631,-1.9032,-1.9497,-1.9748,-1.9798,-1.9798,-1.9798,-1.9055,-1.8263,-1.7727,-1.6132,0.0,0.0,0.0,0.0,0.0,0.0,0.0,0.0,0.0,0.0,0.0,0.0,0.0,0.0,0.0,0.0,0.0,0.0,0.0,0.0,0.0,0.0,0.0,0.0,0.0,-1.7924,-1.7996,-1.8406,-1.9007,-1.9905,-2.0239,-2.0074,-2.0846,-2.1407,-2.1801,-2.2098,-2.2588,-2.3162,-2.3962,-2.4411,-2.4658,-2.4814,-2.4666,-2.4346,0.0,-1.8973,0.0,0.0,-2.3317,0.0,-2.5719,-2.6631,-2.6525,-2.4734,-2.335,-2.2555,-2.2693,-2.2951,-2.2834,-2.2004,-2.1743,-2.1267,-2.0507,-2.0469,-1.9987,-1.8995,-1.9483,-1.9296,-1.814,-1.8271,-1.8531,0.0,0.0,0.0,0.0,0.0,0.0,0.0,0.0,0.0,0.0,0.0,-1.8864,-1.9081,-1.9598,-1.9798,-1.9798,-1.9798,-1.9798,-1.9798,-1.9798,-1.9798,-1.9798,-1.9798,-1.9798,-1.9798,-1.9798,-1.9522,-1.9196,-1.9196,-1.8882,-1.853,-1.8405,-1.8781,-1.9171,-1.9008,-1.9409,-1.9798,-1.9798,-1.9798,-1.9798,-1.9798,-1.889,-1.7929,-1.7111,-1.5996,0.0,0.0,0.0,0.0,0.0,0.0,0.0,0.0,0.0,0.0,0.0,0.0,0.0,0.0,0.0,0.0,0.0,0.0,0.0,0.0,0.0,-1.6469,-1.6236,0.0,-1.8071,-1.8369,-1.9415,-1.9958,-2.0081,-2.1304,-2.1815,-2.1616,-2.129,-2.1869,-2.2945,-2.2302,-2.2531,-2.3431,-2.422,-2.479,-2.5206,-2.5619,-2.5541,-2.4957,0.0,0.0,0.0,0.0,0.0,0.0,0.0,-2.8069,-2.7633,-2.6435,-2.5657,-2.5228,-2.5228,-2.4875,-2.4375,-2.3778,-2.3257,-2.2474,-2.1444,-2.1369,-2.0612,-1.8809,-1.9399,-1.9204,-1.7933,-1.8573,-1.8945,0.0,0.0,0.0,0.0,0.0,0.0,0.0,0.0,0.0,0.0,-1.8819,-1.914,-1.9699,-1.9761,-1.9798,-1.9798,-1.9798,-1.9798,-1.9798,-1.9798,-1.9798,-1.9798,-1.9798,-1.9798,-1.9798,-1.9798,-1.9773,-1.9736,-1.9736,-1.9698,-1.9547,-1.9083,-1.9334,-1.961,-1.9096,-1.9409,-1.9798,-1.9798,-1.9798,-1.9798,-1.9798,-1.9334,-1.8446,-1.6873,-1.6332,-1.5887,0.0,0.0,0.0,0.0,0.0,0.0,0.0,0.0,0.0,0.0,0.0,0.0,0.0,0.0,0.0,0.0,0.0,0.0,-1.3616,0.0,-1.47,-1.6525,-1.718,-1.8181,-1.9514,-1.9756,-2.0138,-2.0587,-2.1467,-2.1491,-2.0782,-2.2249,-2.2524,-2.2056,-2.2019,-2.2366,-2.3107,-2.4515,-2.5397,-2.5801,-2.6214,-2.6356,-2.6058,0.0,0.0,0.0,0.0,0.0,0.0,0.0,-2.961,-2.8944,-2.7968,-2.6544,-2.5724,-2.6076,-2.5335,-2.4732,-2.4506,-2.3665,-2.2811,-2.2033,-2.1983,-2.1369,-1.9978,-2.0207,-1.9945,-1.9052,-1.9021,-1.9152,0.0,0.0,0.0,0.0,0.0,0.0,0.0,0.0,-1.9418,-1.942,-1.9374,-1.9535,-1.9798,-1.9798,-1.9798,-1.9798,-1.9798,-1.9798,-1.9798,-1.9798,-1.9798,-1.9798,-1.9798,-1.9798,-1.9798,-1.9798,-1.9798,-1.9798,-1.9798,-1.9798,-1.9761,-1.9547,-1.9648,-1.9748,-1.9547,-1.9409,-1.9334,-1.9334,-1.9083,-1.8844,-1.8844,-1.8417,-1.7787,-1.6985,-1.6252,-1.5823,0.0,0.0,0.0,0.0,0.0,0.0,0.0,0.0,0.0,0.0,0.0,0.0,0.0,0.0,0.0,0.0,0.0,0.0,-1.3667,0.0,-1.5442,-1.6356,-1.7501,-1.8803,-2.0225,-2.0802,-2.1466,-2.2113,-2.2445,-2.2628,-2.263,-2.3059,-2.3221,-2.326,-2.3017,-2.3571,-2.4739,-2.5634,-2.631,-2.6744,-2.7255,-2.6625,-2.5473,-2.8869,0.0,-2.913,0.0,-3.1644,-3.1427,-3.2094,-3.1311,-3.0359,-2.9443,-2.7652,-2.6502,-2.6496,-2.5473,-2.4883,-2.5034,-2.3879,-2.2915,-2.2585,-2.2397,-2.1693,-2.0432,-2.0598,0.0,-1.9162,-1.9231,-1.9333,-1.9494,-1.8797,0.0,0.0,0.0,0.0,0.0,-1.9785,-1.9804,-1.9791,-1.9788,-1.9798,-1.9798,-1.9798,-1.9798,-1.9798,-1.9798,-1.9798,-1.9798,-1.9798,-1.9798,-1.9798,-1.9798,-1.9798,-1.9798,-1.9798,-1.9798,-1.9798,-1.9798,-1.9798,-1.9798,-1.9798,-1.9798,-1.9798,-1.9798,-1.9409,-1.8983,-1.8983,-1.8606,-1.8154,-1.8003,-1.7652,-1.7302,-1.6999,-1.6079,-1.5636,-1.6502,0.0,0.0,0.0,0.0,0.0,0.0,-1.3643,-1.351,-1.3043,0.0,0.0,0.0,0.0,0.0,0.0,0.0,0.0,0.0,0.0,0.0,0.0,-1.8148,-1.9657,-2.0974,-2.1877,-2.2567,-2.3078,-2.3314,-2.3703,-2.4205,-2.3779,-2.389,-2.4423,-2.3902,-2.4779,-2.6327,-2.6697,-2.7316,-2.7999,-2.8044,-2.7348,-2.6284,-3.1047,-2.9471,-2.9326,-3.455,-3.2738,-3.1482,-3.408,-3.3152,-3.1868,-3.0918,-2.9524,-2.8098,-2.6653,-2.5473,-2.5021,-2.5536,-2.4079,-2.3078,-2.3065,-2.2611,-2.1522,0.0,0.0,-1.9721,-1.7699,-1.9032,-1.9411,-1.8703,0.0,0.0,-1.8226,0.0,-1.8766,-1.9812,-1.9814,-1.978,-1.9786,-1.9798,-1.9798,-1.9798,-1.9798,-1.9798,-1.9798,-1.9798,-1.9798,-1.9798,-1.9798,-1.9798,-1.9798,-1.9798,-1.9798,-1.9798,-1.9798,-1.9798,-1.9798,-1.9798,-1.9798,-1.9798,-1.9798,-1.9798,-1.9798,-1.9798,-1.9409,-1.8983,-1.8983,-1.8606,-1.8053,-1.7501,-1.7388,-1.7212,-1.6647,-1.5845,-1.5522,-1.6197,0.0,0.0,0.0,0.0,0.0,0.0,-1.3643,-1.352,-1.3031,0.0,0.0,0.0,0.0,0.0,0.0,0.0,0.0,-1.4171,-1.4522,0.0,-1.7468,-1.9112,-2.0534,-2.1877,-2.2702,-2.3078,-2.309,-2.3728,-2.4293,-2.4781,-2.4345,-2.4517,-2.4969,-2.4488,-2.5516,-2.7478,-2.7478,-2.8382,-2.9611,-2.8505,-2.8767,-2.9456,-3.4728,-3.3948,-3.3565,-3.5263,-3.4693,-3.4088,-3.4442,-3.3598,-3.2511,-3.161,-3.0144,-2.8843,-2.7738,-2.6251,-2.541,0.0,-2.4443,-2.3715,0.0,-2.3188,-2.243,-2.1465,-2.1319,-2.0735,-1.9733,-1.9778,-1.9695,-1.9475,0.0,0.0,0.0,-1.8773,-1.9105,-1.9786,-1.9813,-1.9788,-1.9798,-1.9798,-1.9798,-1.9798,-1.9798,-1.9798,-1.9798,-1.9798,-1.9798,-1.9798,-1.9798,-1.9798,-1.9798,-1.9798,-1.9798,-1.9798,-1.9798,-1.9798,-1.9798,-1.9798,-1.9798,-1.9798,-1.9798,-1.9798,-1.971,-1.9359,-1.8869,-1.8367,-1.799,-1.7463,-1.7011,-1.6823,-1.6798,-1.6735,-1.6559,-1.5845,-1.5378,-1.557,-1.4673,0.0,0.0,0.0,0.0,0.0,-1.3253,-1.3207,0.0,-1.3485,0.0,0.0,0.0,0.0,0.0,0.0,0.0,0.0,-1.6206,0.0,-1.7899,-2.0162,-2.1463,-2.1877,-2.2702,-2.3339,-2.374,-2.4305,-2.4845,-2.5372,-2.5667,-2.6074,-2.6618,-2.6773,-2.7482,-2.8447,-2.8447,-2.9035,-2.9792,-2.9365,-2.9028,-2.8688,-3.6117,-3.5846,-3.5484,-3.5568,-3.5495,-3.5355,-3.4936,-3.4431,-3.3584,-3.225,-3.1101,-2.976,-2.8268,-2.6979,0.0,-2.6226,-2.5059,-2.4305,-2.4305,-2.3778,-2.3113,-2.2347,-2.1983,-2.1331,-2.0286,-2.0195,0.0,-1.9371,-1.932,-1.9434,-1.9635,-1.9422,-1.961,-2.0112,-1.9899,-1.9798,-1.9798,-1.9798,-1.9798,-1.9798,-1.9798,-1.9798,-1.9798,-1.9798,-1.9798,-1.9798,-1.9798,-1.9798,-1.9798,-1.9798,-1.9798,-1.9798,-1.9798,-1.9798,-1.9798,-1.9798,-1.9798,-1.9798,-1.9798,-1.966,-1.9434,-1.9058,-1.8455,-1.7752,-1.7187,-1.6773,-1.6522,-1.6522,-1.6522,-1.6522,-1.6522,-1.5906,-1.5391,-1.5296,-1.4461,-1.3781,-1.3581,0.0,0.0,0.0,0.0,0.0,0.0,-1.3915,-1.4222,0.0,0.0,0.0,0.0,0.0,0.0,-1.5404,-1.7252,0.0,-1.8744,-2.1032,-2.2363,-2.27,-2.3406,-2.4054,-2.4607,-2.4958,-2.541,-2.595,-2.6515,-2.708,-2.7632,-2.8185,-2.875,-2.9252,-2.9252,-2.9478,-2.9792,-2.9792,-2.9365,-2.8858,-3.5504,-3.5504,0.0,0.0,-3.5504,0.0,-3.5504,-3.5439,-3.4706,-3.282,-3.2082,-3.0807,-2.8417,-2.7632,-2.7281,-2.7281,0.0,0.0,0.0,-2.4268,-2.3464,-2.241,-2.2334,-2.151,-1.9773,-2.034,-2.0044,-1.8768,-1.9475,-2.0075,-2.0655,-2.0049,-2.0087,-2.063,-2.0037,-1.9798,-1.9798,-1.9798,-1.9798,-1.9798,-1.9798,-1.9798,-1.9798,-1.9798,-1.9798,-1.9798,-1.9798,-1.9798,-1.9798,-1.9798,-1.9798,-1.9798,-1.9798,-1.9798,-1.9798,-1.9798,-1.9773,-1.9748,-1.9748,-1.9359,-1.897,-1.892,-1.8116,-1.7187,-1.6635,-1.6522,-1.6522,-1.6522,-1.6522,-1.6522,-1.6522,-1.6008,-1.5517,-1.5339,-1.4758,-1.4209,-1.3668,0.0,0.0,0.0,0.0,0.0,0.0,-1.4594,-1.4877,0.0,0.0,0.0,0.0,0.0,-1.5457,-1.6115,-1.7864,-1.9167,-2.0014,-2.187,-2.3247,-2.4067,-2.4607,-2.5146,-2.5649,-2.5649,-2.5975,-2.6622,-2.7105,-2.7632,-2.8147,-2.8737,-2.9302,-2.9792,-2.9792,-2.9792,-2.9792,-2.9792,-2.9792,-2.9792,0.0,0.0,-3.5504,-3.5504,-3.5504,-3.5504,-3.5504,-3.4839,-3.3959,-3.2749,-3.1531,-3.0224,-2.8886,-2.7871,-2.7281,-2.7281,-2.5774,-2.482,-2.482,-2.3891,-2.3165,-2.289,-2.2535,-2.1926,-2.107,-2.0824,-2.0323,-1.9527,-1.9695,-1.9874,-1.9999,-1.9861,-1.9874,-1.9999,-1.9861,-1.9798,-1.9798,-1.9798,-1.9798,-1.9798,-1.9798,-1.9798,-1.9798,-1.9798,-1.9798,-1.9798,-1.9798,-1.9798,-1.9798,-1.9798,-1.9798,-1.9798,-1.9798,-1.9798,-1.9798,-1.9798,-1.9522,-1.9208,-1.9208,-1.8819,-1.8292,-1.7877,-1.7237,-1.6685,-1.6547,-1.6522,-1.6522,-1.6522,-1.6522,-1.6522,-1.6522,-1.6008,-1.5579,-1.5517,-1.4677,-1.3959,-1.3861,-1.3423,0.0,0.0,-1.3685,-1.3855,-1.419,-1.4594,-1.4913,0.0,0.0,0.0,0.0,-1.6557,-1.6778,-1.6562,-1.8977,-2.0537,-2.1037,-2.3195,-2.4414,-2.4632,-2.5159,-2.5711,-2.6319,-2.6319,-2.6565,-2.7118,-2.767,-2.7984,-2.8185,-2.9176,-2.9666,-2.9792,-2.9792,-2.9792,-2.9792,-2.9792,-2.9792,-2.9792,-3.5504,-3.5504,-3.5504,-3.5504,-3.5504,-3.5359,-3.4905,-3.4327,-3.3518,-3.2177,-3.1055,-2.9907,-2.8648,-2.7795,-2.718,-2.6929,-2.6088,-2.536,-2.4858,-2.4243,-2.3616,-2.3103,-2.2849,-2.2422,-2.1882,-2.133,-2.0639,-1.9798,-1.9798,-1.9936,-2.02,-2.02,-2.02,-2.02,-2.02,-2.0049,-1.9798,-1.9798,-1.9798,-1.9798,-1.9798,-1.9798,-1.9798,-1.9798,-1.9798,-1.9798,-1.9798,-1.9798,-1.9798,-1.9798,-1.9798,-1.9798,-1.9798,-1.9798,-1.9798,-1.9798,-1.9434,-1.8983,-1.8983,-1.8442,-1.7689,-1.7124,-1.6748,-1.6522,-1.6522,-1.6522,-1.6522,-1.6522,-1.6522,-1.6423,-1.6139,-1.6051,-1.582,-1.5287,-1.4516,-1.397,-1.3926,-1.3379,0.0,-1.3864,-1.4142,-1.4398,-1.4707,-1.519,-1.5461,-1.5461,-1.6006,0.0,-1.6718,-1.7996,-1.8451,-1.8009,-2.0172,-2.1652,-2.2336,-2.4218,-2.531,-2.5573,-2.6113,-2.6527,-2.6841,-2.7092,-2.7243,-2.7318,-2.8134,-2.8335,-2.8197,-2.9327,-2.9792,-2.9792,-2.9792,-2.9792,-2.9792,-2.9792,-2.9792,-2.9792,-3.5504,-3.5504,-3.5504,-3.5504,-3.5359,-3.4986,-3.4095,-3.3739,-3.3031,-3.1389,-3.0632,-2.9645,-2.8233,-2.7607,-2.7055,-2.6584,-2.6533,-2.6,-2.4895,-2.4745,-2.423,-2.3175,-2.3078,-2.2874,-2.2322,-2.1769,-2.0978,-1.9936,-1.9936,-2.0137,-2.0539,-2.0539,-2.0539,-2.0539,-2.0539,-2.0263,-1.9798,-1.9798,-1.9798,-1.9798,-1.9798,-1.9798,-1.9798,-1.9798,-1.9798,-1.9798,-1.9798,-1.9798,-1.9798,-1.9798,-1.9798,-1.9798,-1.9798,-1.9798,-1.9798,-1.9798,-1.9434,-1.8983,-1.8983,-1.8292,-1.7363,-1.6785,-1.6647,-1.6622,-1.6534,-1.6522,-1.6522,-1.6522,-1.6584,-1.6436,-1.5832,-1.6169,-1.6105,-1.5028,-1.4303,-1.3899,-1.3904,0.0,-1.338,-1.4212,-1.48,-1.5253,-1.5586,-1.5947,-1.6282,-1.6348,-1.7051,-1.7595,-1.7922,-1.9411,-2.0286,-2.0225,-2.1586,-2.2879,-2.3953,-2.5153,-2.6013,-2.6659,-2.7055,-2.7369,-2.7544,-2.7934,-2.7896,-2.7582,-2.8524,-2.8662,-2.831,-2.9365,-2.9792,-2.9792,-2.9792,-2.9792,-2.9792,-2.9792,-2.9792,-2.9792,-3.5504,-3.5504,-3.5504,-3.5504,-3.4773,-3.4177,-3.4027,-3.2664,-3.1536,-3.1254,-2.998,-2.8861,-2.8172,-2.7607,-2.7055,-2.6584,-2.6533,-2.6,-2.4895,-2.4393,-2.3828,-2.3103,-2.3078,-2.2874,-2.2322,-2.1769,-2.1179,-2.058,-2.058,-2.0326,-1.9936,-1.9936,-1.9936,-1.9936,-1.9936,-1.9886,-1.9798,-1.9798,-1.9798,-1.9798,-1.9798,-1.9798,-1.9798,-1.9798,-1.9798,-1.9798,-1.9798,-1.9798,-1.9798,-1.9798,-1.9798,-1.9798,-1.9798,-1.9798,-1.9798,-1.9798,-1.9434,-1.8983,-1.8983,-1.8555,-1.794,-1.7388,-1.725,-1.7124,-1.6635,-1.6522,-1.6522,-1.6522,-1.6911,-1.7099,-1.6467,-1.6374,-1.6202,-1.557,-1.3967,-1.3069,-1.3814,0.0,-1.3718,-1.4656,-1.5652,-1.6304,-1.6498,-1.6592,-1.6924,-1.7656,-1.7832,-1.8624,-2.0198,-2.0862,-2.1953,-2.3532,-2.3822,-2.4635,-2.6052,-2.6276,-2.6603,-2.7155,-2.7243,-2.777,-2.8662,-2.8285,-2.831,-2.8687,-2.885,-2.8875,-2.885,-2.9515,-2.9792,-2.9792,-2.9792,-2.9792,-2.9792,-2.9792,-2.9792,-2.9792,-3.4691,-3.4691,-3.4691,-3.4691,-3.4312,-3.3671,-3.2664,-3.1742,-3.1061,-3.0684,-2.9796,-2.8949,-2.837,-2.7816,-2.7255,-2.6546,-2.6533,-2.6,-2.4895,-2.4582,-2.4054,-2.3115,-2.3078,-2.2874,-2.2322,-2.2071,-2.1656,-2.1104,-2.1104,-2.1129,-2.1154,-2.0853,-2.0715,-2.069,-2.0401,-2.0087,-1.9798,-1.9798,-1.9798,-1.9798,-1.9798,-1.9798,-1.9798,-1.9798,-1.9798,-1.9798,-1.9798,-1.9798,-1.9798,-1.9798,-1.9798,-1.9798,-1.9798,-1.9798,-1.9798,-1.9798,-1.9434,-1.897,-1.8668,-1.8405,-1.8141,-1.789,-1.7827,-1.7677,-1.7112,-1.6986,-1.6898,-1.6584,-1.6974,-1.7095,-1.6017,-1.635,-1.6373,-1.5146,-1.397,0.0,0.0,-1.3947,-1.414,-1.5054,-1.5996,-1.6647,-1.6689,-1.7148,-1.7588,-1.7978,-1.8903,-1.9998,-2.1081,-2.2298,-2.3465,-2.4612,-2.5472,-2.6119,-2.6533,-2.7055,-2.7318,-2.7293,-2.7883,-2.8436,-2.8925,-2.8988,-2.8988,-2.895,-2.9252,-2.9214,-2.8976,-2.9553,-2.9792,-2.9792,-2.9792,-2.9792,-2.9792,-2.9792,-2.9792,-2.9792,-3.3739,-3.3671,-3.3671,-3.3671,-3.3518,-3.289,-3.1389,-3.1061,-3.075,-3.0303,-2.9879,-2.9353,-2.862,-2.8305,-2.7815,-2.685,-2.6973,-2.6618,-2.5422,-2.518,-2.4494,-2.3188,-2.3078,-2.2937,-2.251,-2.2498,-2.2234,-2.1681,-2.1681,-2.1832,-2.2108,-2.1556,-2.1292,-2.128,-2.0715,-2.0213,-1.9798,-1.9798,-1.9798,-1.9798,-1.9798,-1.9798,-1.9798,-1.9798,-1.9798,-1.9798,-1.9798,-1.9798,-1.9798,-1.9798,-1.9798,-1.9798,-1.9798,-1.9798,-1.9798,-1.9798,-1.9522,-1.912,-1.8694,-1.8581,-1.8543,-1.843,-1.8392,-1.8216,-1.7539,-1.7388,-1.7212,-1.6635,-1.7087,-1.718,-1.5784,-1.6374,-1.6516,-1.4842,0.0,0.0,0.0,-1.4675,-1.5059,-1.5605,-1.6695,-1.7316,-1.7158,-1.7773,-1.8301,-1.8775,-2.0102,-2.1328,-2.2223,-2.3652,-2.4704,-2.5358,-2.6627,-2.708,-2.6653,-2.762,-2.7959,-2.767,-2.8524,-2.9001,-2.9139,-2.9591,-2.9553,-2.9151,-2.9603,-2.9541,-2.9164,-2.9616,-2.9792,-2.9792,-2.9792,-2.9792,-2.9792,-2.9792,-2.9792,-2.9792,-3.289,-3.2678,-3.2678,-3.2678,-3.196,-3.1389,-3.1254,-3.0645,-3.029,-3.0191,-3.0357,-3.0025,-2.8675,-2.92,-2.9089,-2.7723,-2.8363,-2.8304,-2.7097,-2.6363,-2.514,-2.3175,-2.3078,-2.3053,-2.3015,-2.3015,-2.2811,-2.2246,-2.2246,-2.2008,-2.1543,-2.0991,-2.0781,-2.0756,-2.0125,-1.9849,-1.9798,-1.9798,-1.9798,-1.9798,-1.9798,-1.9798,-1.9798,-1.9798,-1.9798,-1.9798,-1.9798,-1.9798,-1.9798,-1.9798,-1.9798,-1.9798,-1.9798,-1.9798,-1.9798,-1.9798,-1.9773,-1.9736,-1.9698,-1.9685,-1.9572,-1.9095,-1.892,-1.8694,-1.7626,-1.7388,-1.7212,-1.6635,-1.7388,-1.7743,-1.6456,-1.6635,-1.6599,-1.5258,0.0,0.0,-1.4625,-1.602,-1.6885,-1.6661,-1.8312,-1.919,-1.8547,-1.8484,-1.9262,-2.1001,-2.1272,-2.2306,-2.4625,-2.4874,-2.5405,-2.6383,-2.6992,-2.7268,-2.7218,-2.7808,-2.8348,-2.88,-2.8888,-2.9214,-2.9729,-2.9779,-2.9767,-2.9729,-2.9779,-2.9767,-2.9729,-2.9779,-2.9792,-2.9792,-2.9792,-2.9792,-2.9792,-2.9792,-2.9792,-2.9792,-3.2361,-3.1998,-3.1863,-3.2152,-3.1628,-3.097,-3.0419,-3.0576,-3.0864,-3.1064,-3.0897,-3.0362,-2.9481,-2.9361,-2.8866,-2.7815,-2.8102,-2.803,-2.7248,-2.6553,-2.5216,-2.3163,-2.3078,-2.3078,-2.3078,-2.3078,-2.2977,-2.2824,-2.2824,-2.2711,-2.2485,-2.1594,-2.1179,-2.1142,-2.0213,-1.9798,-1.9798,-1.9798,-1.9798,-1.9798,-1.9798,-1.9798,-1.9798,-1.9798,-1.9798,-1.9798,-1.9798,-1.9798,-1.9798,-1.9798,-1.9798,-1.9798,-1.9798,-1.9798,-1.9798,-1.9798,-1.9798,-1.9798,-1.9798,-1.9798,-1.9748,-1.956,-1.951,-1.9309,-1.8568,-1.8405,-1.8242,-1.7677,-1.8179,-1.829,-1.6846,-1.7269,-1.7268,-1.5553,0.0,-1.6028,-1.6368,-1.7628,-1.8364,-1.7946,-1.9316,-1.9792,-1.8714,-1.9895,-2.0875,-2.1386,-2.2789,-2.4057,-2.4921,-2.5594,-2.6255,-2.6954,-2.7507,-2.7632,-2.7281,-2.8524,-2.9076,-2.8938,-2.9289,-2.9578,-2.9792,-2.9792,-2.9792,-2.9792,-2.9792,-2.9792,-2.9792,-2.9792,-2.9792,-2.9792,-2.9792,-2.9792,-2.9792,-2.9792,-2.9792,-2.9792,-3.152,-3.1174,-3.1096,-3.1304,-3.1018,-3.062,-3.0279,-3.0615,-3.1128,-3.1708,-3.123,-3.0681,-3.0129,-2.9882,-2.9372,-2.8298,-2.8572,-2.8477,-2.7683,-2.658,-2.5199,-2.3556,-2.3245,-2.3078,-2.3078,-2.3078,-2.3078,-2.3078,-2.2902,-2.2874,-2.2862,-2.1744,-2.123,-2.1192,-2.0413,-2.0075,-2.0075,-2.0075,-2.0075,-2.0062,-1.9874,-1.9798,-1.9798,-1.9798,-1.9798,-1.9798,-1.9798,-1.9798,-1.9798,-1.9798,-1.9798,-1.9798,-1.9798,-1.9798,-1.9798,-1.9798,-1.9798,-1.9798,-1.9798,-1.9798,-1.9798,-1.9798,-1.9798,-1.966,-1.9096,-1.8983,-1.8869,-1.8317,-1.8643,-1.8658,-1.7571,-1.8144,-1.8259,-1.6884,-1.7525,-1.8181,-1.8181,-1.9329,-1.9901,-1.9285,-2.0448,-2.0808,-1.9743,-2.1231,-2.2343,-2.2556,-2.4068,-2.523,-2.5683,-2.6355,-2.6967,-2.7519,-2.8072,-2.8185,-2.7808,-2.9126,-2.9591,-2.9202,-2.9603,-2.9792,-2.9792,-2.9792,-2.9792,-2.9792,-2.9792,-2.9792,-2.9792,-2.9792,-2.9792,-2.9792,-2.9792,-2.9792,-2.9792,-2.9792,-2.9792,-2.9792,-3.0266,-3.0244,-3.0444,-2.9892,-2.9792,-3.0139,-3.1031,-3.0619,-3.0667,-3.1968,-3.153,-3.0912,-3.0341,-3.1029,-3.0894,-2.9449,-3.0026,-2.9953,-2.8682,-2.6586,-2.5077,-2.435,-2.3543,-2.3078,-2.3078,-2.3078,-2.3078,-2.3078,-2.2585,-2.2309,-2.2284,-2.1179,-2.0718,-2.0718,-2.0718,-2.0706,-2.0706,-2.0718,-2.0718,-2.0668,-2.0037,-1.9811,-1.9811,-1.9798,-1.9798,-1.9798,-1.9798,-1.9798,-1.9798,-1.9798,-1.9798,-1.9798,-1.9798,-1.9798,-1.9798,-1.9798,-1.9798,-1.9798,-1.9798,-1.9798,-1.9811,-1.9798,-1.9798,-1.966,-1.9145,-1.8983,-1.8882,-1.8329,-1.8656,-1.8933,-1.8737,-1.9221,-1.9533,-1.9351,-1.9659,-1.9913,-1.9913,-2.1039,-2.1565,-2.073,-2.1882,-2.2526,-2.207,-2.2576,-2.3509,-2.4898,-2.5004,-2.5671,-2.7256,-2.7281,-2.7544,-2.8097,-2.8637,-2.8925,-2.8938,-2.9503,-2.9792,-2.9792,-2.9792,-2.9792,-2.9792,-2.9792,-2.9792,-2.9792,-2.9792,-2.9792,-2.9792,-2.9792,-2.9792,-2.9792,-2.9792,-2.9792,-2.9792,-2.9792,-2.9792,-2.9792,-3.1162,-3.0746,-3.0782,-3.1254,-3.1031,-3.1119,-3.2033,-3.2582,-3.2831,-3.2786,-3.227,-3.1608,-3.1022,-3.0771,-3.0263,-2.939,-2.9643,-2.9505,-2.8667,-2.693,-2.6054,-2.629,-2.424,-2.3078,-2.3078,-2.3078,-2.3078,-2.3078,-2.2585,-2.2309,-2.2284,-2.1179,-2.0718,-2.0706,-2.0238,-2.0062,-2.0087,-2.0542,-2.0718,-2.0706,-2.0476,-2.0401,-2.0363,-1.9962,-1.9798,-1.9798,-1.9798,-1.9798,-1.9798,-1.9798,-1.9798,-1.9798,-1.9798,-1.9798,-1.9798,-1.9798,-1.9798,-1.9798,-1.9798,-2.01,-2.0313,-1.9911,-1.9798,-1.9761,-1.961,-1.9572,-1.9522,-1.9359,-1.9786,-1.983,-1.8631,-1.9598,-2.0168,-1.8989,-2.0228,-2.1319,-2.1319,-2.2152,-2.2579,-2.2121,-2.2962,-2.3345,-2.2705,-2.3963,-2.4848,-2.4969,-2.5664,-2.64,-2.7256,-2.7281,-2.7708,-2.8649,-2.885,-2.9126,-2.9528,-2.9704,-2.9792,-2.9792,-2.9792,-2.9792,-2.9792,-2.9792,-2.9792,-2.9792,-2.9792,-2.9792,-2.9792,-2.9792,-2.9792,-2.9792,-2.9792,-2.9792,-2.9792,-2.9792,-2.9792,-2.9792,-3.1402,-3.1293,-3.1525,-3.1635,-3.1689,-3.1951,-3.2723,-3.2958,-3.3001,-3.2888,-3.2217,-3.1662,-3.1331,-3.0997,-3.0412,-2.9519,-2.9025,-2.8727,-2.8607,-2.71,-2.6514,-2.7179,-2.4823,-2.3477,-2.3477,-2.319,-2.3078,-2.3078,-2.2578,-2.2355,-2.2329,-2.1258,-2.0732,-2.0732,-2.0532,-2.0464,-2.0501,-2.1079,-2.1317,-2.1292,-2.1079,-2.092,-2.068,-2.0275,-1.9999,-1.9823,-2.0062,-2.015,-2.015,-2.015,-1.9987,-1.9798,-1.9798,-1.9798,-1.9798,-1.9798,-1.9798,-1.9798,-1.9798,-2.0225,-2.063,-2.0238,-2.0313,-2.0464,-2.0464,-2.0464,-2.0464,-2.0464,-2.0511,-2.0358,-1.9772,-2.0591,-2.114,-2.0582,-2.1724,-2.2785,-2.3004,-2.3294,-2.3492,-2.3506,-2.4161,-2.448,-2.3999,-2.5166,-2.5959,-2.5932,-2.6487,-2.7118,-2.7896,-2.7934,-2.8348,-2.9239,-2.9277,-2.944,-2.9792,-2.9792,-2.9792,-2.9792,-2.9792,-2.9792,-2.9792,-2.9792,-2.9792,-2.9792,-2.9792,-2.9792,-2.9792,-2.9792,-2.9792,-2.9792,-2.9792,-2.9792,-2.9792,-2.9792,-2.9792,-2.9792,-3.1044,-3.1808,-3.2462,-3.1527,-3.2105,-3.2849,-3.3226,-3.245,-3.197,-3.251,-3.1696,-3.1221,-3.1483,-3.1422,-3.0941,-2.9684,-2.8353,-2.7889,-2.8517,-2.713,-2.6552,-2.7212,-2.5266,-2.4129,-2.4067,-2.3452,-2.3078,-2.3078,-2.2713,-2.2469,-2.239,-2.1391,-2.0927,-2.0878,-2.1329,-2.1493,-2.1531,-2.2083,-2.2309,-2.2272,-2.1769,-2.1255,-2.0857,-2.0806,-2.0413,-2.0024,-2.0552,-2.0794,-2.0781,-2.0743,-2.0313,-1.9874,-1.9823,-1.9798,-1.9798,-1.9798,-1.9798,-1.9811,-1.9861,-2.03,-2.0806,-2.0857,-2.1267,-2.1669,-2.1518,-2.1493,-2.1506,-2.1556,-2.099,-2.0736,-2.1611,-2.1984,-2.2393,-2.319,-2.3717,-2.4243,-2.4745,-2.4393,-2.428,-2.482,-2.531,-2.5611,-2.5674,-2.6201,-2.6741,-2.7243,-2.7331,-2.7821,-2.8875,-2.8925,-2.9202,-2.9779,-2.9792,-2.9792,-2.9792,-2.9792,-2.9792,-2.9792,-2.9792,-2.9792,-2.9792,-2.9792,-2.9792,-2.9792,-2.9792,-2.9792,-2.9792,-2.9792,-2.9792,-2.9792,-2.9792,-2.9792,-2.9792,-2.9792,-2.9792,-2.9792,-3.1518,-3.2066,-3.268,-3.2382,-3.3101,-3.3998,-3.4875,-3.3769,-3.2948,-3.3257,-3.2082,-3.1253,-3.1483,-3.1046,-3.0417,-2.9654,-2.8353,-2.7795,-2.8347,-2.7395,-2.7047,-2.756,-2.6225,-2.5215,-2.4644,-2.3653,-2.3078,-2.3078,-2.3158,-2.2905,-2.2417,-2.2273,-2.1904,-2.1405,-2.1495,-2.1493,-2.1531,-2.2083,-2.2309,-2.2297,-2.2184,-2.2071,-2.1907,-2.1481,-2.123,-2.1142,-2.1267,-2.1305,-2.1242,-2.0869,-2.063,-2.0401,-1.9949,-1.9798,-1.9798,-1.9798,-1.9798,-1.9899,-2.0351,-2.0891,-2.1418,-2.1845,-2.2711,-2.3113,-2.1794,-2.1493,-2.1606,-2.2046,-2.2284,-2.2481,-2.2492,-2.3433,-2.3993,-2.3532,-2.41,-2.4682,-2.4808,-2.472,-2.4845,-2.536,-2.5523,-2.5774,-2.6226,-2.6779,-2.7155,-2.7268,-2.7682,-2.8222,-2.89,-2.8925,-2.9202,-2.9779,-2.9792,-2.9792,-2.9792,-2.9792,-2.9792,-2.9792,-2.9792,-2.9792,-2.9792,-2.9792,-2.9792,-2.9792,-2.9792,-2.9792,-2.9792,-2.9792,-2.9792,-2.9792,-2.9792,-2.9792,-2.9792,-2.9792,-2.9792,-2.9792,-3.1765,-3.2409,-3.3091,-3.3255,-3.3671,-3.4076,-3.431,-3.3255,-3.2402,-3.2357,-3.1656,-3.1267,-3.1468,-3.121,-3.0562,-2.9557,-2.8517,-2.8028,-2.8175,-2.7366,-2.7144,-2.779,-2.6569,-2.5615,-2.4972,-2.4099,-2.3484,-2.3078,-2.3616,-2.3703,-2.3353,-2.319,-2.2893,-2.2519,-2.2052,-2.1882,-2.192,-2.2472,-2.2711,-2.2711,-2.2711,-2.2548,-2.2284,-2.1995,-2.1719,-2.1518,-2.1782,-2.1882,-2.1757,-2.0995,-2.0718,-2.0618,-1.9987,-1.9798,-1.9798,-1.9798,-1.9798,-1.9924,-2.0567,-2.1066,-2.1681,-2.2498,-2.3351,-2.3766,-2.2887,-2.2686,-2.2836,-2.3389,-2.3195,-2.3004,-2.3335,-2.4038,-2.4505,-2.4217,-2.4737,-2.5285,-2.5561,-2.536,-2.5398,-2.5937,-2.6013,-2.6226,-2.6804,-2.7356,-2.7783,-2.8047,-2.8335,-2.875,-2.9315,-2.934,-2.9478,-2.9779,-2.9792,-2.9792,-2.9792,-2.9792,-2.9792,-2.9792,-2.9792,-2.9792,-2.9792,-2.9792,-2.9792,-2.9792,-2.9792,-2.9792,-2.9792,-2.9792,-2.9792,-2.9792,-2.9792,-2.9792,-2.9792,-2.9792,-2.9792,-2.9792,-3.2233,-3.2989,-3.3744,-3.3991,-3.4027,-3.3854,-3.3365,-3.2206,-3.1377,-3.1254,-3.1011,-3.1036,-3.1483,-3.1246,-3.0572,-2.9185,-2.8539,-2.8144,-2.7968,-2.7273,-2.7143,-2.7721,-2.6735,-2.5781,-2.5103,-2.4699,-2.406,-2.3078,-2.399,-2.434,-2.4177,-2.3875,-2.3642,-2.3521,-2.2755,-2.2447,-2.2485,-2.3056,-2.3305,-2.3305,-2.3305,-2.3027,-2.2622,-2.2506,-2.2171,-2.1832,-2.2284,-2.2447,-2.2297,-2.1292,-2.0941,-2.084,-2.0275,-2.0087,-2.0087,-2.0087,-2.0087,-2.0213,-2.079,-2.1343,-2.202,-2.3025,-2.3778,-2.4268,-2.4268,-2.4205,-2.4293,-2.4845,-2.4042,-2.3484,-2.4402,-2.4614,-2.4816,-2.5216,-2.5561,-2.5912,-2.6458,-2.605,-2.595,-2.6596,-2.6747,-2.6917,-2.7381,-2.7921,-2.8436,-2.89,-2.9026,-2.9289,-2.9767,-2.9792,-2.9792,-2.9792,-2.9792,-2.9792,-2.9792,-2.9792,-2.9792,-2.9792,-2.9792,-2.9792,-2.9792,-2.9792,-2.9792,-2.9792,-2.9792,-2.9792,-2.9792,-2.9792,-2.9792,-2.9792,-2.9792,-2.9792,-2.9792,-2.9792,-2.9792,-2.9792,-3.3334,-3.4026,-3.4581,-3.4074,-3.4027,-3.3998,-3.3912,-3.1985,-3.0864,-3.184,-3.0819,-3.0383,-3.141,-3.0338,-2.9168,-2.8063,-2.7919,-2.783,-2.7643,-2.7678,-2.7444,-2.6889,-2.7031,-2.6465,-2.515,-2.5206,-2.4553,-2.3078,-2.391,-2.4023,-2.3434,-2.397,-2.3904,-2.3342,-2.3114,-2.2965,-2.3025,-2.38,-2.4118,-2.4118,-2.4118,-2.4066,-2.3942,-2.3251,-2.2975,-2.2865,-2.3,-2.2965,-2.2924,-2.2297,-2.2083,-2.1995,-2.143,-2.1255,-2.1255,-2.1255,-2.1255,-2.138,-2.1945,-2.2498,-2.3062,-2.3715,-2.4632,-2.5372,-2.5372,-2.5034,-2.4858,-2.5385,-2.5357,-2.5428,-2.6077,-2.6202,-2.6214,-2.6302,-2.6321,-2.6445,-2.6521,-2.6458,-2.6553,-2.7105,-2.7595,-2.7908,-2.7984,-2.8499,-2.885,-2.8925,-2.939,-2.9704,-2.9792,-2.9792,-2.9792,-2.9792,-2.9792,-2.9792,-2.9792,-2.9792,-2.9792,-2.9792,-2.9792,-2.9792,-2.9792,-2.9792,-2.9792,-2.9792,-2.9792,-2.9792,-2.9792,-2.9792,-2.9792,-2.9792,-2.9792,-2.9792,-2.9792,-2.9792,-2.9792,-2.9792,-3.3705,-3.4084,-3.451,-3.4817,-3.4394,-3.4027,-3.4027,-3.2305,-3.1295,-3.2019,-3.1198,-3.0572,-3.0776,-3.0068,-2.9087,-2.7857,-2.8074,-2.7921,-2.704,-2.7104,-2.7109,-2.691,-2.6724,-2.6396,-2.5729,-2.5414,-2.4866,-2.4079,-2.4209,-2.416,-2.3866,-2.4173,-2.4147,-2.3809,-2.3323,-2.3078,-2.3125,-2.3943,-2.4292,-2.435,-2.4738,-2.4681,-2.4234,-2.3884,-2.3767,-2.3728,-2.3393,-2.3483,-2.3638,-2.279,-2.2952,-2.3332,-2.2395,-2.2105,-2.2008,-2.1648,-2.1493,-2.1681,-2.2535,-2.2949,-2.3414,-2.4594,-2.5247,-2.5686,-2.6,-2.59,-2.5799,-2.6025,-2.5824,-2.5774,-2.642,-2.6533,-2.6533,-2.6533,-2.6533,-2.6533,-2.6533,-2.6798,-2.713,-2.767,-2.8235,-2.8561,-2.8561,-2.9089,-2.9415,-2.9415,-2.9641,-2.9792,-2.9792,-2.9792,-2.9792,-2.9792,-2.9792,-2.9792,-2.9792,-2.9792,-2.9792,-2.9792,-2.9792,-2.9792,-2.9792,-2.9792,-2.9792,-2.9792,-2.9792,-2.9792,-2.9792,-2.9792,-2.9792,-2.9792,-2.9792,-2.9792,-2.9792,-2.9792,-2.9792,-2.9792]},{"header":{"parameterUnit":"m.s-1","parameterCategory":1,"la1":30.6,"la2":28.766,"lo1":-90.7593,"lo2":-88.6598,"dy":0.0162,"dx":0.0183,"nx":116,"ny":114,"refTime":"2023-07-11T06:00:00:Z","depth":0,"parameterNumber":3,"parameterNumberName":"V-component_of_WINDS"},"data":[0.0,0.0,0.0,0.0,0.0,0.0,0.0,0.0,0.0,0.0,0.0,0.0,0.0,0.0,0.0,0.0,0.0,0.0,0.0,0.0,0.0,0.0,0.0,0.0,0.0,0.0,0.0,0.0,0.0,0.0,0.0,0.0,0.0,0.0,0.0,0.0,0.0,0.0,0.0,0.0,0.0,0.0,0.0,0.0,0.0,0.0,0.0,0.0,0.0,0.0,0.0,0.0,0.0,0.0,0.0,0.0,0.0,0.0,0.0,0.0,0.0,0.0,0.0,0.0,0.0,0.0,0.0,0.0,0.0,0.0,0.0,0.0,0.0,0.0,0.0,0.0,0.0,0.0,0.0,0.0,0.0,0.0,0.0,0.0,0.0,0.0,0.0,0.0,0.0,0.0,0.0,0.0,0.0,0.0,0.0,0.0,0.0,0.0,0.0,0.0,0.0,0.0,0.0,0.0,0.0,0.0,0.0,0.0,0.0,0.0,0.0,0.0,0.0,0.0,0.0,0.0,0.0,0.0,0.0,0.0,0.0,0.0,0.0,0.0,0.0,0.0,0.0,0.0,0.0,0.0,0.0,0.0,0.0,0.0,0.0,0.0,0.0,0.0,0.0,0.0,0.0,0.0,0.0,0.0,0.0,0.0,0.0,0.0,0.0,0.0,0.0,0.0,0.0,0.0,0.0,0.0,0.0,0.0,0.0,0.0,0.0,0.0,0.0,0.0,0.0,0.0,0.0,0.0,0.0,0.0,0.0,0.0,0.0,0.0,0.0,0.0,0.0,0.0,0.0,0.0,0.0,0.0,0.0,0.0,0.0,0.0,0.0,0.0,0.0,0.0,0.0,0.0,0.0,0.0,0.0,0.0,0.0,0.0,0.0,0.0,0.0,0.0,0.0,0.0,0.0,0.0,0.0,0.0,0.0,0.0,0.0,0.0,0.0,0.0,0.0,0.0,0.0,0.0,0.0,0.0,0.0,0.0,0.0,0.0,0.0,0.0,0.0,0.0,0.0,0.0,0.0,0.0,0.0,0.0,0.0,0.0,0.0,0.0,0.0,0.0,0.0,0.0,0.0,0.0,0.0,0.0,0.0,0.0,0.0,0.0,0.0,0.0,0.0,0.0,0.0,0.0,0.0,0.0,0.0,0.0,0.0,0.0,0.0,0.0,0.0,0.0,0.0,0.0,0.0,0.0,0.0,0.0,0.0,0.0,0.0,0.0,0.0,0.0,0.0,0.0,0.0,0.0,0.0,0.0,0.0,0.0,0.0,0.0,0.0,0.0,0.0,0.0,0.0,0.0,0.0,0.0,0.0,0.0,0.0,0.0,0.0,0.0,0.0,0.0,0.0,0.0,0.0,0.0,0.0,0.0,0.0,0.0,0.0,0.0,0.0,0.0,0.0,0.0,0.0,0.0,0.0,0.0,0.0,0.0,0.0,0.0,0.0,0.0,0.0,0.0,0.0,0.0,0.0,0.0,0.0,0.0,0.0,0.0,0.0,0.0,0.0,0.0,0.0,0.0,0.0,0.0,0.0,0.0,0.0,0.0,0.0,0.0,0.0,0.0,0.0,0.0,0.0,0.0,0.0,0.0,0.0,0.0,0.0,0.0,0.0,0.0,0.0,0.0,0.0,0.0,0.0,0.0,0.0,0.0,0.0,0.0,0.0,0.0,0.0,0.0,0.0,0.0,0.0,0.0,0.0,0.0,0.0,0.0,0.0,0.0,0.0,0.0,0.0,0.0,0.0,0.0,0.0,0.0,0.0,0.0,0.0,0.0,0.0,0.0,0.0,0.0,0.0,0.0,0.0,0.0,0.0,0.0,0.0,0.0,0.0,0.0,0.0,0.0,0.0,0.0,0.0,0.0,0.0,0.0,0.0,0.0,0.0,0.0,0.0,0.0,0.0,0.0,0.0,0.0,0.0,0.0,0.0,0.0,0.0,0.0,0.0,0.0,0.0,0.0,0.0,0.0,0.0,0.0,0.0,0.0,0.0,0.0,0.0,0.0,0.0,0.0,0.0,0.0,0.0,0.0,0.0,0.0,0.0,0.0,0.0,0.0,0.0,0.0,0.0,0.0,0.0,0.0,0.0,0.0,0.0,0.0,0.0,0.0,0.0,0.0,0.0,0.0,0.0,0.0,0.0,0.0,0.0,0.0,0.0,0.0,0.0,0.0,0.0,0.0,0.0,0.0,0.0,0.0,0.0,0.0,0.0,0.0,0.0,0.0,0.0,0.0,0.0,0.0,0.0,0.0,0.0,0.0,0.0,0.0,0.0,0.0,0.0,0.0,0.0,0.0,0.0,0.0,0.0,0.0,0.0,0.0,0.0,0.0,0.0,0.0,0.0,0.0,0.0,0.0,0.0,0.0,0.0,0.0,0.0,0.0,0.0,0.0,0.0,0.0,0.0,0.0,0.0,0.0,0.0,0.0,0.0,0.0,0.0,0.0,0.0,0.0,0.0,0.0,0.0,0.0,0.0,0.0,0.0,0.0,0.0,0.0,0.0,0.0,0.0,0.0,0.0,0.0,0.0,0.0,0.0,0.0,0.0,0.0,0.0,0.0,0.0,0.0,0.0,0.0,0.0,0.0,0.0,0.0,0.0,0.0,0.0,0.0,0.0,0.0,0.0,0.0,0.0,0.0,0.0,0.0,0.0,0.0,0.0,0.0,0.0,0.0,0.0,0.0,0.0,0.0,0.0,0.0,0.0,0.0,0.0,0.0,0.0,0.0,0.0,0.0,0.0,0.0,0.0,0.0,0.0,0.0,0.0,0.0,0.0,0.0,0.0,0.0,0.0,0.0,0.0,0.0,0.0,0.0,0.0,0.0,0.0,0.0,0.0,0.0,0.0,0.0,0.0,0.0,0.0,0.0,0.0,0.0,0.0,0.0,0.0,0.0,0.0,0.0,0.0,0.0,0.0,0.0,0.0,0.0,0.0,0.0,0.0,0.0,0.0,0.0,0.0,0.0,0.0,0.0,0.0,0.0,0.0,0.0,0.0,0.0,0.0,0.0,0.0,0.0,0.0,0.0,0.0,0.0,0.0,0.0,0.0,0.0,0.0,0.0,0.0,0.0,0.0,0.0,0.0,0.0,0.0,0.0,0.0,0.0,0.0,0.0,0.0,0.0,0.0,0.0,0.0,0.0,0.0,0.0,0.0,0.0,0.0,0.0,0.0,0.0,0.0,0.0,0.0,0.0,0.0,0.0,0.0,0.0,0.0,0.0,0.0,0.0,0.0,0.0,0.0,0.0,0.0,0.0,0.0,0.0,0.0,0.0,0.0,0.0,0.0,0.0,0.0,0.0,0.0,0.0,0.0,0.0,0.0,0.0,0.0,0.0,0.0,0.0,0.0,0.0,0.0,0.0,0.0,0.0,0.0,0.0,0.0,0.0,0.0,0.0,0.0,0.0,0.0,0.0,0.0,0.0,0.0,0.0,0.0,0.0,0.0,0.0,0.0,0.0,0.0,0.0,0.0,0.0,0.0,0.0,0.0,0.0,0.0,0.0,0.0,0.0,0.0,0.0,0.0,0.0,0.0,0.0,0.0,0.0,0.0,0.0,0.0,0.0,0.0,0.0,0.0,0.0,0.0,0.0,0.0,0.0,0.0,0.0,0.0,0.0,0.0,0.0,0.0,0.0,0.0,0.0,0.0,0.0,0.0,0.0,0.0,0.0,0.0,0.0,0.0,0.0,0.0,0.0,0.0,0.0,0.0,0.0,0.0,0.0,0.0,0.0,0.0,0.0,0.0,0.0,0.0,0.0,0.0,0.0,0.0,0.0,0.0,0.0,0.0,0.0,0.0,0.0,0.0,0.0,0.0,0.0,0.0,0.0,0.0,0.0,0.0,0.0,0.0,0.0,0.0,0.0,0.0,0.0,0.0,0.0,0.0,0.0,0.0,0.0,0.0,0.0,0.0,0.0,0.0,0.0,0.0,0.0,0.0,0.0,0.0,0.0,0.0,0.0,0.0,0.0,0.0,0.0,0.0,0.0,0.0,0.0,0.0,0.0,0.0,0.0,0.0,0.0,0.0,0.0,0.0,0.0,0.0,0.0,0.0,0.0,0.0,0.0,0.0,0.0,0.0,0.0,0.0,0.0,0.0,0.0,0.0,0.0,0.0,0.0,0.0,0.0,0.0,0.0,0.0,0.0,0.0,0.0,0.0,0.0,0.0,0.0,0.0,0.0,0.0,0.0,0.0,0.0,0.0,0.0,0.0,0.0,0.0,0.0,0.0,0.0,0.0,0.0,0.0,0.0,0.0,0.0,0.0,0.0,0.0,0.0,0.0,0.0,0.0,0.0,0.0,0.0,0.0,0.0,0.0,0.0,0.0,0.0,0.0,0.0,0.0,0.0,0.0,0.0,0.0,0.0,0.0,0.0,0.0,0.0,0.0,0.0,0.0,0.0,0.0,0.0,0.0,0.0,0.0,0.0,0.0,0.0,0.0,0.0,0.0,0.0,0.0,0.0,0.0,0.0,0.0,0.0,0.0,0.0,0.0,0.0,0.0,0.0,0.0,0.0,0.0,0.0,0.0,0.0,0.0,0.0,0.0,0.0,0.0,0.0,0.0,0.0,0.0,0.0,0.0,0.0,0.0,0.0,0.0,0.0,0.0,0.0,0.0,0.0,0.0,0.0,0.0,0.0,0.0,0.0,0.0,0.0,0.0,0.0,0.0,0.0,0.0,0.0,0.0,0.0,0.0,0.0,0.0,0.0,0.0,0.0,0.0,0.0,0.0,0.0,0.0,0.0,0.0,0.0,0.0,0.0,0.0,0.0,0.0,0.0,0.0,0.0,0.0,0.0,0.0,0.0,0.0,0.0,0.0,0.0,0.0,0.0,0.0,0.0,0.0,0.0,0.0,0.0,0.0,0.0,0.0,0.0,0.0,0.0,0.0,0.0,0.0,0.0,0.0,0.0,0.0,0.0,0.0,0.0,0.0,0.0,0.0,0.0,0.0,0.0,0.0,0.0,0.0,0.0,0.0,0.0,0.0,0.0,0.0,0.0,0.0,0.0,0.0,0.0,0.0,0.0,0.0,0.0,0.0,0.0,0.0,0.0,0.0,0.0,0.0,0.0,0.0,0.0,0.0,0.0,0.0,0.0,0.0,0.0,0.0,0.0,0.0,0.0,0.0,0.0,0.0,0.0,0.0,0.0,0.0,0.0,0.0,0.0,0.0,0.0,0.0,0.0,0.0,0.0,0.0,0.0,0.0,0.0,0.0,0.0,0.0,0.0,0.0,0.0,0.0,0.0,0.0,0.0,0.0,0.0,0.0,0.0,0.0,0.0,0.0,0.0,0.0,0.0,0.0,0.0,0.0,0.0,0.0,0.0,0.0,0.0,0.0,0.0,0.0,0.0,0.0,0.0,0.0,0.0,0.0,0.0,0.0,0.0,0.0,0.0,0.0,0.0,0.0,0.0,0.0,0.0,0.0,0.0,0.0,0.0,0.0,0.0,0.0,0.0,0.0,0.0,0.0,0.0,0.0,0.0,0.0,0.0,0.0,0.0,0.0,0.0,0.0,0.0,0.0,0.0,0.0,0.0,0.0,0.0,0.0,0.0,0.0,0.0,0.0,0.0,0.0,0.0,0.0,0.0,0.0,0.0,0.0,0.0,0.0,0.0,0.0,0.0,0.0,0.0,0.0,0.0,0.0,0.0,0.0,0.0,0.0,0.0,0.0,0.0,0.0,0.0,0.0,0.0,0.0,0.0,0.0,0.0,0.0,0.0,0.0,0.0,0.0,0.0,0.0,0.0,0.0,0.0,0.0,0.0,0.0,0.0,0.0,0.0,0.0,0.0,0.0,0.0,0.0,0.0,0.0,0.0,0.0,0.0,0.0,0.0,0.0,0.0,0.0,0.0,0.0,0.0,0.0,0.0,0.0,0.0,0.0,0.0,0.0,0.0,0.0,0.0,0.0,0.0,0.0,0.0,0.0,0.0,0.0,0.0,0.0,0.0,0.0,0.0,0.0,0.0,0.0,0.0,0.0,0.0,0.0,0.0,0.0,0.0,0.0,0.0,0.0,0.0,0.0,0.0,0.0,0.0,0.0,0.0,0.0,0.0,0.0,0.0,0.0,0.0,0.0,0.0,-1.48,0.0,0.0,0.0,0.0,0.0,0.0,0.0,0.0,0.0,0.0,0.0,0.0,0.0,0.0,0.0,0.0,0.0,0.0,0.0,0.0,0.0,0.0,0.0,0.0,0.0,0.0,0.0,0.0,0.0,0.0,0.0,0.0,0.0,0.0,0.0,0.0,0.0,0.0,0.0,0.0,0.0,0.0,0.0,0.0,0.0,0.0,0.0,0.0,0.0,0.0,0.0,0.0,0.0,0.0,0.0,0.0,0.0,0.0,0.0,0.0,0.0,0.0,0.0,0.0,0.0,0.0,0.0,0.0,0.0,0.0,0.0,0.0,0.0,0.0,0.0,0.0,0.0,0.0,0.0,0.0,0.0,0.0,0.0,0.0,0.0,0.0,0.0,0.0,0.0,0.0,0.0,0.0,0.0,0.0,0.0,0.0,0.0,0.0,0.0,0.0,0.0,0.0,0.0,0.0,0.0,0.0,0.0,0.0,0.0,0.0,0.0,0.0,0.0,0.0,0.0,0.0,-1.4337,0.0,0.0,0.0,0.0,0.0,0.0,0.0,0.0,0.0,0.0,0.0,0.0,0.0,0.0,0.0,0.0,0.0,0.0,0.0,0.0,0.0,0.0,0.0,0.0,0.0,0.0,0.0,0.0,0.0,0.0,0.0,0.0,0.0,0.0,0.0,0.0,0.0,0.0,0.0,0.0,0.0,0.0,0.0,0.0,0.0,0.0,0.0,0.0,0.0,0.0,0.0,0.0,0.0,0.0,0.0,0.0,0.0,0.0,0.0,0.0,0.0,0.0,0.0,0.0,0.0,0.0,0.0,0.0,0.0,0.0,0.0,0.0,0.0,0.0,0.0,0.0,0.0,0.0,0.0,0.0,0.0,0.0,0.0,0.0,0.0,0.0,0.0,0.0,0.0,0.0,0.0,0.0,0.0,0.0,0.0,0.0,0.0,0.0,0.0,0.0,0.0,0.0,0.0,0.0,0.0,0.0,0.0,0.0,-2.0322,-2.0693,-2.1113,-2.0593,-2.0064,-1.9425,-1.8253,-1.6072,-1.3436,-1.4513,0.0,0.0,0.0,0.0,0.0,0.0,0.0,0.0,0.0,0.0,0.0,0.0,0.0,0.0,0.0,0.0,0.0,0.0,0.0,0.0,0.0,0.0,0.0,0.0,0.0,0.0,0.0,0.0,0.0,0.0,0.0,0.0,0.0,0.0,0.0,0.0,0.0,0.0,0.0,0.0,0.0,0.0,0.0,0.0,0.0,0.0,0.0,0.0,0.0,0.0,0.0,0.0,0.0,0.0,0.0,0.0,0.0,0.0,0.0,0.0,0.0,0.0,0.0,0.0,0.0,0.0,0.0,0.0,0.0,0.0,0.0,0.0,0.0,0.0,0.0,0.0,0.0,0.0,0.0,0.0,0.0,0.0,0.0,0.0,0.0,0.0,-1.7905,-1.671,0.0,0.0,0.0,0.0,0.0,0.0,0.0,0.0,0.0,0.0,0.0,0.0,0.0,-2.2228,-2.2791,-2.3535,-2.3248,-2.2061,-2.3594,-2.407,-2.3544,-2.3824,-2.3876,-2.3756,-2.2975,0.0,-1.5857,-1.5126,0.0,0.0,0.0,0.0,0.0,0.0,0.0,0.0,0.0,0.0,0.0,0.0,0.0,0.0,0.0,0.0,0.0,0.0,0.0,0.0,0.0,0.0,0.0,0.0,0.0,0.0,0.0,0.0,0.0,0.0,0.0,0.0,0.0,0.0,0.0,0.0,0.0,0.0,0.0,0.0,0.0,0.0,0.0,0.0,0.0,0.0,0.0,0.0,0.0,0.0,0.0,0.0,0.0,0.0,0.0,0.0,0.0,0.0,0.0,0.0,0.0,0.0,0.0,0.0,0.0,0.0,0.0,0.0,0.0,0.0,0.0,0.0,0.0,0.0,0.0,0.0,0.0,0.0,0.0,0.0,0.0,0.0,0.0,0.0,0.0,-1.742,-1.795,-1.4899,-1.6566,-1.7552,0.0,0.0,0.0,0.0,0.0,0.0,0.0,0.0,0.0,-2.3342,-2.3768,-2.4482,-2.5518,-2.6428,-2.6898,-2.6988,-2.7421,-2.7659,-2.7605,-2.71,-2.6647,-2.6243,-2.557,-2.3664,-2.0892,-1.9089,-1.754,-1.6206,0.0,0.0,0.0,0.0,-1.4413,-1.4672,0.0,0.0,0.0,0.0,0.0,0.0,0.0,0.0,0.0,0.0,0.0,0.0,0.0,0.0,0.0,0.0,0.0,0.0,0.0,0.0,0.0,0.0,0.0,0.0,0.0,0.0,0.0,0.0,0.0,0.0,0.0,0.0,0.0,0.0,0.0,0.0,0.0,0.0,0.0,0.0,0.0,0.0,0.0,0.0,0.0,0.0,0.0,0.0,0.0,0.0,0.0,0.0,0.0,0.0,0.0,0.0,0.0,0.0,0.0,0.0,0.0,0.0,0.0,0.0,0.0,0.0,0.0,0.0,0.0,0.0,0.0,0.0,0.0,0.0,0.0,0.0,0.0,-1.7868,-1.8663,-1.4238,-1.6949,-1.8601,0.0,0.0,0.0,0.0,0.0,0.0,-2.2237,-2.3292,-2.4664,-2.646,-2.6576,-2.721,-2.8404,-2.9372,-3.0328,-3.1255,-3.0642,-3.0582,-3.0971,-2.9684,-2.8727,-2.8053,-2.7395,-2.6452,-2.5151,-2.2425,-2.0212,-1.847,-1.8051,-1.7529,-1.7014,-1.6649,-1.6861,-1.7149,0.0,0.0,0.0,0.0,0.0,0.0,0.0,0.0,0.0,0.0,0.0,0.0,0.0,0.0,0.0,0.0,0.0,0.0,0.0,0.0,0.0,0.0,0.0,0.0,0.0,0.0,0.0,0.0,0.0,0.0,0.0,0.0,0.0,0.0,0.0,0.0,0.0,0.0,0.0,0.0,0.0,0.0,0.0,0.0,0.0,0.0,0.0,0.0,0.0,0.0,0.0,0.0,0.0,0.0,0.0,0.0,0.0,0.0,0.0,0.0,0.0,0.0,0.0,0.0,0.0,0.0,0.0,0.0,0.0,0.0,0.0,0.0,0.0,0.0,0.0,0.0,0.0,0.0,0.0,-1.7277,-1.9921,0.0,0.0,0.0,0.0,-2.4799,-2.5171,-2.5576,-2.637,-2.7306,-2.816,-2.8894,-3.038,-3.1509,-3.2213,-3.2901,-3.329,-3.3335,-3.2677,-3.2377,-3.2362,-3.1016,-3.0073,-2.9445,-2.8786,-2.8098,-2.7175,-2.3402,-2.185,-2.1659,-1.9699,-1.9333,-1.9714,-1.8173,-1.7768,-1.7838,0.0,0.0,0.0,0.0,0.0,0.0,0.0,0.0,0.0,0.0,0.0,0.0,0.0,0.0,0.0,0.0,0.0,0.0,0.0,0.0,0.0,0.0,0.0,0.0,0.0,0.0,0.0,0.0,0.0,0.0,0.0,0.0,0.0,0.0,0.0,0.0,0.0,0.0,0.0,0.0,0.0,0.0,0.0,0.0,0.0,0.0,0.0,0.0,0.0,0.0,0.0,0.0,0.0,0.0,0.0,0.0,0.0,0.0,0.0,0.0,0.0,0.0,0.0,0.0,0.0,0.0,0.0,0.0,0.0,0.0,0.0,0.0,0.0,0.0,0.0,0.0,0.0,0.0,0.0,-2.266,-2.5353,0.0,-2.528,-2.45,-2.4642,-2.595,-2.7864,-2.9273,-2.9995,-3.1456,-3.2809,-3.3973,-3.364,-3.3754,-3.4427,-3.4681,-3.4786,-3.4786,-3.4098,-3.3559,-3.311,-3.2213,-3.1135,-2.9983,-2.9744,-2.9146,-2.8276,-2.69,-2.5799,-2.4852,-2.3242,-2.2776,-2.2881,-2.1884,-2.1539,-2.156,0.0,0.0,0.0,0.0,0.0,0.0,0.0,0.0,0.0,0.0,0.0,0.0,0.0,0.0,0.0,0.0,0.0,0.0,0.0,0.0,0.0,0.0,0.0,0.0,0.0,0.0,0.0,0.0,0.0,0.0,0.0,0.0,0.0,0.0,0.0,0.0,0.0,0.0,0.0,0.0,0.0,0.0,-1.7136,0.0,0.0,0.0,0.0,0.0,0.0,0.0,0.0,0.0,0.0,0.0,0.0,0.0,0.0,0.0,0.0,0.0,0.0,0.0,0.0,0.0,0.0,0.0,0.0,0.0,0.0,0.0,0.0,0.0,0.0,0.0,0.0,0.0,0.0,0.0,-2.7063,-2.6776,-2.9397,-3.0717,-2.9448,-2.8945,-2.9139,-3.0146,-3.2295,-3.39,-3.4622,-3.5326,-3.6087,-3.7029,-3.5631,-3.504,-3.5504,-3.5504,-3.5504,-3.5489,-3.4577,-3.4027,-3.3789,-3.2896,-3.1977,-3.1029,-3.1029,-3.051,-2.9706,-2.9469,-2.892,-2.8132,-2.6533,-2.5801,-2.554,-2.4866,-2.4612,-2.4611,0.0,0.0,0.0,0.0,0.0,0.0,0.0,0.0,0.0,0.0,0.0,0.0,0.0,0.0,0.0,0.0,0.0,0.0,0.0,0.0,0.0,0.0,0.0,0.0,0.0,0.0,0.0,0.0,0.0,0.0,0.0,0.0,0.0,0.0,0.0,0.0,0.0,0.0,0.0,0.0,0.0,0.0,-1.9974,0.0,0.0,0.0,0.0,0.0,0.0,0.0,0.0,0.0,0.0,0.0,0.0,0.0,0.0,0.0,0.0,0.0,0.0,0.0,0.0,0.0,0.0,0.0,0.0,0.0,0.0,0.0,0.0,0.0,0.0,0.0,0.0,0.0,-2.2513,-2.8213,-3.1585,-2.9536,-3.1833,-3.3322,-3.2594,-3.3186,-3.4827,-3.7753,-3.8633,-3.9343,-4.0037,-3.8668,-3.7822,-3.7822,-3.6321,-3.5504,-3.5504,-3.5489,-3.5474,-3.5554,-3.4158,-3.391,-3.4554,-3.3237,-3.2672,-3.2673,-3.2673,-3.2272,-3.1614,-3.0906,-3.1019,-3.1406,-2.939,-2.822,-2.7615,-2.6984,-2.6714,-2.6617,0.0,0.0,0.0,0.0,0.0,0.0,0.0,0.0,0.0,0.0,0.0,0.0,0.0,0.0,0.0,0.0,0.0,0.0,0.0,0.0,0.0,0.0,0.0,0.0,0.0,0.0,0.0,0.0,0.0,0.0,0.0,0.0,0.0,0.0,0.0,0.0,0.0,0.0,0.0,0.0,0.0,0.0,-2.2307,0.0,0.0,0.0,0.0,0.0,0.0,0.0,0.0,0.0,0.0,0.0,0.0,0.0,0.0,0.0,0.0,0.0,0.0,0.0,0.0,0.0,0.0,0.0,0.0,0.0,0.0,0.0,0.0,0.0,0.0,0.0,0.0,-2.9694,-2.9573,-3.1596,-3.3677,-3.5267,-3.711,-3.8159,-3.7956,-3.8125,-3.8582,-3.9411,-3.9665,-3.9868,-4.007,-3.8668,-3.7822,-3.7822,-3.6321,-3.5504,-3.5504,-3.5011,-3.5284,-3.6259,-3.4891,-3.4926,-3.6118,-3.4628,-3.3912,-3.386,-3.386,-3.3707,-3.3462,-3.3261,-3.284,-3.2125,-3.0541,-2.9863,-2.969,-2.9517,-2.9035,-2.842,0.0,0.0,0.0,0.0,0.0,0.0,0.0,0.0,0.0,0.0,0.0,0.0,0.0,0.0,0.0,0.0,0.0,0.0,0.0,0.0,0.0,0.0,0.0,0.0,0.0,0.0,0.0,0.0,0.0,0.0,0.0,0.0,0.0,0.0,0.0,0.0,0.0,0.0,0.0,0.0,0.0,0.0,-2.4432,-2.1901,-2.0035,-1.8579,-1.7448,-1.7634,-1.8187,-1.6535,0.0,0.0,0.0,0.0,0.0,0.0,0.0,0.0,0.0,0.0,0.0,0.0,0.0,0.0,0.0,0.0,0.0,0.0,0.0,0.0,0.0,0.0,0.0,0.0,-2.9714,-3.3642,-3.4905,-3.547,-3.6518,-3.8582,-3.9563,-4.0206,-4.051,-4.0257,-4.0206,-4.0527,-4.0257,-4.007,-4.007,-3.8668,-3.7822,-3.7822,-3.6321,-3.5668,-3.5943,-3.5533,-3.5938,-3.7084,-3.5993,-3.6048,-3.7161,-3.5982,-3.5602,0.0,-3.5809,-3.5613,-3.525,-3.4928,-3.4415,0.0,0.0,0.0,0.0,0.0,-2.9951,-2.914,0.0,0.0,0.0,0.0,0.0,0.0,0.0,0.0,0.0,0.0,0.0,0.0,0.0,0.0,0.0,0.0,0.0,0.0,0.0,0.0,0.0,0.0,0.0,0.0,0.0,0.0,0.0,0.0,0.0,0.0,0.0,0.0,0.0,0.0,0.0,0.0,0.0,0.0,0.0,0.0,0.0,0.0,-2.6169,-2.2435,-2.1398,-2.1546,-1.915,-1.9083,-1.9991,-1.8688,0.0,0.0,0.0,0.0,0.0,0.0,0.0,0.0,0.0,0.0,0.0,0.0,0.0,0.0,0.0,0.0,0.0,0.0,0.0,0.0,0.0,0.0,0.0,0.0,-3.2043,-3.5193,-3.8734,-3.9242,-3.9478,-4.0138,-4.0273,-4.0595,-4.1271,-4.0646,-4.0493,-4.1153,-4.051,-4.007,-4.007,0.0,0.0,0.0,0.0,-3.6006,-3.6737,-3.6644,-3.7065,-3.7905,-3.7183,-3.7209,-3.8005,-3.7246,-3.732,-3.8024,-3.7855,-3.7398,-3.6721,-3.5943,-3.5571,-3.5307,-3.3456,-3.2335,-3.1691,-3.0965,-3.0174,-2.9419,0.0,0.0,0.0,0.0,0.0,0.0,0.0,0.0,0.0,0.0,0.0,0.0,0.0,0.0,0.0,0.0,0.0,0.0,0.0,0.0,0.0,0.0,0.0,0.0,0.0,0.0,0.0,0.0,0.0,0.0,0.0,0.0,0.0,0.0,0.0,0.0,0.0,0.0,0.0,0.0,0.0,0.0,-2.6754,-2.5437,-2.4395,-2.3582,-2.3161,-2.3018,-2.3017,-2.2568,-2.2345,-2.1979,-2.091,0.0,0.0,0.0,0.0,0.0,0.0,0.0,0.0,0.0,0.0,0.0,0.0,0.0,0.0,0.0,0.0,0.0,0.0,0.0,0.0,-3.0518,-3.4668,-3.8271,-4.046,-4.0781,-4.0832,-4.0967,-4.1508,-4.1914,-4.2066,-4.1424,-4.1052,-4.1187,-4.051,-4.007,-4.007,-3.8668,-3.8092,-3.869,-3.7188,-3.6753,-3.7573,-3.7042,-3.744,-3.8674,0.0,0.0,-3.9615,-3.8247,-3.8035,-3.8717,-3.7516,-3.6907,-3.6721,-3.5943,-3.5267,-3.4675,-3.4257,-3.3681,-3.2974,-3.2219,-3.1456,-3.0796,0.0,0.0,0.0,0.0,0.0,0.0,0.0,0.0,0.0,0.0,0.0,0.0,0.0,0.0,0.0,0.0,0.0,0.0,0.0,0.0,0.0,0.0,0.0,0.0,0.0,0.0,0.0,0.0,0.0,0.0,0.0,0.0,0.0,0.0,0.0,0.0,0.0,0.0,0.0,0.0,0.0,0.0,-2.7026,-2.5883,-2.5091,-2.4584,-2.4276,-2.3981,-2.3743,-2.3497,-2.299,-2.2288,-2.1693,-2.0187,-1.8446,0.0,0.0,0.0,0.0,0.0,0.0,0.0,0.0,0.0,0.0,0.0,0.0,0.0,0.0,-2.3468,0.0,0.0,-3.2562,-3.4482,-3.7945,-4.0711,-4.1628,-4.2066,-4.2168,-4.1796,-4.2066,-4.2439,-4.2811,-4.2185,-4.1745,-4.1745,-4.1068,-4.0476,-4.0104,-3.8668,-3.8149,-3.8854,-3.7408,-3.7128,-3.8358,-3.8001,-3.8384,-3.9489,-3.8775,-3.9035,-4.0054,-3.9293,-3.9194,-3.9478,-3.8362,-3.7686,-3.7263,-3.6096,-3.5182,-3.4489,-3.4489,-3.3812,-3.2848,-3.2848,-3.2138,-3.128,0.0,0.0,0.0,0.0,0.0,0.0,0.0,0.0,0.0,0.0,0.0,0.0,0.0,0.0,0.0,0.0,0.0,0.0,0.0,0.0,0.0,0.0,0.0,0.0,0.0,0.0,0.0,0.0,0.0,0.0,0.0,0.0,0.0,0.0,0.0,0.0,0.0,0.0,0.0,0.0,0.0,0.0,-2.7419,-2.5762,-2.5154,-2.5088,-2.4361,-2.3597,-2.3092,-2.3339,-2.2631,-2.1691,-2.2001,-2.1295,-2.0037,-1.847,-1.7956,0.0,0.0,0.0,0.0,0.0,0.0,0.0,0.0,0.0,-2.3291,-2.5737,-2.8106,-2.991,-3.0691,-3.4124,-3.7136,-3.8199,-4.057,-4.2337,-4.2489,-4.2912,-4.3031,-4.2574,-4.2642,-4.298,-4.3589,-4.2811,-4.2286,-4.2286,-4.1474,-4.073,-4.0104,-3.8668,-3.8206,-3.9086,-3.7658,-3.7584,-3.9139,-3.9139,-3.9437,-4.007,-4.007,-4.007,-4.007,-4.007,-4.007,-4.002,-3.9157,-3.8362,-3.7584,-3.6197,-3.5182,-3.4489,-3.4489,-3.3677,-3.256,-3.3017,-3.2405,-3.1436,0.0,0.0,0.0,0.0,0.0,0.0,0.0,0.0,0.0,0.0,0.0,0.0,0.0,0.0,0.0,0.0,0.0,0.0,0.0,0.0,0.0,0.0,0.0,0.0,0.0,0.0,0.0,0.0,0.0,0.0,0.0,0.0,0.0,0.0,0.0,0.0,0.0,0.0,0.0,0.0,0.0,0.0,-2.8561,-2.6904,-2.598,-2.5405,-2.458,-2.2886,-2.1298,-2.3193,-2.2947,-2.2215,-2.4352,-2.4114,-2.2708,-2.0798,0.0,-1.8283,-1.6876,-1.7425,-1.8827,-2.063,-2.2031,-2.4151,0.0,0.0,-3.092,-3.1352,-3.3549,-3.5033,-3.3909,-3.6603,-3.8963,-3.906,-4.0906,-4.2523,-4.32,-4.2777,-4.2642,-4.3217,-4.391,-4.4367,-4.4451,-4.3132,-4.2286,-4.2286,-4.1001,-4.0172,-4.007,-3.8668,-3.8486,-3.9901,-3.8486,-3.843,-3.9952,-3.9969,-4.002,-4.007,-4.007,-4.007,-4.007,-4.007,-4.007,-4.0003,-3.8633,-3.7601,-3.684,-3.5977,-3.5182,-3.4489,-3.4489,-3.3998,-3.322,-3.2611,-3.211,-3.177,0.0,0.0,0.0,0.0,0.0,0.0,0.0,0.0,0.0,0.0,0.0,0.0,0.0,0.0,0.0,0.0,0.0,0.0,0.0,0.0,0.0,0.0,0.0,0.0,0.0,0.0,0.0,0.0,0.0,0.0,0.0,0.0,0.0,0.0,0.0,0.0,0.0,0.0,0.0,0.0,0.0,0.0,-2.8298,-2.6967,-2.5498,-2.4054,-2.3058,-2.1581,0.0,0.0,-2.0871,-2.0927,-2.2298,-2.2374,-2.1595,-1.9999,-2.0021,0.0,-2.109,-2.1647,0.0,0.0,-2.6493,-2.931,-3.2583,-3.4289,-3.5874,-3.8288,-4.0358,-4.1438,-4.0441,-4.2126,-4.353,0.0,-4.3676,-4.4384,-4.4705,-4.3707,-4.3064,-4.3386,-4.3318,-4.325,-4.325,-4.2658,-4.2117,-4.1694,-4.1085,-4.0544,-4.0104,-3.9032,-3.8924,-4.007,-3.9049,-3.8978,-4.007,-4.007,-4.007,-4.007,-4.007,-4.007,-4.007,-4.007,-3.9851,-3.9411,-3.8802,-3.7872,-3.6755,-3.6434,-3.5588,-3.4489,-3.4489,-3.4049,-3.3372,-3.3051,-3.2747,-3.2555,0.0,0.0,0.0,0.0,0.0,0.0,0.0,0.0,0.0,0.0,0.0,0.0,0.0,0.0,0.0,0.0,0.0,0.0,0.0,0.0,0.0,0.0,0.0,0.0,0.0,0.0,0.0,0.0,0.0,0.0,0.0,0.0,0.0,0.0,0.0,0.0,0.0,0.0,0.0,0.0,0.0,0.0,-2.816,-2.6603,-2.472,-2.2736,-2.1481,-2.0112,0.0,0.0,-1.8455,-1.902,-1.9761,-2.0398,-2.0545,-1.9028,-1.941,-2.0843,-2.3157,0.0,0.0,-2.7973,-3.1134,-3.4244,-3.6816,-3.8405,-4.032,-4.3652,-4.5229,-4.572,-4.4756,-4.5618,0.0,-4.5517,-4.5568,-4.5703,-4.5703,-4.4384,-4.3335,-4.3132,-4.2269,-4.1677,-4.1677,-4.1863,-4.1779,-4.1238,-4.1018,-4.0646,-4.0104,-3.9315,-3.9262,-4.007,-3.9315,-3.9315,-4.007,-4.007,-4.007,-4.007,-4.007,-4.007,-4.007,-4.007,-3.9866,-3.9469,-3.895,-3.8153,-3.7285,-3.6712,-3.5808,-3.4793,-3.4793,-3.4489,-3.3981,-3.3778,-3.3636,-3.3541,0.0,0.0,0.0,0.0,0.0,0.0,0.0,0.0,0.0,0.0,0.0,0.0,0.0,0.0,0.0,0.0,0.0,0.0,0.0,0.0,0.0,0.0,0.0,0.0,0.0,0.0,0.0,0.0,0.0,0.0,0.0,0.0,0.0,0.0,0.0,0.0,0.0,0.0,0.0,0.0,0.0,0.0,-2.8612,-2.59,-2.3816,-2.2121,-2.0451,0.0,0.0,0.0,-1.617,-1.681,-1.7928,-1.9555,0.0,-1.8616,-1.7277,0.0,0.0,0.0,-2.6326,-3.2266,-3.5753,-3.8668,-4.2301,-4.3809,-4.4807,-4.638,-4.6718,-4.6312,-4.4857,-4.5213,-4.55,-4.4739,-4.5229,-4.5703,-4.5703,-4.4384,-4.3149,-4.2422,-4.1035,-4.0155,0.0,-4.0798,-4.1221,-4.1204,-4.0527,-4.0104,-4.007,-3.9315,-3.9262,-4.007,-3.9315,-3.9315,-4.007,-4.007,-4.007,-4.007,-4.007,-4.007,-4.007,-4.007,-4.0351,-4.0753,-3.8802,-3.8213,-3.8512,-3.6485,-3.5622,-3.5588,-3.5588,-3.5571,-3.547,-3.4726,-3.4599,-3.4765,0.0,0.0,0.0,0.0,0.0,0.0,0.0,0.0,0.0,0.0,0.0,0.0,0.0,0.0,0.0,0.0,0.0,0.0,0.0,0.0,0.0,0.0,0.0,0.0,0.0,0.0,0.0,0.0,0.0,0.0,0.0,0.0,0.0,0.0,0.0,0.0,0.0,0.0,0.0,0.0,0.0,0.0,-2.7494,-2.4356,-2.2108,-2.0376,0.0,0.0,0.0,0.0,-1.5721,-1.6498,-1.6479,0.0,0.0,-1.8162,-1.9156,-2.1045,0.0,0.0,-3.1957,-3.6239,-3.9108,-4.1542,-4.4316,-4.5145,-4.5602,-4.6583,-4.4306,-4.1799,-4.0632,-4.0771,-4.1266,-4.1875,-4.4047,-4.5872,-4.6363,-4.5568,-4.4282,-4.2506,-4.1847,0.0,0.0,0.0,0.0,-4.046,-4.0223,-4.007,-4.007,-4.0321,-4.0538,-4.0832,-4.1045,-4.1062,-4.0832,-4.0832,-4.0578,-4.007,-4.007,-4.007,-4.0121,-4.0449,-4.0733,-4.0851,-4.0043,-3.9312,-3.8608,-3.7361,-3.6385,-3.5622,-3.5622,-3.5622,-3.5588,-3.5334,-3.5505,-3.5719,0.0,0.0,0.0,0.0,0.0,0.0,0.0,0.0,0.0,0.0,0.0,0.0,0.0,0.0,0.0,0.0,0.0,0.0,0.0,0.0,0.0,0.0,0.0,0.0,0.0,0.0,0.0,0.0,0.0,0.0,0.0,0.0,0.0,0.0,0.0,0.0,0.0,0.0,0.0,0.0,0.0,0.0,-2.414,-2.1567,-1.9756,0.0,0.0,0.0,0.0,0.0,0.0,0.0,0.0,-1.6034,-1.6901,-1.8897,-2.0855,-2.3531,0.0,-3.258,-3.5885,-3.9632,-4.1847,-4.3555,-4.5314,-4.528,-4.4942,-4.5145,-4.1381,-3.7727,-3.6887,-3.5828,-3.5843,-3.7909,-3.9917,-4.227,-4.5241,-4.4378,-4.3449,-4.3456,-4.2751,0.0,0.0,0.0,0.0,-4.0104,-4.0578,-4.0747,-4.0493,-4.1187,-4.1593,-4.1593,-4.2049,-4.2066,-4.1593,-4.1339,-4.0832,-4.007,-4.007,-4.0204,-4.0417,-4.0733,-4.1133,-4.1499,-4.0895,-4.0034,-3.8926,-3.7965,-3.6766,-3.5622,-3.5622,-3.5622,-3.5622,-3.5622,-3.581,-3.6002,0.0,0.0,0.0,0.0,0.0,0.0,0.0,0.0,0.0,0.0,0.0,0.0,0.0,0.0,0.0,0.0,0.0,0.0,0.0,0.0,0.0,0.0,0.0,0.0,0.0,0.0,0.0,0.0,0.0,0.0,0.0,0.0,0.0,0.0,0.0,0.0,0.0,0.0,0.0,0.0,0.0,0.0,-1.9071,-1.7812,0.0,0.0,0.0,0.0,0.0,0.0,0.0,0.0,0.0,0.0,-1.7705,-2.1041,-2.2644,-2.5048,-3.2673,-3.5927,-3.8199,-4.2496,-4.4113,-4.4823,-4.5551,-4.4434,-4.3014,-4.2115,-3.7903,-3.4121,0.0,0.0,-2.9859,-3.3453,-3.3941,-3.6222,-4.2928,-4.1555,-4.1266,0.0,0.0,0.0,0.0,0.0,0.0,-4.0257,0.0,-4.1948,-4.1288,-4.1965,-4.2354,-4.2354,-4.2388,-4.2388,-4.2354,-4.1627,-4.0882,-4.0138,-4.0189,-4.0451,-4.0903,-4.0949,-4.1621,-4.2619,-4.1324,-4.0339,-3.9532,-3.8192,-3.6887,-3.5723,-3.569,-3.5707,-3.5723,-3.569,-3.5673,-3.5718,0.0,0.0,0.0,0.0,0.0,0.0,0.0,0.0,0.0,0.0,0.0,0.0,0.0,0.0,0.0,0.0,0.0,0.0,0.0,0.0,0.0,0.0,0.0,0.0,0.0,0.0,0.0,0.0,0.0,0.0,0.0,0.0,0.0,0.0,0.0,0.0,0.0,0.0,0.0,0.0,0.0,0.0,-1.7458,0.0,0.0,0.0,0.0,0.0,0.0,0.0,0.0,0.0,0.0,0.0,-2.4837,-2.6842,0.0,-3.3579,-3.6774,-4.0484,-4.3827,-4.5493,-4.5669,-4.5466,-4.5669,-4.325,-4.0238,-3.7803,-3.2215,-2.7195,0.0,0.0,0.0,-3.288,-3.8803,0.0,-4.7046,-4.7367,0.0,0.0,0.0,-4.4164,-4.2455,-4.2642,0.0,0.0,-4.1576,-4.1644,-4.1999,-4.2726,-4.3132,-4.3132,-4.369,-4.3724,-4.3132,-4.2388,-4.1644,-4.0916,-4.1388,-4.1336,-4.0949,-4.1853,-4.24,-4.2657,-4.2123,-4.132,-4.0294,-3.8828,-3.787,-3.7263,-3.6705,-3.6823,-3.7263,-3.6705,-3.6485,-3.6446,0.0,0.0,0.0,0.0,0.0,0.0,0.0,0.0,0.0,0.0,0.0,0.0,0.0,0.0,0.0,0.0,0.0,0.0,0.0,0.0,0.0,0.0,0.0,0.0,0.0,0.0,0.0,0.0,0.0,0.0,0.0,0.0,0.0,0.0,0.0,0.0,0.0,0.0,0.0,0.0,0.0,0.0,0.0,0.0,0.0,0.0,0.0,0.0,0.0,0.0,0.0,-2.2907,-2.5637,-2.7457,-2.9218,-3.209,0.0,-3.8048,-4.0956,-4.4162,-4.6701,-4.6769,-4.6244,-4.5105,-4.2769,-3.9845,-3.6404,-3.2036,-2.6583,0.0,0.0,0.0,0.0,0.0,0.0,0.0,-4.5719,-4.6252,-4.6428,0.0,-4.6224,0.0,-4.4367,-4.4062,-4.4012,0.0,-4.3284,-4.2726,-4.2777,-4.3504,-4.3927,-4.3927,-4.435,-4.4198,-4.342,-4.2997,-4.2564,-4.2108,-4.2472,-4.2469,-4.2263,-4.2943,-4.3152,-4.3032,0.0,-4.1809,-4.063,-3.9476,-3.8572,-3.7872,-3.7432,-3.7533,-3.7855,-3.7432,-3.728,-3.7212,0.0,0.0,0.0,0.0,0.0,0.0,0.0,0.0,0.0,0.0,0.0,0.0,0.0,0.0,0.0,0.0,0.0,0.0,0.0,0.0,0.0,0.0,0.0,0.0,0.0,0.0,0.0,0.0,0.0,0.0,0.0,0.0,0.0,0.0,0.0,0.0,0.0,0.0,0.0,0.0,0.0,0.0,0.0,0.0,0.0,0.0,0.0,0.0,0.0,0.0,-2.4748,-2.7214,-2.9659,-3.1177,-3.2892,-3.7167,-3.9077,-4.0663,-4.4872,-4.7005,-4.7902,-4.7242,-4.6397,-4.4299,-3.9027,-3.5861,-3.2289,-2.602,0.0,0.0,-1.9235,0.0,-2.1277,-2.6349,0.0,-3.5098,-4.279,-4.2899,-4.3848,-4.8261,-4.6995,-4.5991,-4.6718,-4.5534,-4.5297,-4.6684,-4.5602,-4.4536,-4.3758,-4.4367,-4.4637,-4.4434,-4.4519,-4.4198,-4.342,-4.3559,-4.3613,-4.3447,-4.3624,-4.3756,-4.3906,-4.3984,-4.3759,-4.3375,-4.2902,0.0,-4.0683,-4.0053,-3.9152,-3.8176,-3.8091,-3.8108,-3.8176,-3.8091,-3.8058,-3.8041,0.0,0.0,0.0,0.0,0.0,0.0,0.0,0.0,0.0,0.0,0.0,0.0,0.0,0.0,0.0,0.0,0.0,0.0,0.0,0.0,0.0,0.0,0.0,0.0,0.0,0.0,0.0,0.0,0.0,0.0,0.0,0.0,0.0,0.0,0.0,0.0,0.0,0.0,0.0,0.0,0.0,0.0,0.0,0.0,0.0,0.0,0.0,0.0,0.0,0.0,-2.7924,-3.0924,-3.4611,-3.7834,-4.0651,-4.2762,-4.435,-4.5698,-4.7115,-4.8156,-4.8781,-4.8646,-4.7158,-4.4299,-3.9027,-3.4658,0.0,0.0,0.0,-1.7082,-1.572,-1.8393,0.0,-2.9055,0.0,0.0,0.0,0.0,-4.7104,0.0,0.0,0.0,0.0,0.0,0.0,0.0,0.0,-4.6092,-4.5348,-4.5432,-4.4942,-4.3656,-4.4248,-4.4198,-4.342,-4.4557,-4.482,-4.421,-4.524,-4.509,-4.3924,-4.4381,-4.3944,-4.2826,-4.275,0.0,-4.0798,-4.0082,-3.9753,-3.9648,-3.9039,-3.9174,-3.9631,-3.9022,-3.8802,-3.8717,0.0,0.0,0.0,0.0,0.0,0.0,0.0,0.0,0.0,0.0,0.0,0.0,0.0,0.0,0.0,0.0,0.0,0.0,0.0,0.0,0.0,0.0,0.0,0.0,0.0,0.0,0.0,0.0,0.0,0.0,0.0,0.0,0.0,0.0,0.0,0.0,0.0,0.0,0.0,0.0,0.0,0.0,0.0,0.0,0.0,0.0,0.0,0.0,0.0,0.0,-2.6455,-3.1594,-3.7418,-4.066,-4.2675,-4.4604,-4.5669,-4.6566,-4.8071,-4.8731,-4.8917,-4.8528,-4.6464,-4.2589,-3.538,0.0,0.0,0.0,0.0,-1.5273,-1.463,0.0,0.0,0.0,0.0,0.0,0.0,0.0,0.0,0.0,0.0,0.0,0.0,0.0,0.0,0.0,0.0,-4.6887,-4.5771,-4.5331,-4.4604,-4.3453,-4.3775,-4.3939,-4.394,-4.4578,-4.5306,-4.5975,-4.655,-4.6178,-4.4945,-4.5205,-4.4364,-4.2693,-4.2382,0.0,-4.0822,-4.0246,-4.0012,-4.0037,-3.9698,-3.9766,-4.0037,-3.9681,-3.9546,-3.9512,0.0,0.0,0.0,0.0,0.0,0.0,0.0,0.0,0.0,0.0,0.0,0.0,0.0,0.0,0.0,0.0,0.0,0.0,0.0,0.0,0.0,0.0,0.0,0.0,0.0,0.0,0.0,0.0,0.0,0.0,0.0,0.0,0.0,0.0,0.0,0.0,0.0,0.0,0.0,0.0,0.0,0.0,0.0,0.0,0.0,0.0,0.0,0.0,0.0,0.0,-2.3257,-2.8874,-3.5904,-3.9511,-4.1493,-4.3266,-4.4337,-4.553,-4.7892,-4.8765,-4.8798,-4.7902,-4.5415,-4.0822,-3.179,-2.7415,0.0,0.0,0.0,-1.4149,-1.4564,0.0,0.0,0.0,0.0,0.0,0.0,0.0,0.0,0.0,0.0,0.0,0.0,0.0,0.0,0.0,0.0,0.0,-4.5771,-4.4993,-4.4147,-4.32,-4.3487,-4.3849,-4.4175,-4.462,-4.5688,-4.7385,-4.753,-4.7092,-4.6159,-4.6029,-4.4867,-4.2983,-4.219,0.0,0.0,-4.0355,-4.007,-4.007,-4.007,-4.007,-4.007,-4.007,-4.007,-4.007,0.0,0.0,0.0,0.0,0.0,0.0,0.0,0.0,0.0,0.0,0.0,0.0,0.0,0.0,0.0,0.0,0.0,0.0,0.0,0.0,0.0,0.0,0.0,0.0,0.0,0.0,0.0,0.0,0.0,0.0,0.0,0.0,0.0,0.0,0.0,0.0,0.0,0.0,0.0,0.0,0.0,0.0,0.0,0.0,0.0,0.0,0.0,0.0,0.0,0.0,0.0,-2.1039,-2.6362,-3.2402,-3.7481,-3.751,0.0,0.0,-4.6262,-4.7986,-4.8663,-4.7242,-4.4621,-4.005,-3.105,0.0,0.0,0.0,-1.4149,-1.4564,-1.4968,-1.5182,0.0,0.0,0.0,0.0,0.0,0.0,0.0,0.0,0.0,0.0,0.0,0.0,0.0,0.0,0.0,0.0,-4.5737,-4.4993,-4.391,-4.2439,-4.3741,-4.4156,-4.3412,-4.5256,-4.6593,-4.7385,-4.7955,-4.7809,-4.6965,-4.6426,-4.5365,-4.3908,-4.262,0.0,0.0,-4.0409,-4.007,-4.007,-4.007,-4.007,-4.007,-4.007,-4.007,-4.007,0.0,0.0,0.0,0.0,0.0,0.0,0.0,0.0,0.0,0.0,0.0,0.0,0.0,0.0,0.0,0.0,0.0,0.0,0.0,0.0,0.0,0.0,0.0,0.0,0.0,0.0,0.0,0.0,0.0,0.0,0.0,0.0,0.0,0.0,0.0,0.0,0.0,0.0,0.0,0.0,0.0,0.0,0.0,0.0,0.0,0.0,0.0,0.0,0.0,0.0,0.0,0.0,-1.8424,-2.2414,0.0,0.0,-3.7439,-4.0133,-4.5411,-4.7225,-4.7428,-4.6397,-4.2433,-3.6901,-2.9838,0.0,0.0,-1.437,-1.3686,-1.4114,-1.4442,-1.464,-1.5482,0.0,0.0,0.0,0.0,0.0,0.0,0.0,0.0,0.0,0.0,0.0,0.0,0.0,0.0,0.0,-4.5043,-4.4739,-4.4283,-4.3615,-4.4182,-4.4674,-4.5081,-4.507,-4.5659,-4.6741,-4.656,-4.6061,-4.5306,-4.5515,-4.4855,-4.3493,-4.2541,0.0,0.0,-4.0392,-4.007,-4.007,-4.007,-4.007,-4.007,-4.007,-4.007,-4.007,0.0,0.0,0.0,0.0,0.0,0.0,0.0,0.0,0.0,0.0,0.0,0.0,0.0,0.0,0.0,0.0,0.0,0.0,0.0,0.0,0.0,0.0,0.0,0.0,0.0,0.0,0.0,0.0,0.0,0.0,0.0,0.0,0.0,0.0,0.0,0.0,0.0,0.0,0.0,0.0,0.0,0.0,0.0,0.0,0.0,0.0,0.0,0.0,0.0,0.0,0.0,0.0,0.0,0.0,0.0,0.0,-3.2919,-3.6345,-4.1988,-4.4794,-4.5855,-4.4671,-3.9924,-3.4056,0.0,0.0,0.0,-1.3677,-1.3185,-1.3557,-1.407,-1.4506,-1.4857,0.0,0.0,0.0,0.0,0.0,0.0,0.0,0.0,0.0,0.0,0.0,0.0,0.0,0.0,0.0,0.0,-4.4587,-4.4565,-4.4385,-4.4216,-4.4624,-4.5684,-4.4547,-4.4609,-4.5982,-4.5552,-4.5131,-4.4774,-4.5117,-4.4764,-4.3833,-4.289,0.0,0.0,-4.0713,-4.029,-4.007,-4.007,-4.007,-4.007,-4.007,-4.007,-4.007,0.0,0.0,0.0,0.0,0.0,0.0,0.0,0.0,0.0,0.0,0.0,0.0,0.0,0.0,0.0,0.0,0.0,0.0,0.0,0.0,0.0,0.0,0.0,0.0,0.0,0.0,0.0,0.0,0.0,0.0,0.0,0.0,0.0,0.0,0.0,0.0,0.0,0.0,0.0,0.0,0.0,0.0,0.0,0.0,0.0,0.0,0.0,0.0,0.0,0.0,0.0,0.0,0.0,0.0,0.0,0.0,-2.5469,-3.2084,-3.4955,-4.006,-4.4062,-4.1813,-3.7335,-3.2027,0.0,0.0,0.0,-1.3539,-1.2846,-1.3039,-1.4111,-1.4576,-1.5034,-1.5679,0.0,0.0,0.0,0.0,0.0,0.0,0.0,0.0,0.0,0.0,0.0,0.0,0.0,0.0,0.0,-4.4587,-4.4565,-4.4385,-4.3746,-4.3666,-4.4236,-4.361,-4.3978,-4.529,-4.529,-4.5698,-4.6348,-4.5765,-4.5494,0.0,0.0,0.0,0.0,-4.1491,-4.0747,-4.007,-4.007,-4.007,-4.007,-4.007,-4.007,-4.007,0.0,0.0,0.0,0.0,0.0,0.0,0.0,0.0,0.0,0.0,0.0,0.0,0.0,0.0,0.0,0.0,0.0,0.0,0.0,0.0,0.0,0.0,0.0,0.0,0.0,0.0,0.0,0.0,0.0,0.0,0.0,0.0,0.0,0.0,0.0,0.0,0.0,0.0,0.0,0.0,0.0,0.0,0.0,0.0,0.0,0.0,0.0,0.0,0.0,0.0,0.0,0.0,0.0,0.0,0.0,0.0,0.0,0.0,-2.9811,-3.2432,-3.3697,-3.2948,-2.913,-2.4752,-2.1812,0.0,0.0,-1.2139,-1.2278,-1.276,-1.2891,-1.3971,-1.5007,-1.5694,-1.6144,0.0,0.0,0.0,0.0,0.0,0.0,0.0,0.0,0.0,0.0,0.0,0.0,0.0,0.0,-4.4587,-4.4565,-4.4385,-4.4216,-4.4118,-4.4219,-4.3593,-4.3492,-4.3912,-4.3957,-4.4147,-4.4353,-4.4705,-4.4852,0.0,0.0,0.0,0.0,-4.1508,-4.0764,-4.007,-4.007,-4.007,-4.007,-4.007,-4.007,-4.007,0.0,0.0,0.0,0.0,0.0,0.0,0.0,0.0,0.0,0.0,0.0,0.0,0.0,0.0,0.0,0.0,0.0,0.0,0.0,0.0,0.0,0.0,0.0,0.0,0.0,0.0,0.0,0.0,0.0,0.0,0.0,0.0,0.0,0.0,0.0,0.0,0.0,0.0,0.0,0.0,0.0,0.0,-0.8033,0.0,0.0,0.0,0.0,0.0,0.0,0.0,0.0,0.0,0.0,0.0,0.0,0.0,0.0,0.0,0.0,-2.6757,-2.8025,-2.7696,-2.4361,0.0,0.0,0.0,0.0,0.0,0.0,-1.2064,-1.2273,-1.3252,-1.436,-1.5274,-1.5949,0.0,0.0,0.0,0.0,0.0,0.0,0.0,0.0,0.0,0.0,0.0,0.0,0.0,0.0,-4.4299,-4.3977,-4.3632,-4.3597,-4.3571,-4.3452,-4.2809,-4.2635,-4.2927,-4.3263,-4.3572,-4.3859,-4.4062,-4.4147,0.0,0.0,0.0,0.0,-4.139,-4.0764,-4.007,-4.007,-4.007,-4.007,-4.007,-4.007,-4.007,0.0,0.0,0.0,0.0,0.0,0.0,0.0,0.0,0.0,0.0,0.0,0.0,0.0,0.0,0.0,0.0,0.0,0.0,0.0,0.0,0.0,0.0,0.0,0.0,0.0,0.0,0.0,-0.8362,-0.7929,-0.7715,-0.7744,0.0,0.0,0.0,0.0,0.0,0.0,0.0,0.0,0.0,0.0,0.0,0.0,0.0,0.0,0.0,0.0,0.0,0.0,0.0,0.0,0.0,0.0,0.0,0.0,0.0,0.0,0.0,0.0,0.0,0.0,0.0,0.0,0.0,0.0,0.0,0.0,0.0,0.0,0.0,0.0,-1.2603,-1.3325,-1.4707,-1.5544,0.0,0.0,0.0,0.0,0.0,0.0,0.0,0.0,0.0,0.0,0.0,0.0,0.0,0.0,-4.3775,-4.3047,-4.2236,-4.2219,-4.2142,-4.2064,-4.1562,-4.1627,-4.2303,-4.3115,-4.3859,-4.4468,-4.3741,-4.3386,0.0,0.0,0.0,0.0,-4.1152,-4.0696,-4.007,-4.007,-4.007,-4.007,-4.007,-4.007,-4.007,0.0,0.0,0.0,0.0,0.0,0.0,0.0,0.0,0.0,0.0,0.0,0.0,0.0,0.0,0.0,0.0,0.0,0.0,0.0,0.0,0.0,0.0,0.0,0.0,0.0,0.0,0.0,-0.7851,-0.7797,-0.7932,-0.8232,-0.822,0.0,0.0,0.0,0.0,0.0,0.0,0.0,0.0,0.0,0.0,0.0,0.0,0.0,0.0,-0.9483,-1.0089,0.0,0.0,0.0,0.0,0.0,0.0,0.0,0.0,-1.4018,-1.4383,-1.4504,0.0,-1.6236,0.0,0.0,0.0,0.0,0.0,0.0,0.0,0.0,0.0,0.0,0.0,0.0,0.0,0.0,0.0,0.0,0.0,0.0,0.0,0.0,0.0,0.0,0.0,0.0,0.0,0.0,0.0,0.0,-4.32,-4.2811,-4.1508,-4.1457,-4.1188,-4.0576,-4.1562,-4.2117,-4.2303,-4.3656,-4.4079,-4.369,-4.3504,-4.3098,0.0,0.0,0.0,-4.1152,-4.0608,-4.0244,-4.007,-4.007,-4.007,-4.007,-4.007,-4.007,-4.007,0.0,0.0,0.0,0.0,0.0,0.0,0.0,0.0,0.0,0.0,0.0,0.0,0.0,0.0,0.0,0.0,0.0,0.0,0.0,0.0,0.0,0.0,0.0,0.0,0.0,0.0,0.0,0.0,0.0,-0.8179,0.0,0.0,0.0,0.0,0.0,0.0,0.0,0.0,0.0,0.0,-0.7695,0.0,0.0,0.0,0.0,0.0,-0.9524,-1.0261,0.0,-1.1765,-1.2659,-1.3443,0.0,0.0,0.0,0.0,-1.3771,-1.378,-1.3199,-1.3284,-1.3416,-1.2889,-1.269,-1.2385,0.0,0.0,0.0,0.0,0.0,0.0,0.0,0.0,0.0,0.0,0.0,0.0,0.0,0.0,0.0,0.0,0.0,0.0,0.0,0.0,0.0,0.0,0.0,0.0,0.0,-4.2371,-4.2033,-4.1238,-4.0865,-4.0493,-4.007,-4.1221,-4.1796,-4.1813,-4.2963,-4.3318,-4.2895,-4.2198,-4.1866,0.0,0.0,0.0,-4.0628,-3.9877,-3.9751,-4.007,-4.007,-4.007,-4.007,-4.007,-4.007,-4.007,0.0,0.0,0.0,0.0,0.0,0.0,0.0,0.0,0.0,0.0,0.0,0.0,0.0,0.0,0.0,0.0,0.0,0.0,0.0,0.0,0.0,0.0,0.0,0.0,0.0,0.0,0.0,0.0,0.0,0.0,0.0,0.0,-0.8975,0.0,0.0,0.0,0.0,0.0,0.0,0.0,-0.7695,0.0,0.0,0.0,0.0,0.0,0.0,0.0,0.0,-1.1759,-1.2693,-1.3781,-1.3638,0.0,0.0,0.0,0.0,0.0,-1.2965,-1.3654,-1.42,-1.3205,-1.2929,-1.2694,0.0,0.0,0.0,0.0,0.0,0.0,0.0,0.0,0.0,0.0,0.0,0.0,0.0,0.0,0.0,0.0,0.0,0.0,0.0,0.0,0.0,0.0,0.0,0.0,0.0,-4.1474,-4.1153,-4.1035,-4.0409,-4.007,-4.007,-4.0832,-4.1152,-4.103,-4.1772,-4.1987,-4.1745,-4.0475,-4.0199,-4.0601,0.0,0.0,-3.985,-3.9032,-3.9262,-4.007,-4.007,-4.007,-4.007,-4.007,-4.007,-4.007,0.0,0.0,0.0,0.0,0.0,0.0,0.0,0.0,0.0,0.0,0.0,0.0,0.0,0.0,0.0,0.0,0.0,0.0,0.0,0.0,0.0,0.0,0.0,0.0,0.0,0.0,0.0,0.0,0.0,0.0,-0.843,-0.9551,-0.9853,-0.9388,0.0,-0.8613,-0.8281,-0.8281,-0.8066,-0.7695,-0.7695,0.0,0.0,0.0,0.0,0.0,0.0,0.0,0.0,-1.2449,-1.3027,-1.3388,-1.3842,0.0,0.0,0.0,0.0,0.0,-1.1904,-1.4175,-1.6123,-1.2774,-1.2334,-1.243,0.0,0.0,0.0,0.0,0.0,0.0,0.0,0.0,0.0,0.0,0.0,0.0,0.0,0.0,0.0,0.0,0.0,0.0,0.0,0.0,0.0,0.0,0.0,0.0,0.0,-4.0916,-4.0916,-4.0273,-4.0138,-4.007,-4.007,-4.0832,-4.0908,-4.0282,-4.1011,-4.0672,-3.9402,-3.9188,-3.8818,-3.8253,0.0,-3.7642,-3.9032,-3.8262,-3.8832,-4.007,-4.007,-4.007,-4.007,-4.007,-4.007,-4.002,0.0,0.0,0.0,0.0,0.0,0.0,0.0,0.0,0.0,0.0,0.0,0.0,0.0,0.0,0.0,0.0,0.0,0.0,0.0,0.0,0.0,0.0,0.0,0.0,0.0,0.0,0.0,0.0,0.0,-0.8564,-0.842,-0.9008,-0.9268,-0.9233,0.0,-0.8203,-0.8037,-0.8281,-0.8125,-0.7744,0.0,0.0,0.0,0.0,0.0,0.0,0.0,0.0,0.0,0.0,-1.2554,-1.3195,-1.3097,0.0,0.0,0.0,0.0,0.0,-1.1747,-1.3458,-1.5258,-1.4331,-1.559,-1.6929,0.0,0.0,0.0,0.0,0.0,0.0,0.0,0.0,0.0,0.0,0.0,0.0,0.0,0.0,0.0,0.0,0.0,0.0,0.0,0.0,0.0,0.0,0.0,0.0,0.0,0.0,-4.0443,-4.0087,-4.007,-3.9901,-3.9437,-3.9771,-3.9777,-3.9435,-3.9373,-3.9014,-3.8286,-3.7856,-3.7682,-3.7748,0.0,-3.7084,-3.8854,-3.8092,-3.8723,-4.007,-4.007,-4.007,-4.007,-4.007,-3.9833,-3.9368,0.0,0.0,0.0,0.0,0.0,0.0,0.0,0.0,0.0,0.0,0.0,0.0,0.0,0.0,0.0,0.0,0.0,0.0,0.0,0.0,0.0,0.0,0.0,0.0,0.0,0.0,-0.799,-0.7625,-0.8049,-0.8379,-0.8611,-0.8464,-0.8609,0.0,0.0,-0.7793,-0.7725,-0.8193,-0.8186,-0.79,0.0,0.0,0.0,0.0,0.0,0.0,0.0,0.0,0.0,0.0,0.0,0.0,0.0,0.0,0.0,-1.1939,-1.1805,-1.1775,-1.161,-1.3038,-1.4778,0.0,0.0,0.0,0.0,0.0,0.0,0.0,0.0,0.0,0.0,0.0,0.0,0.0,0.0,0.0,0.0,0.0,0.0,0.0,0.0,0.0,0.0,0.0,0.0,0.0,0.0,0.0,0.0,0.0,-4.007,-4.007,-3.9901,-3.9542,-3.8908,-3.8564,-3.8381,-3.8325,-3.779,-3.7397,-3.7235,-3.6631,-3.6692,-3.7191,-3.6022,-3.6707,-3.858,-3.8035,-3.8723,-4.007,-4.007,-4.007,-4.007,-4.007,-3.961,-3.8854,0.0,0.0,0.0,0.0,0.0,0.0,0.0,0.0,0.0,0.0,0.0,0.0,0.0,0.0,0.0,0.0,0.0,0.0,0.0,0.0,0.0,0.0,0.0,0.0,0.0,-0.7557,-0.745,-0.7419,-0.7703,-0.8322,-0.9215,-0.8673,-0.8568,-0.888,0.0,-0.8105,-0.7725,-0.8193,-0.8329,-0.8293,-0.8713,0.0,0.0,0.0,0.0,0.0,0.0,0.0,0.0,0.0,0.0,0.0,0.0,0.0,-1.1865,-1.1805,-1.1805,-1.167,-1.1036,-1.381,-1.656,-1.531,0.0,0.0,0.0,0.0,0.0,0.0,0.0,0.0,0.0,0.0,0.0,0.0,0.0,0.0,0.0,0.0,0.0,0.0,0.0,0.0,0.0,0.0,0.0,0.0,0.0,0.0,0.0,0.0,0.0,-4.007,-3.9385,-3.8962,-3.8908,-3.7467,-3.6783,-3.6783,-3.6722,-3.6337,-3.5683,-3.5619,-3.5619,-3.5683,-3.5569,-3.643,-3.7863,-3.7822,-3.8723,-4.007,-4.007,-4.007,-4.007,-4.007,-3.961,-3.8799,0.0,0.0,0.0,0.0,0.0,0.0,0.0,0.0,0.0,0.0,0.0,0.0,0.0,0.0,0.0,0.0,0.0,0.0,0.0,0.0,0.0,0.0,0.0,-0.7695,-0.7695,-0.8193,-0.8108,-0.7394,-0.7747,-0.8312,-0.9043,-0.8818,0.0,0.0,0.0,0.0,-0.8983,-0.9435,-0.9424,-0.9175,-0.9833,-0.9799,0.0,0.0,0.0,0.0,0.0,0.0,0.0,0.0,-1.174,-1.1835,0.0,0.0,-1.1805,-1.1805,-1.1805,-1.1745,-1.1491,-1.435,-1.7249,-1.6462,0.0,0.0,0.0,0.0,0.0,0.0,0.0,0.0,0.0,0.0,0.0,0.0,0.0,0.0,0.0,0.0,0.0,0.0,0.0,0.0,0.0,0.0,0.0,0.0,0.0,0.0,0.0,0.0,0.0,-3.9368,-3.9086,-3.8453,-3.7467,-3.6888,-3.6399,-3.5894,-3.5894,-3.5782,-3.5504,-3.5504,-3.5504,-3.5504,-3.5504,-3.607,-3.7024,-3.7024,-3.7946,-3.9368,-3.9901,-4.007,-4.002,-3.9558,-3.887,-3.8076,0.0,0.0,0.0,0.0,0.0,0.0,0.0,0.0,0.0,0.0,0.0,0.0,0.0,0.0,0.0,0.0,0.0,0.0,0.0,0.0,0.0,0.0,0.0,-0.7695,-0.7695,-0.8731,-0.8778,-0.784,-0.8234,-0.8554,-0.8782,0.0,0.0,0.0,0.0,0.0,0.0,-1.0195,-1.0245,-1.0087,-1.0618,-1.0392,0.0,0.0,0.0,0.0,0.0,0.0,0.0,0.0,0.0,0.0,0.0,0.0,0.0,0.0,0.0,-1.1805,-1.1805,-1.3959,-1.6323,0.0,0.0,0.0,0.0,0.0,0.0,0.0,0.0,0.0,0.0,0.0,0.0,0.0,0.0,0.0,0.0,0.0,0.0,0.0,0.0,0.0,0.0,0.0,0.0,0.0,0.0,0.0,0.0,0.0,0.0,0.0,-3.8453,-3.7642,-3.6615,-3.6399,-3.6006,-3.5504,-3.5504,-3.5504,-3.5504,-3.5504,-3.5504,-3.5504,-3.5504,-3.5958,-3.6615,-3.6615,-3.7365,-3.858,-3.9172,-3.9385,-3.9332,-3.9032,-3.8414,-3.7748,0.0,0.0,0.0,0.0,0.0,0.0,0.0,0.0,0.0,0.0,0.0,0.0,0.0,0.0,0.0,0.0,0.0,0.0,0.0,0.0,0.0,0.0,0.0,-0.7695,-0.7695,-0.8947,-0.9338,-0.8816,-0.9197,-0.9096,-0.8523,-0.8782,0.0,0.0,0.0,0.0,0.0,0.0,-1.0593,-1.1001,-1.0865,-1.0756,-1.0749,0.0,0.0,0.0,0.0,0.0,0.0,0.0,0.0,0.0,0.0,0.0,0.0,0.0,-1.1805,-1.1805,-1.179,-1.2521,0.0,0.0,0.0,0.0,0.0,0.0,0.0,0.0,0.0,0.0,0.0,0.0,0.0,0.0,0.0,0.0,0.0,0.0,0.0,0.0,0.0,0.0,0.0,0.0,0.0,0.0,0.0,0.0,0.0,0.0,0.0,0.0,-3.7393,-3.6584,-3.66,-3.5879,-3.5489,-3.5504,-3.5489,-3.5489,-3.5504,-3.5504,-3.5504,-3.5504,-3.5504,-3.5879,-3.6615,-3.6615,-3.7084,-3.7806,-3.7822,-3.7822,-3.7863,-3.8635,-3.8414,-3.7921,0.0,0.0,0.0,0.0,0.0,0.0,0.0,0.0,0.0,0.0,0.0,0.0,0.0,0.0,0.0,0.0,0.0,0.0,0.0,0.0,0.0,0.0,0.0,0.0,0.0,0.0,-0.9548,-1.014,-0.9489,-0.9018,0.0,0.0,0.0,-0.9004,0.0,0.0,0.0,0.0,-1.1898,-1.1994,-1.195,-1.1424,-1.0749,0.0,0.0,0.0,0.0,0.0,0.0,0.0,0.0,0.0,0.0,0.0,0.0,0.0,-1.1805,-1.1848,-1.2024,0.0,0.0,0.0,0.0,0.0,0.0,0.0,0.0,0.0,0.0,0.0,0.0,0.0,0.0,0.0,0.0,0.0,0.0,0.0,0.0,0.0,0.0,0.0,0.0,0.0,0.0,0.0,0.0,0.0,0.0,0.0,0.0,0.0,-3.577,-3.5214,-3.5105,-3.4433,-3.4577,-3.5489,-3.5011,-3.504,-3.5504,-3.5504,-3.5504,-3.5504,-3.5504,-3.5619,-3.5894,-3.6384,-3.6722,-3.7024,-3.7573,-3.7822,-3.7748,-3.7424,-3.7499,-3.7748,0.0,0.0,0.0,0.0,0.0,0.0,0.0,0.0,0.0,0.0,0.0,0.0,0.0,0.0,0.0,0.0,0.0,0.0,0.0,0.0,0.0,0.0,0.0,0.0,0.0,-0.8504,-0.9149,0.0,0.0,0.0,0.0,0.0,0.0,-0.9305,0.0,-1.1505,0.0,0.0,-1.2562,-1.2685,-1.2504,-1.1926,-1.1263,0.0,0.0,0.0,0.0,0.0,0.0,0.0,0.0,0.0,0.0,0.0,0.0,0.0,-1.1961,-1.2146,-1.301,0.0,0.0,0.0,0.0,0.0,0.0,0.0,0.0,0.0,0.0,0.0,0.0,0.0,0.0,0.0,0.0,0.0,0.0,0.0,0.0,0.0,0.0,0.0,0.0,0.0,0.0,0.0,0.0,0.0,0.0,0.0,0.0,0.0,-3.4632,-3.4197,-3.4083,-3.3694,-3.3903,-3.4696,-3.4292,-3.4307,-3.4726,-3.5265,-3.5668,-3.5943,-3.5943,-3.5782,-3.5504,-3.6006,-3.6165,-3.6228,-3.6707,-3.689,-3.689,-3.704,-3.7397,-3.7806,0.0,0.0,0.0,0.0,0.0,0.0,0.0,0.0,0.0,0.0,0.0,0.0,0.0,0.0,0.0,0.0,0.0,0.0,0.0,0.0,0.0,0.0,0.0,0.0,0.0,0.0,0.0,0.0,0.0,0.0,0.0,0.0,-0.9896,-0.973,0.0,-1.1811,0.0,-1.2265,-1.2672,-1.3073,-1.2554,-1.2193,-1.1963,-1.2319,0.0,0.0,0.0,0.0,0.0,0.0,0.0,0.0,0.0,0.0,0.0,-1.2107,-1.2303,-1.2759,0.0,0.0,0.0,0.0,0.0,0.0,0.0,0.0,0.0,0.0,0.0,0.0,0.0,0.0,0.0,0.0,0.0,0.0,0.0,0.0,0.0,0.0,0.0,0.0,0.0,0.0,0.0,0.0,0.0,0.0,0.0,0.0,0.0,-3.4503,-3.3713,-3.335,-3.341,-3.335,-3.338,-3.3499,-3.344,-3.344,-3.3544,-3.4756,-3.5743,-3.6522,-3.6645,-3.6337,-3.5748,-3.5748,-3.5748,-3.5748,-3.5748,-3.5748,-3.5846,-3.7294,-3.7863,-3.8092,0.0,0.0,0.0,0.0,0.0,0.0,0.0,0.0,0.0,0.0,0.0,0.0,0.0,0.0,0.0,0.0,0.0,0.0,0.0,0.0,0.0,0.0,0.0,0.0,0.0,0.0,0.0,0.0,0.0,0.0,0.0,0.0,0.0,-1.0211,0.0,-1.1993,-1.2366,-1.2398,-1.2479,-1.2529,-1.2216,-1.1812,-1.1427,-1.2026,-1.1864,0.0,0.0,0.0,0.0,0.0,0.0,0.0,0.0,-1.1805,-1.1833,-1.2107,-1.3013,0.0,0.0,0.0,0.0,0.0,0.0,0.0,0.0,0.0,0.0,0.0,0.0,0.0,0.0,0.0,0.0,0.0,0.0,0.0,0.0,0.0,0.0,0.0,0.0,0.0,0.0,0.0,0.0,0.0,0.0,0.0,0.0,0.0,0.0,-3.306,-3.2334,-3.2198,-3.2721,-3.2213,-3.2482,0.0,-3.2976,-3.2991,-3.3499,-3.3799,-3.4591,-3.59,-3.7042,-3.7456,-3.7294,-3.7294,-3.7294,-3.7294,-3.7294,-3.7294,-3.7354,-3.7706,-3.8149,-3.869,0.0,0.0,0.0,0.0,0.0,0.0,0.0,0.0,0.0,0.0,0.0,0.0,0.0,0.0,0.0,0.0,0.0,0.0,0.0,0.0,0.0,0.0,0.0,0.0,0.0,0.0,0.0,0.0,0.0,0.0,0.0,0.0,0.0,-1.034,0.0,-1.2282,-1.252,-1.2716,-1.2741,-1.2621,-1.2485,-1.2135,-1.1729,-1.2074,-1.1933,-1.1601,-1.2134,0.0,0.0,0.0,0.0,0.0,0.0,0.0,-1.1833,-1.2107,-1.2833,-1.3977,0.0,0.0,0.0,0.0,0.0,0.0,0.0,0.0,0.0,0.0,0.0,0.0,0.0,0.0,0.0,0.0,0.0,0.0,0.0,0.0,0.0,0.0,0.0,0.0,0.0,0.0,0.0,0.0,0.0,0.0,0.0,-3.2225,-3.1773,-3.1197,-3.0805,-3.0761,-3.1106,-3.0776,-3.0941,-3.1614,-3.1569,-3.1898,-3.2572,-3.3916,-3.4728,-3.5171,-3.6622,-3.7077,-3.6773,-3.7109,-3.7237,-3.7285,-3.7678,-3.7822,-3.7863,-3.8206,-3.858,-3.8962,0.0,0.0,0.0,0.0,0.0,0.0,0.0,0.0,0.0,0.0,0.0,0.0,0.0,0.0,0.0,0.0,0.0,0.0,0.0,0.0,0.0,0.0,0.0,0.0,0.0,0.0,0.0,0.0,0.0,0.0,0.0,0.0,0.0,-1.0722,0.0,0.0,-1.2638,-1.3004,-1.3006,-1.276,-1.2913,-1.2608,-1.2056,-1.2244,-1.2097,-1.182,-1.1925,-1.1895,-1.1835,-1.2074,0.0,0.0,0.0,0.0,-1.1833,-1.2107,-1.2648,-1.3725,0.0,0.0,0.0,0.0,0.0,0.0,0.0,0.0,0.0,0.0,0.0,0.0,0.0,0.0,0.0,0.0,0.0,0.0,0.0,0.0,0.0,0.0,0.0,0.0,0.0,0.0,0.0,0.0,0.0,0.0,-3.1389,-3.1198,-3.0689,-2.9619,-2.9579,-2.9579,-2.9579,-2.9579,-2.9579,-2.9594,-3.0208,-3.0806,-3.139,-3.4006,-3.4952,-3.4613,-3.6097,-3.644,-3.6045,-3.668,-3.697,-3.7148,-3.7745,-3.8092,-3.8262,-3.887,-3.9086,-3.9193,0.0,0.0,0.0,0.0,0.0,0.0,0.0,0.0,0.0,0.0,0.0,0.0,0.0,0.0,0.0,0.0,0.0,0.0,-0.8594,0.0,0.0,-1.0383,-1.0344,0.0,0.0,0.0,0.0,0.0,0.0,0.0,0.0,0.0,0.0,-1.2123,0.0,0.0,0.0,-1.3058,-1.2686,-1.219,-1.2941,-1.2495,-1.152,-1.2391,-1.2351,-1.188,-1.2471,-1.2284,-1.1984,-1.3151,-1.2762,0.0,0.0,0.0,-1.1833,-1.2107,-1.3743,0.0,0.0,0.0,0.0,0.0,0.0,0.0,0.0,0.0,0.0,0.0,0.0,0.0,0.0,0.0,0.0,0.0,0.0,0.0,0.0,0.0,0.0,0.0,0.0,0.0,0.0,0.0,0.0,0.0,0.0,0.0,-3.059,-3.0035,-2.97,-2.9604,-2.9579,-2.9579,-2.9579,-2.9579,-2.9579,-2.9594,-3.0208,-3.0552,-3.0672,-3.229,-3.3653,-3.4761,-3.6146,-3.7087,-3.7582,-3.7683,-3.8102,-3.8723,-3.8824,-3.9244,-3.9799,-3.9901,-3.9952,-3.9969,0.0,0.0,0.0,0.0,0.0,0.0,0.0,0.0,0.0,0.0,0.0,0.0,0.0,0.0,0.0,-0.9159,-0.8878,-0.895,-0.9491,-1.0286,-1.097,-1.1556,-1.1318,-1.1324,0.0,0.0,0.0,0.0,0.0,0.0,0.0,-1.083,-1.1333,0.0,0.0,0.0,0.0,0.0,0.0,0.0,-1.3585,-1.3683,-1.3576,-1.3425,-1.3561,-1.3782,-1.3473,-1.3166,-1.3017,-1.3615,-1.3421,-1.2996,-1.3489,0.0,0.0,0.0,-1.3711,0.0,0.0,0.0,0.0,0.0,0.0,0.0,0.0,0.0,0.0,0.0,0.0,0.0,0.0,0.0,0.0,0.0,0.0,0.0,0.0,0.0,0.0,0.0,0.0,0.0,0.0,0.0,0.0,0.0,0.0,-3.0347,-2.936,-2.909,-2.882,-2.8494,-2.8457,-2.8457,-2.8457,-2.8457,-2.8652,-2.9026,-2.931,-2.9819,-3.0507,-3.1127,-3.2408,-3.413,-3.5135,-3.5954,-3.6671,-3.7094,-3.7719,-3.843,-3.8836,-3.9445,-4.007,-4.007,-4.007,-4.007,0.0,0.0,0.0,0.0,0.0,0.0,0.0,0.0,0.0,0.0,0.0,0.0,0.0,0.0,0.0,0.0,-0.9119,-0.9341,-1.034,-1.1035,-1.167,-1.2283,-1.2039,-1.1989,-1.2287,0.0,0.0,0.0,0.0,0.0,-1.16,-1.1707,-1.1907,0.0,-1.292,0.0,0.0,0.0,0.0,0.0,0.0,0.0,0.0,-1.4521,-1.4596,-1.5006,-1.394,-1.3555,-1.36,-1.3944,-1.3944,-1.3875,-1.4295,-1.3857,0.0,0.0,0.0,0.0,0.0,0.0,0.0,0.0,0.0,0.0,0.0,0.0,0.0,0.0,0.0,0.0,0.0,0.0,0.0,0.0,0.0,0.0,0.0,0.0,0.0,0.0,0.0,0.0,0.0,0.0,0.0,0.0,0.0,-2.895,-2.8031,-2.7859,-2.7616,-2.7355,-2.7156,-2.7156,-2.732,-2.732,-2.7575,-2.8098,-2.8442,-2.9101,-3.0028,-3.0357,-3.145,-3.3137,-3.3956,-3.4752,-3.5412,-3.6185,-3.7043,-3.7956,-3.8514,-3.9276,-4.007,-4.007,-4.007,-4.007,0.0,0.0,0.0,0.0,0.0,0.0,0.0,0.0,0.0,0.0,0.0,0.0,0.0,-1.0099,-0.9518,-0.9518,-0.9478,-0.9903,-1.0895,-1.1872,-1.2212,-1.1749,-1.2144,0.0,-1.1645,0.0,0.0,0.0,0.0,0.0,-1.1588,-1.1613,-1.2159,-1.3126,-1.3185,-1.3459,-1.3934,0.0,0.0,0.0,0.0,0.0,0.0,0.0,0.0,0.0,0.0,-1.2861,-1.3056,-1.4303,-1.4333,-1.3914,-1.4569,-1.4526,-1.4233,0.0,0.0,0.0,0.0,0.0,0.0,0.0,0.0,0.0,0.0,0.0,0.0,0.0,0.0,0.0,0.0,0.0,0.0,0.0,0.0,0.0,0.0,0.0,0.0,0.0,0.0,0.0,0.0,0.0,0.0,0.0,0.0,-2.6676,-2.6632,-2.6046,-2.6036,-2.6617,-2.6033,-2.6019,-2.6632,-2.6632,-2.6662,-2.6707,-2.7993,-2.8637,-2.8742,-2.9953,-3.0949,-3.1762,-3.3105,-3.4037,-3.4688,-3.5396,-3.6569,-3.7905,-3.7939,-3.8836,-4.007,-4.007,-4.007,-4.007,0.0,0.0,0.0,0.0,0.0,0.0,0.0,0.0,0.0,0.0,0.0,0.0,0.0,-1.1196,-1.0971,-1.0971,-1.0615,-1.0701,-1.1398,-1.1652,-1.1942,-1.2462,-1.2275,-1.2041,-1.1864,0.0,0.0,0.0,0.0,-1.2115,-1.2128,-1.2479,-1.2822,-1.3198,-1.3198,-1.3615,-1.4278,-1.4438,0.0,0.0,0.0,0.0,0.0,0.0,0.0,0.0,0.0,0.0,0.0,-1.6327,-1.5829,-1.5167,-1.5625,-1.5386,-1.499,-1.5193,-1.559,0.0,0.0,0.0,0.0,0.0,0.0,0.0,0.0,0.0,0.0,0.0,0.0,0.0,0.0,0.0,0.0,0.0,0.0,0.0,0.0,0.0,0.0,0.0,0.0,0.0,0.0,0.0,0.0,0.0,0.0,0.0,-2.594,-2.574,-2.5719,-2.5959,-2.5734,-2.5719,-2.5959,-2.6378,-2.6587,-2.6602,-2.75,-2.8173,-2.8622,-2.9505,-3.0555,-3.1663,-3.3038,-3.3987,-3.464,-3.5316,-3.6248,-3.7229,-3.7719,-3.8514,-3.9445,-3.9901,-4.007,-4.007,0.0,0.0,0.0,0.0,0.0,0.0,0.0,0.0,0.0,0.0,0.0,0.0,0.0,0.0,-1.1457,-1.1561,-1.1238,-1.124,-1.1684,-1.1609,-1.1814,-1.2476,-1.2335,-1.2078,-1.1738,0.0,0.0,0.0,0.0,0.0,0.0,0.0,-1.3425,-1.3459,-1.3581,-1.3967,0.0,0.0,0.0,-1.5931,0.0,0.0,-1.9171,0.0,0.0,0.0,0.0,0.0,0.0,0.0,0.0,-1.6835,-1.6716,-1.6269,-1.5861,-1.6217,-1.6297,0.0,0.0,0.0,0.0,0.0,0.0,0.0,0.0,0.0,0.0,0.0,0.0,0.0,0.0,0.0,0.0,0.0,0.0,0.0,0.0,0.0,0.0,0.0,0.0,0.0,0.0,0.0,0.0,0.0,0.0,0.0,-2.4926,-2.4941,-2.4941,-2.4941,-2.5166,-2.527,-2.527,-2.5719,-2.6153,-2.6602,-2.7036,-2.7604,-2.8278,-2.8951,-3.0008,-3.1358,-3.2688,-3.3761,-3.464,-3.5316,-3.6079,-3.6823,-3.733,-3.8125,-3.9022,-3.9259,-3.9648,-4.0037,0.0,0.0,0.0,0.0,0.0,0.0,0.0,0.0,0.0,0.0,0.0,0.0,0.0,0.0,0.0,-1.1161,-1.1282,-1.1505,-1.1825,-1.1958,-1.1934,-1.1773,-1.2361,-1.2252,-1.1269,0.0,0.0,0.0,0.0,0.0,0.0,0.0,-1.3888,0.0,-1.4342,-1.4533,-1.4533,0.0,-1.5359,-1.599,0.0,-1.9441,-1.9922,0.0,0.0,0.0,-1.7144,-1.6495,0.0,0.0,0.0,0.0,0.0,0.0,-1.6841,0.0,0.0,0.0,0.0,0.0,0.0,0.0,0.0,0.0,0.0,0.0,0.0,0.0,0.0,0.0,0.0,0.0,0.0,0.0,0.0,0.0,0.0,0.0,0.0,0.0,0.0,0.0,0.0,0.0,0.0,0.0,0.0,-2.3595,-2.3595,-2.3595,-2.3595,-2.3595,-2.4253,-2.4552,-2.4552,-2.4567,-2.527,-2.6527,-2.6572,-2.6965,-2.761,-2.8329,-2.9362,-3.0729,-3.2008,-3.3356,-3.4655,-3.5299,-3.6062,-3.6755,-3.6772,-3.7652,-3.8853,-3.8176,-3.8836,-3.9952,0.0,0.0,0.0,0.0,0.0,0.0,0.0,0.0,0.0,0.0,0.0,0.0,0.0,-1.2721,-1.2767,-1.2947,-1.2571,-1.2574,-1.3154,-1.2566,-1.2585,-1.3402,-1.3256,-1.2986,-1.2737,0.0,0.0,0.0,0.0,0.0,0.0,0.0,0.0,0.0,-1.4752,-1.4937,-1.4937,-1.5043,0.0,0.0,-1.8718,-1.9586,0.0,0.0,0.0,0.0,0.0,-1.9072,0.0,0.0,-1.8887,-1.7691,0.0,0.0,0.0,0.0,0.0,0.0,-1.6581,0.0,0.0,0.0,0.0,0.0,0.0,0.0,0.0,0.0,0.0,0.0,0.0,0.0,0.0,0.0,0.0,0.0,0.0,0.0,0.0,0.0,0.0,0.0,0.0,0.0,0.0,0.0,-2.3595,-2.3595,-2.3595,-2.3595,-2.3595,-2.3595,-2.3789,-2.3879,-2.3879,-2.4373,-2.4761,-2.5181,-2.6138,-2.6952,-2.7564,-2.8698,-2.9955,-3.1229,-3.2099,-3.3251,-3.4589,-3.5296,-3.574,-3.5994,-3.6552,-3.7026,-3.7499,-3.8379,-3.8937,-3.9343,0.0,0.0,0.0,0.0,0.0,0.0,0.0,0.0,0.0,0.0,0.0,0.0,0.0,0.0,-1.397,-1.3769,-1.326,-1.3176,-1.3711,-1.3116,-1.3092,-1.3943,-1.3923,-1.3838,-1.3648,0.0,0.0,0.0,0.0,0.0,0.0,0.0,0.0,0.0,0.0,0.0,0.0,0.0,0.0,0.0,-1.8607,0.0,0.0,-2.0393,-2.118,0.0,0.0,0.0,-2.049,-2.0445,-1.9245,0.0,0.0,0.0,0.0,0.0,0.0,0.0,0.0,0.0,0.0,0.0,0.0,0.0,0.0,-1.7399,0.0,0.0,0.0,0.0,0.0,0.0,0.0,0.0,0.0,0.0,0.0,0.0,0.0,0.0,0.0,0.0,0.0,0.0,0.0,-2.358,-2.3595,-2.3595,-2.3595,-2.3595,-2.3595,-2.3595,-2.3595,-2.3729,-2.4029,-2.4148,-2.4477,-2.5046,-2.554,-2.6349,-2.7519,-2.8294,-2.9656,-3.144,-3.2138,-3.3195,-3.4556,-3.5318,-3.5622,-3.5673,-3.6129,-3.6485,-3.6874,-3.7753,-3.8464,-3.9056,0.0,0.0,0.0,0.0,0.0,0.0,0.0,0.0,0.0,0.0,0.0,0.0,0.0,0.0,0.0,0.0,-1.3683,-1.3627,-1.3993,-1.3683,-1.3627,-1.4008,-1.4588,-1.4707,-1.4313,0.0,0.0,0.0,0.0,0.0,0.0,0.0,0.0,0.0,0.0,0.0,0.0,0.0,0.0,-1.6259,-1.84,-1.9522,0.0,0.0,-2.097,0.0,-2.0379,-2.0242,-2.0434,-2.0701,-1.9752,0.0,0.0,0.0,0.0,0.0,-1.6292,0.0,0.0,0.0,0.0,0.0,0.0,0.0,-1.7448,-1.7399,-1.7449,0.0,0.0,0.0,0.0,0.0,0.0,0.0,0.0,0.0,0.0,0.0,0.0,0.0,0.0,0.0,0.0,-2.2248,-2.2906,-2.346,-2.3565,-2.3595,-2.3595,-2.3595,-2.3595,-2.3595,-2.3595,-2.3894,-2.4462,-2.3909,-2.4208,-2.5375,-2.4821,-2.5606,-2.747,-2.7548,-2.8994,-3.1411,-3.2155,-3.3211,-3.4438,-3.5182,-3.5537,-3.5622,-3.5622,-3.6045,-3.6671,-3.684,-3.7736,-3.8903,-1.2772,0.0,0.0,0.0,0.0,0.0,0.0,0.0,0.0,0.0,0.0,0.0,0.0,0.0,0.0,0.0,-1.4875,-1.4758,-1.5379,-1.4845,-1.4773,-1.5394,-1.5544,-1.5575,-1.5474,-1.5608,0.0,0.0,0.0,0.0,0.0,0.0,0.0,0.0,0.0,0.0,0.0,0.0,0.0,-1.8067,-1.9953,0.0,-1.9422,-2.1488,-2.196,-2.1444,-2.0957,-2.0815,-2.075,0.0,-1.9239,-1.8462,0.0,0.0,0.0,0.0,0.0,0.0,0.0,0.0,0.0,0.0,0.0,0.0,-1.5443,-1.5423,-1.5586,0.0,0.0,0.0,0.0,0.0,0.0,0.0,0.0,0.0,0.0,0.0,0.0,0.0,0.0,0.0,0.0,-2.1979,-2.2768,-2.2847,-2.3325,-2.3595,-2.3595,-2.3595,-2.3595,-2.3595,-2.3595,-2.367,-2.3789,-2.367,-2.3729,-2.3999,-2.4373,-2.5615,-2.7444,-2.7976,-2.9316,-3.1268,-3.2032,-3.2832,-3.3677,-3.4404,-3.5064,-3.5622,-3.5622,-3.5723,-3.5994,-3.7229,-3.7872,-3.8278,-1.1959,0.0,0.0,0.0,0.0,0.0,0.0,0.0,0.0,0.0,0.0,0.0,0.0,0.0,0.0,0.0,0.0,0.0,0.0,-1.5499,-1.5575,-1.6219,-1.5978,-1.5948,-1.6248,-1.5963,0.0,0.0,0.0,0.0,0.0,0.0,0.0,0.0,0.0,0.0,0.0,0.0,-1.793,-1.9046,-2.0129,0.0,-1.996,-2.1565,-2.1802,-2.1244,-2.0813,-2.0532,-2.0311,-2.0115,-1.9466,0.0,0.0,-1.8208,-1.8014,0.0,-1.6982,-1.698,0.0,0.0,0.0,-1.5799,0.0,0.0,0.0,-1.5941,-1.6217,0.0,0.0,0.0,0.0,0.0,0.0,0.0,0.0,0.0,0.0,0.0,0.0,0.0,0.0,0.0,0.0,-2.1321,-2.1964,-2.2664,-2.2966,-2.3266,-2.358,-2.3595,-2.3595,-2.3595,-2.3595,-2.3595,-2.3595,-2.3595,-2.3595,-2.361,-2.4228,-2.5315,-2.6905,-2.7859,-2.9154,-3.0734,-3.2205,-3.3051,-3.3491,-3.459,-3.5284,-3.5622,-3.5622,-3.5622,-3.5808,-3.7347,-3.7905,-3.8125,-1.1282,0.0,0.0,0.0,0.0,0.0,0.0,0.0,0.0,0.0,0.0,0.0,0.0,0.0,0.0,0.0,0.0,0.0,0.0,0.0,0.0,-1.6323,-1.5979,-1.5964,-1.6323,-1.5979,-1.5799,0.0,0.0,0.0,0.0,0.0,0.0,0.0,0.0,0.0,0.0,0.0,0.0,-1.9499,0.0,-2.039,-2.096,-2.1505,-2.1438,-2.0971,-2.0395,-1.9965,-1.9765,-2.0318,0.0,-1.8942,-1.9226,-1.9121,0.0,0.0,0.0,0.0,0.0,0.0,0.0,0.0,0.0,-1.5785,0.0,0.0,0.0,-1.9122,0.0,0.0,0.0,0.0,0.0,0.0,0.0,0.0,0.0,0.0,0.0,0.0,0.0,0.0,0.0,-2.0295,-2.0976,-2.2604,-2.2364,-2.2532,-2.355,-2.349,-2.3475,-2.3595,-2.3595,-2.3595,-2.3595,-2.3724,-2.3752,-2.3752,-2.4307,-2.5298,-2.6703,-2.7722,-2.8982,-3.0429,-3.2357,-3.3271,-3.3508,-3.4844,-3.5487,-3.5622,-3.5622,-3.5622,-3.5791,-3.7178,-3.7702,-3.7905,-1.1434,-1.2411,0.0,0.0,0.0,0.0,0.0,0.0,0.0,0.0,0.0,0.0,0.0,0.0,0.0,0.0,0.0,0.0,-1.7473,0.0,0.0,-1.5052,-1.5529,-1.5559,-1.5022,-1.5544,-1.5799,0.0,0.0,0.0,0.0,0.0,0.0,0.0,-1.6649,0.0,0.0,0.0,-1.8885,0.0,-1.9964,-2.0872,0.0,-2.2003,-2.1734,-2.1135,-2.0122,-1.9747,-1.969,0.0,-1.9705,-1.9375,0.0,-1.8687,0.0,0.0,0.0,0.0,0.0,0.0,0.0,0.0,-1.6006,0.0,0.0,0.0,-1.7386,-1.793,0.0,0.0,0.0,0.0,0.0,0.0,0.0,0.0,0.0,0.0,0.0,0.0,0.0,0.0,0.0,0.0,-1.9974,-2.2529,-2.1075,-2.1066,-2.3475,-2.3071,-2.3041,-2.358,-2.3595,-2.3595,-2.3595,-2.4074,-2.4307,-2.4307,-2.4855,-2.6105,-2.8003,-2.8124,-2.9249,-3.1123,-3.2019,-3.2797,-3.3474,-3.4286,-3.5013,-3.5622,-3.5622,-3.5622,-3.5723,-3.6586,-3.6907,-3.7127,-1.2195,-1.2238,0.0,0.0,0.0,0.0,0.0,0.0,0.0,0.0,0.0,0.0,0.0,0.0,0.0,0.0,0.0,-1.7279,0.0,0.0,0.0,0.0,0.0,0.0,-1.6488,-1.6038,-1.5799,-1.5799,-1.5551,0.0,0.0,0.0,0.0,0.0,-1.6563,0.0,-1.6352,0.0,0.0,0.0,0.0,0.0,0.0,-2.1559,-2.1023,-2.0309,-1.9852,-1.969,-1.969,0.0,-1.969,0.0,0.0,0.0,0.0,0.0,0.0,0.0,0.0,0.0,0.0,0.0,0.0,0.0,-1.7503,0.0,-1.8909,0.0,0.0,0.0,0.0,0.0,0.0,0.0,0.0,0.0,0.0,0.0,0.0,0.0,0.0,0.0,0.0,0.0,0.0,0.0,-2.0034,-2.0273,-2.2921,-2.2858,-2.2966,-2.358,-2.3595,-2.3752,-2.4074,-2.4266,-2.4552,-2.4855,-2.5411,-2.6339,-2.7602,-2.8315,-2.9345,-3.0632,-3.1782,-3.2713,-3.3457,-3.4201,-3.4928,-3.5622,-3.5622,-3.5622,-3.5723,-3.6485,-3.6772,-3.6992,-1.2994,0.0,0.0,0.0,0.0,0.0,0.0,0.0,0.0,0.0,0.0,0.0,-1.6712,-1.704,0.0,0.0,0.0,-1.7772,0.0,0.0,-1.7805,0.0,0.0,0.0,0.0,-1.6498,-1.6038,-1.587,0.0,0.0,0.0,0.0,0.0,0.0,0.0,-1.6948,-1.6527,0.0,0.0,-2.074,-2.0414,-2.0677,-2.1272,-2.1023,-2.0535,-1.9944,-1.975,-1.969,-1.969,-1.969,-1.969,0.0,-2.0064,0.0,0.0,0.0,0.0,0.0,-1.6518,0.0,0.0,0.0,0.0,0.0,0.0,0.0,0.0,0.0,0.0,0.0,0.0,0.0,0.0,0.0,0.0,0.0,0.0,0.0,0.0,0.0,0.0,0.0,0.0,0.0,0.0,-1.9989,-1.8816,-1.9356,-2.2544,-2.2544,-2.2772,-2.358,-2.3595,-2.3879,-2.4389,-2.4552,-2.491,-2.5411,-2.6158,-2.6889,-2.7674,-2.8777,-2.9702,-3.0463,-3.1512,-3.2527,-3.344,-3.3981,-3.4759,-3.5622,-3.5622,-3.5622,-3.569,-3.6265,-3.6468,-3.6671,-1.3755,-1.4414,0.0,0.0,0.0,0.0,0.0,0.0,0.0,0.0,0.0,0.0,0.0,0.0,0.0,0.0,0.0,-1.9728,-1.7817,0.0,-1.7266,0.0,0.0,-1.7161,0.0,0.0,0.0,0.0,0.0,0.0,0.0,0.0,0.0,0.0,0.0,-1.5926,-1.5661,-1.7711,-1.8938,-1.9561,-2.0686,-2.0837,-2.0385,0.0,-2.0677,-2.0587,-1.9929,0.0,0.0,-1.969,-1.969,0.0,0.0,0.0,0.0,0.0,0.0,0.0,0.0,0.0,0.0,-1.5963,0.0,0.0,0.0,0.0,-1.9147,0.0,0.0,0.0,0.0,0.0,0.0,-1.6359,0.0,0.0,0.0,0.0,0.0,0.0,0.0,0.0,0.0,0.0,0.0,-1.8557,-1.7167,-1.811,-2.2469,-2.2069,-2.2308,-2.3565,-2.3595,-2.3879,-2.4389,-2.4894,-2.5449,-2.5977,-2.7173,-2.8144,-2.8958,-2.9736,-3.048,-3.1157,-3.1207,-3.2053,-3.3406,-3.344,-3.4303,-3.5622,-3.5622,-3.5622,-3.5622,-3.5639,-3.5656,-3.5876,0.0,0.0,0.0,0.0,0.0,0.0,0.0,-1.6075,0.0,0.0,0.0,0.0,0.0,0.0,-2.1867,0.0,0.0,-2.2014,-1.9221,-2.0452,0.0,0.0,0.0,-1.8017,0.0,0.0,0.0,0.0,0.0,0.0,0.0,0.0,0.0,0.0,0.0,-1.6517,0.0,0.0,0.0,0.0,0.0,-1.9671,-2.1107,0.0,0.0,-2.0124,-2.0782,-2.0737,0.0,-2.0872,-2.0423,-1.9735,-1.9959,-1.9869,-1.951,-1.8627,-1.8523,0.0,0.0,0.0,-1.7742,-1.6652,0.0,0.0,0.0,0.0,0.0,0.0,0.0,0.0,0.0,0.0,0.0,-1.7037,0.0,0.0,0.0,0.0,0.0,0.0,0.0,0.0,0.0,0.0,0.0,-1.817,-1.7605,-1.8609,-2.1844,-2.2124,-2.2777,-2.407,-2.4471,-2.491,-2.5449,-2.5652,-2.5997,-2.6487,-2.6877,-2.774,-2.8991,-2.9245,-3.004,-3.119,-3.119,-3.2036,-3.3406,-3.3406,-3.4286,-3.5622,-3.5622,-3.5316,-3.4988,-3.5424,-3.5943,-3.6603,-1.3031,0.0,0.0,0.0,0.0,0.0,0.0,0.0,0.0,0.0,-2.1538,0.0,-2.3779,0.0,-2.4705,0.0,-2.4697,-2.3702,-2.0238,-2.1848,0.0,-1.8119,-1.8912,0.0,0.0,0.0,0.0,0.0,0.0,-1.5569,0.0,0.0,0.0,0.0,0.0,0.0,0.0,0.0,-1.9147,0.0,0.0,-1.8736,0.0,0.0,-1.9514,-2.0483,0.0,-2.1231,-2.1096,-2.1276,-2.0767,-2.0124,-2.0572,-2.0243,-1.96,-1.9181,-1.9046,-1.8912,-1.8253,-1.8388,0.0,-1.7623,-1.8385,0.0,-1.8205,0.0,0.0,0.0,0.0,0.0,0.0,0.0,0.0,0.0,-1.6127,0.0,0.0,-1.4156,0.0,0.0,0.0,0.0,0.0,0.0,-1.5095,-1.7121,-1.7015,-1.7982,0.0,0.0,-2.2501,-2.3986,-2.4375,-2.5002,-2.5997,-2.6013,-2.636,-2.7097,-2.7177,-2.7967,-2.9381,-2.9429,-3.0106,-3.119,-3.119,-3.2036,-3.3406,-3.3406,-3.4139,-3.5253,-3.5515,-3.5052,-3.4333,-3.5253,-3.6282,-3.7347,0.0,0.0,0.0,0.0,-1.5084,0.0,0.0,0.0,-1.9572,0.0,-2.3163,-2.478,-2.4889,-2.6557,-2.7405,-2.667,-2.6622,0.0,-2.1075,-2.265,0.0,0.0,-1.9361,-2.0152,-1.8945,0.0,0.0,0.0,0.0,0.0,0.0,0.0,0.0,0.0,-1.4387,0.0,-1.838,-1.7464,-1.8894,-2.1571,-1.8673,-1.8167,-1.9107,-1.8711,-1.985,-2.1665,-2.1066,-2.1231,-2.1665,-2.1051,-2.0812,-2.0767,-2.0797,-2.0318,-1.9735,-1.9735,-1.972,-1.9555,-1.8927,-1.8747,-1.8747,-1.8747,0.0,0.0,0.0,0.0,-1.8974,0.0,0.0,0.0,0.0,0.0,0.0,0.0,0.0,0.0,0.0,0.0,0.0,0.0,0.0,0.0,0.0,-1.2437,-1.2801,-1.5628,-1.5591,0.0,0.0,0.0,-2.1538,-2.3359,-2.3515,-2.4344,-2.6033,-2.6049,-2.6628,-2.7789,-2.7952,-2.8755,-3.0087,-3.0202,-3.0592,-3.119,-3.1151,-3.1979,-3.3355,-3.3254,-3.3773,-3.4638,-3.5203,-3.4671,-3.3751,-3.5088,-3.6578,-3.801,-1.3972,-1.5067,-1.5891,0.0,-1.6429,-1.7047,0.0,0.0,0.0,0.0,-2.5044,-2.6738,-3.0076,-3.0434,-3.0126,-2.942,-2.9752,0.0,0.0,0.0,0.0,-2.0503,-2.0576,-2.0152,-1.8945,-1.838,0.0,-1.7312,0.0,0.0,-1.5706,0.0,0.0,0.0,0.0,0.0,-1.6288,-1.6434,-1.7514,-1.9011,-1.7927,-1.8423,0.0,0.0,-2.1193,-2.2458,-2.2757,-2.2682,-2.2473,-2.2757,-2.2233,-2.153,-2.2024,-2.138,-2.0453,-2.0453,-2.0094,-1.9645,-1.948,-1.9435,-1.9435,-1.9435,-1.9491,-1.9572,0.0,0.0,0.0,0.0,0.0,0.0,0.0,0.0,0.0,0.0,0.0,0.0,0.0,0.0,0.0,-1.4093,0.0,0.0,-1.2906,-1.3098,-1.4062,-1.6169,-1.594,0.0,0.0,0.0,0.0,-2.3915,-2.519,-2.608,-2.6505,-2.6505,-2.696,-2.7772,-2.7296,-2.8121,-3.0091,-2.9551,-3.0027,-3.119,-3.074,-3.1299,-3.2519,-3.1627,-3.2256,-3.3738,-3.35,-3.3468,-3.3761,-3.5134,-3.6593,-3.7914,-1.4702,0.0,0.0,-1.7098,0.0,0.0,-1.9705,0.0,0.0,-2.4762,-2.6249,0.0,-3.0033,-3.1769,-3.2209,-3.0857,-3.1341,0.0,-2.6096,0.0,0.0,-2.1378,-2.1439,-2.0846,-1.9273,-1.9012,0.0,-1.7666,0.0,0.0,-1.5706,0.0,0.0,0.0,0.0,-1.5748,0.0,-1.7561,-1.8079,-1.7913,-1.8712,0.0,0.0,-2.0855,-2.1875,-2.3131,-2.3475,-2.337,-2.3101,-2.3176,-2.2712,-2.2188,-2.2604,-2.1769,-2.0722,-2.0722,-2.0228,-1.969,-1.969,-1.9899,-2.0213,-2.0483,-2.0782,-2.0978,-2.0864,-2.0971,-2.0967,0.0,0.0,0.0,0.0,0.0,0.0,0.0,0.0,0.0,0.0,0.0,0.0,0.0,0.0,0.0,-1.3298,-1.2891,-1.3487,-1.5602,0.0,0.0,0.0,0.0,0.0,-2.2687,-2.4343,-2.5688,-2.6691,-2.623,-2.6597,-2.7789,-2.7208,-2.8044,-3.007,-2.9436,-2.9779,-3.0781,-3.074,-3.1157,-3.1913,-3.1511,-3.2219,-3.3502,-3.2854,-3.3371,-3.4516,-3.5039,-3.6168,-3.756,0.0,0.0,0.0,0.0,0.0,0.0,0.0,-2.1381,0.0,-2.4837,0.0,-2.8533,-2.8142,-3.1676,-3.3295,-3.1278,0.0,-3.0401,-2.6896,-2.7057,-2.5478,-2.137,-2.2139,-2.1824,-1.9854,-1.987,0.0,0.0,0.0,0.0,0.0,0.0,0.0,0.0,0.0,0.0,0.0,-1.8914,-1.9045,0.0,-2.0099,-2.0986,-2.1,-2.1257,-2.2285,-2.3595,-2.3595,-2.3595,-2.352,-2.2981,-2.2843,-2.2843,-2.2843,-2.1964,-2.0976,-2.0976,-2.0483,-1.9929,-1.9839,-2.0318,-2.0976,-2.1545,-2.2188,-2.2547,-2.2054,-2.2158,-2.2041,-2.0885,-2.0104,-1.9648,0.0,0.0,0.0,0.0,0.0,0.0,0.0,0.0,0.0,0.0,0.0,0.0,0.0,-1.2623,-1.2423,0.0,0.0,0.0,0.0,0.0,0.0,-2.1199,-2.2754,-2.4567,-2.6573,0.0,-2.6094,-2.7853,-2.745,-2.8321,-3.0222,-2.9646,-2.9767,-3.0435,-3.0699,-3.111,-3.1485,-3.1892,-3.2579,-3.3419,-3.2996,-3.392,-3.545,-3.5194,-3.5892,-3.725,0.0,0.0,0.0,0.0,0.0,-2.1949,-2.5257,-2.4696,-2.5044,-2.8319,-2.8686,-2.941,-3.1438,-3.1886,-3.1656,-3.07,-3.0198,0.0,0.0,0.0,0.0,-2.3915,-2.3106,-2.2009,-2.0572,-2.0104,-1.9319,0.0,0.0,0.0,0.0,0.0,0.0,0.0,0.0,0.0,-1.6602,-1.6167,0.0,-1.8377,-2.0258,-2.0986,-2.1143,-2.2607,-2.3342,-2.3595,-2.3595,-2.3595,-2.358,-2.3475,-2.343,-2.343,-2.343,-2.2936,-2.2338,-2.2338,-2.1859,-2.1231,-2.0677,-2.1021,-2.1545,-2.1665,-2.2188,-2.2787,-2.3176,-2.3308,-2.3275,-2.3035,-2.2535,-2.1919,-2.1377,0.0,0.0,0.0,0.0,0.0,0.0,0.0,0.0,0.0,0.0,0.0,0.0,0.0,0.0,0.0,0.0,0.0,0.0,0.0,0.0,0.0,-2.4531,0.0,0.0,0.0,-2.6966,-2.813,-2.7814,-2.8858,-3.0987,-2.9798,-2.9897,-3.0975,-2.9585,-2.987,-3.1279,-3.0434,-3.1163,-3.2896,-3.3841,-3.4516,-3.5027,-3.6685,-3.7462,-3.7926,0.0,0.0,0.0,0.0,0.0,0.0,0.0,-2.7026,0.0,-2.8915,-2.8782,-2.9064,-3.0319,-3.1437,-3.1646,-3.0526,-3.0172,-2.922,-2.7525,-2.6826,-2.5632,-2.3662,-2.3299,0.0,-2.1261,-2.0966,-2.0125,-1.8602,0.0,0.0,0.0,0.0,0.0,0.0,0.0,-1.6533,0.0,0.0,0.0,-1.9893,-2.1647,-2.2344,-2.2446,-2.327,-2.3595,-2.3595,-2.3595,-2.3595,-2.3595,-2.3595,-2.3595,-2.3595,-2.3595,-2.3176,-2.2724,-2.2724,-2.2218,-2.162,-2.1321,-2.171,-2.2203,-2.2203,-2.2682,-2.3236,-2.3535,-2.3595,-2.3595,-2.3595,-2.3322,-2.2858,-2.2186,-1.9657,0.0,0.0,0.0,0.0,0.0,0.0,0.0,0.0,0.0,0.0,0.0,0.0,0.0,0.0,0.0,0.0,0.0,0.0,0.0,0.0,0.0,0.0,0.0,0.0,0.0,-2.8135,-2.8112,-2.8615,-2.9691,-2.9097,-2.9175,-2.9761,-2.9225,-2.9737,-3.0991,-3.1855,-3.2561,-3.3233,-3.4222,-3.4862,-3.538,-3.6788,-3.7801,-3.8586,0.0,-1.9906,0.0,0.0,-2.3419,0.0,-2.7102,-2.831,-2.9074,-2.9217,-2.9093,-2.8999,-2.8916,-3.0736,-3.1428,-3.0148,-2.9927,-2.8872,-2.6485,-2.6317,-2.5354,-2.3145,-2.3426,-2.3098,-2.2103,-2.1969,-2.1131,0.0,0.0,0.0,0.0,0.0,0.0,0.0,0.0,0.0,0.0,0.0,-2.1228,-2.1662,-2.3048,-2.3595,-2.3595,-2.3595,-2.3595,-2.3595,-2.3595,-2.3595,-2.3595,-2.3595,-2.3595,-2.3595,-2.3595,-2.3266,-2.2877,-2.2877,-2.2503,-2.2084,-2.1934,-2.2383,-2.2847,-2.2753,-2.3131,-2.3595,-2.3595,-2.3595,-2.3595,-2.3595,-2.3431,-2.2948,-2.2,-2.0019,0.0,0.0,0.0,0.0,0.0,0.0,0.0,0.0,0.0,0.0,0.0,0.0,0.0,0.0,0.0,0.0,0.0,0.0,0.0,0.0,0.0,-2.5239,-2.7021,0.0,-2.6918,-2.815,-2.8249,-2.8371,-2.8547,-2.8529,-2.8559,-2.8685,-2.8904,-2.969,-3.1008,-3.3535,-3.4366,-3.4092,-3.459,-3.524,-3.5998,-3.6758,-3.7688,-3.8799,0.0,0.0,0.0,0.0,0.0,0.0,0.0,-2.7947,-2.8866,-3.0951,-3.0713,-3.0333,-3.0333,-3.0042,-2.9569,-2.8845,-2.8212,-2.7263,-2.5783,-2.5693,-2.5228,-2.4292,-2.3849,-2.3504,-2.3266,-2.2834,-2.1987,0.0,0.0,0.0,0.0,0.0,0.0,0.0,0.0,0.0,0.0,-2.0901,-2.1921,-2.3372,-2.355,-2.3595,-2.3595,-2.3595,-2.3595,-2.3595,-2.3595,-2.3595,-2.3595,-2.3595,-2.3595,-2.3595,-2.3595,-2.3565,-2.352,-2.352,-2.3475,-2.3295,-2.2742,-2.3041,-2.337,-2.2858,-2.3131,-2.3595,-2.3595,-2.3595,-2.3595,-2.3595,-2.3143,-2.2179,-2.0287,-2.0625,-2.0798,0.0,0.0,0.0,0.0,0.0,0.0,0.0,0.0,0.0,0.0,0.0,0.0,0.0,0.0,0.0,0.0,0.0,0.0,-2.1685,0.0,-2.2964,-2.4616,-2.608,-2.7339,-2.8394,-2.8345,-2.8626,-2.9265,-2.8748,-2.8779,-2.9271,-2.8222,-2.9221,-3.1646,-3.3744,-3.4939,-3.5413,-3.5503,-3.5935,-3.6678,-3.7438,-3.7815,-3.8092,0.0,0.0,0.0,0.0,0.0,0.0,0.0,-2.8719,-2.9582,-3.1061,-3.0806,-3.0657,-3.1076,-3.0193,-2.9475,-2.9205,-2.8203,-2.7186,-2.6258,-2.6198,-2.5693,-2.4561,-2.4297,-2.3981,-2.3527,-2.2972,-2.2325,0.0,0.0,0.0,0.0,0.0,0.0,0.0,0.0,-2.0642,-2.1569,-2.2287,-2.2974,-2.3595,-2.3595,-2.3595,-2.3595,-2.3595,-2.3595,-2.3595,-2.3595,-2.3595,-2.3595,-2.3595,-2.3595,-2.3595,-2.3595,-2.3595,-2.3595,-2.3595,-2.3595,-2.355,-2.3295,-2.3415,-2.3535,-2.3295,-2.3131,-2.3041,-2.3041,-2.2742,-2.2458,-2.2458,-2.1949,-2.1482,-2.1354,-2.1084,-2.1189,0.0,0.0,0.0,0.0,0.0,0.0,0.0,0.0,0.0,0.0,0.0,0.0,0.0,0.0,0.0,0.0,0.0,0.0,-2.0747,0.0,-2.5447,-2.5428,-2.7339,-2.8543,-2.9018,-2.8632,-2.8358,-2.8304,-2.8091,-2.832,-2.8965,-2.925,-3.0262,-3.1722,-3.3333,-3.4137,-3.4365,-3.4801,-3.5394,-3.6142,-3.6833,-3.7674,-3.8486,-2.5318,0.0,-2.6114,0.0,-2.6553,-2.7199,-2.8394,-2.9198,-2.9964,-3.0892,-3.0846,-3.0893,-3.1437,-3.0357,-2.9654,-2.9834,-2.8457,-2.743,-2.6916,-2.6692,-2.6083,-2.4896,-2.4657,0.0,-2.409,-2.333,-2.2837,-2.2623,-2.1339,0.0,0.0,0.0,0.0,0.0,-2.1686,-2.2091,-2.2468,-2.3271,-2.3595,-2.3595,-2.3595,-2.3595,-2.3595,-2.3595,-2.3595,-2.3595,-2.3595,-2.3595,-2.3595,-2.3595,-2.3595,-2.3595,-2.3595,-2.3595,-2.3595,-2.3595,-2.3595,-2.3595,-2.3595,-2.3595,-2.3595,-2.3595,-2.3131,-2.2724,-2.2724,-2.2173,-2.1635,-2.1455,-2.1036,-2.0896,-2.1467,-2.1241,-2.1521,-2.3135,0.0,0.0,0.0,0.0,0.0,0.0,-2.0809,-1.9935,-1.952,0.0,0.0,0.0,0.0,0.0,0.0,0.0,0.0,0.0,0.0,0.0,0.0,-2.7945,-2.9006,-2.9134,-2.8511,-2.7993,-2.7625,-2.7784,-2.8248,-2.8974,-3.0299,-3.1275,-3.1973,-3.3355,-3.395,-3.4156,-3.4635,-3.512,-3.5676,-3.6383,-3.7128,-3.7889,-2.7954,-2.7362,-2.7346,-2.9378,-2.8459,-2.773,-2.8724,-2.9202,-2.9717,-3.0649,-3.0977,-3.1206,-3.1483,-3.0357,-2.9819,-3.0432,-2.8697,-2.7625,-2.761,-2.6946,-2.6225,0.0,0.0,-2.4793,-2.516,-2.4142,-2.3864,-2.4374,0.0,0.0,-2.1625,0.0,-2.1211,-2.3507,-2.2395,-2.2555,-2.358,-2.3595,-2.3595,-2.3595,-2.3595,-2.3595,-2.3595,-2.3595,-2.3595,-2.3595,-2.3595,-2.3595,-2.3595,-2.3595,-2.3595,-2.3595,-2.3595,-2.3595,-2.3595,-2.3595,-2.3595,-2.3595,-2.3595,-2.3595,-2.3595,-2.3595,-2.3131,-2.2724,-2.2724,-2.2173,-2.1515,-2.0857,-2.0722,-2.0513,-1.9839,-2.1027,-2.1963,-2.1592,0.0,0.0,0.0,0.0,0.0,0.0,-2.0809,-2.0235,-2.0553,0.0,0.0,0.0,0.0,0.0,0.0,0.0,0.0,-2.2789,-2.3697,0.0,-2.5297,-2.7294,-2.8392,-2.8511,-2.791,-2.7625,-2.764,-2.8278,-2.8951,-2.9663,-3.1021,-3.1951,-3.2687,-3.4016,-3.496,-3.5488,-3.5488,-3.5522,-3.5604,-3.6322,-3.6165,-3.5733,-2.8248,-2.8486,-2.8667,-2.8175,-2.8599,-2.8986,-2.89,-2.9464,-3.0317,-3.1199,-3.1627,-3.2034,-3.2765,-3.1285,-3.0283,0.0,-2.9131,-2.8263,0.0,-2.7634,-2.6969,-2.6272,-2.5633,-2.5153,-2.4808,-2.3993,-2.3681,-2.3837,0.0,0.0,0.0,-2.198,-2.2468,-2.358,-2.3198,-2.3271,-2.3595,-2.3595,-2.3595,-2.3595,-2.3595,-2.3595,-2.3595,-2.3595,-2.3595,-2.3595,-2.3595,-2.3595,-2.3595,-2.3595,-2.3595,-2.3595,-2.3595,-2.3595,-2.3595,-2.3595,-2.3595,-2.3595,-2.3595,-2.3595,-2.349,-2.3071,-2.2488,-2.1889,-2.144,-2.0812,-2.0273,-2.0049,-2.0019,-1.9944,-1.9735,-2.1027,-2.2064,-2.1929,-2.3143,0.0,0.0,0.0,0.0,0.0,-1.8927,-1.8601,0.0,-1.8906,0.0,0.0,0.0,0.0,0.0,0.0,0.0,0.0,-2.5316,0.0,-2.6044,-2.7624,-2.8483,-2.8511,-2.791,-2.7814,-2.8293,-2.8966,-2.9609,-3.0238,-3.1136,-3.1913,-3.2579,-3.3508,-3.4242,-3.4817,-3.4817,-3.5067,-3.5504,-3.5782,-3.6006,-3.6228,-2.8858,-2.9287,-2.9512,-2.8419,-2.913,-2.9666,-2.9315,-2.9667,-3.0506,-3.183,-3.1926,-3.2335,-3.3391,-3.2153,0.0,-3.1255,-2.9864,-2.8966,-2.8966,-2.8338,-2.7545,-2.6632,-2.6198,-2.5648,-2.494,-2.4282,0.0,-2.3921,-2.3333,-2.3161,-2.34,-2.3146,-2.337,-2.3969,-2.3714,-2.3595,-2.3595,-2.3595,-2.3595,-2.3595,-2.3595,-2.3595,-2.3595,-2.3595,-2.3595,-2.3595,-2.3595,-2.3595,-2.3595,-2.3595,-2.3595,-2.3595,-2.3595,-2.3595,-2.3595,-2.3595,-2.3595,-2.3595,-2.3595,-2.343,-2.3161,-2.2813,-2.1994,-2.1156,-2.0483,-1.9989,-1.969,-1.969,-1.969,-1.969,-1.969,-2.0636,-2.1577,-2.205,-2.2699,-2.305,-2.2828,0.0,0.0,0.0,0.0,0.0,0.0,-2.0534,-2.0986,0.0,0.0,0.0,0.0,0.0,0.0,-2.4414,-2.7081,0.0,-2.7146,-2.8293,-2.8753,-2.8538,-2.8393,-2.8667,-2.9325,-2.9744,-3.0283,-3.0926,-3.1599,-3.2273,-3.2931,-3.3589,-3.4262,-3.4861,-3.4861,-3.513,-3.5504,-3.5504,-3.5782,-3.6117,-2.9792,-2.9792,0.0,0.0,-2.9792,0.0,-2.9792,-2.9869,-3.057,-3.2393,-3.2082,-3.2182,-3.3419,-3.2931,-3.2512,-3.2512,0.0,0.0,0.0,-2.8921,-2.7964,-2.6707,-2.6617,-2.621,-2.5423,-2.4895,-2.4532,-2.4348,-2.3837,-2.3924,-2.4507,-2.3894,-2.3939,-2.4477,-2.3879,-2.3595,-2.3595,-2.3595,-2.3595,-2.3595,-2.3595,-2.3595,-2.3595,-2.3595,-2.3595,-2.3595,-2.3595,-2.3595,-2.3595,-2.3595,-2.3595,-2.3595,-2.3595,-2.3595,-2.3595,-2.3595,-2.3565,-2.3535,-2.3535,-2.3071,-2.2607,-2.2547,-2.159,-2.0483,-1.9824,-1.969,-1.969,-1.969,-1.969,-1.969,-1.969,-2.0035,-2.0686,-2.1805,-2.2297,-2.2304,-2.1768,0.0,0.0,0.0,0.0,0.0,0.0,-2.3584,-2.4396,0.0,0.0,0.0,0.0,0.0,-2.438,-2.7772,-2.8727,-2.8958,-2.8451,-2.9154,-2.9225,-2.8682,-2.9325,-2.9968,-3.0567,-3.0567,-3.0956,-3.1586,-3.2302,-3.2931,-3.3544,-3.4247,-3.4921,-3.5504,-3.5504,-3.5504,-3.5504,-3.5504,-3.5504,-3.5504,0.0,0.0,-2.9792,-2.9792,-2.9792,-2.9792,-2.9792,-3.0419,-3.1254,-3.2464,-3.2651,-3.3128,-3.4122,-3.3215,-3.2512,-3.2512,-3.0717,-2.9579,-2.9579,-2.8472,-2.773,-2.74,-2.6856,-2.6246,-2.556,-2.4927,-2.4327,-2.3794,-2.3681,-2.3684,-2.3834,-2.367,-2.3684,-2.3834,-2.367,-2.3595,-2.3595,-2.3595,-2.3595,-2.3595,-2.3595,-2.3595,-2.3595,-2.3595,-2.3595,-2.3595,-2.3595,-2.3595,-2.3595,-2.3595,-2.3595,-2.3595,-2.3595,-2.3595,-2.3595,-2.3595,-2.3266,-2.2892,-2.2892,-2.2428,-2.1799,-2.1306,-2.0543,-1.9884,-1.972,-1.969,-1.969,-1.969,-1.969,-1.969,-1.969,-2.0035,-2.0395,-2.0686,-2.0671,-2.0598,-2.0453,-1.9994,0.0,0.0,-2.01,-2.0833,-2.2708,-2.3584,-2.4099,0.0,0.0,0.0,0.0,-2.6756,-2.7514,-2.8687,-2.9083,-2.9467,-2.9904,-2.9689,-2.9485,-2.9355,-2.9983,-3.0642,-3.1228,-3.1228,-3.1659,-3.2317,-3.2976,-3.335,-3.3589,-3.4771,-3.5355,-3.5504,-3.5504,-3.5504,-3.5504,-3.5504,-3.5504,-3.5504,-2.9792,-2.9792,-2.9792,-2.9792,-2.9792,-2.9934,-3.0343,-3.0908,-3.1669,-3.3031,-3.3157,-3.3362,-3.3991,-3.3125,-3.2392,-3.2093,-3.1091,-3.0223,-2.9624,-2.8891,-2.8269,-2.7655,-2.723,-2.6722,-2.6078,-2.542,-2.4597,-2.3595,-2.3595,-2.3759,-2.4073,-2.4073,-2.4073,-2.4073,-2.4073,-2.3894,-2.3595,-2.3595,-2.3595,-2.3595,-2.3595,-2.3595,-2.3595,-2.3595,-2.3595,-2.3595,-2.3595,-2.3595,-2.3595,-2.3595,-2.3595,-2.3595,-2.3595,-2.3595,-2.3595,-2.3595,-2.3161,-2.2724,-2.2724,-2.1979,-2.1081,-2.0408,-1.9959,-1.969,-1.969,-1.969,-1.969,-1.969,-1.969,-1.9747,-1.9929,-2.0,-2.0158,-2.0565,-2.0258,-1.9951,-1.9981,-1.9835,0.0,-2.1248,-2.1673,-2.26,-2.4476,-2.528,-2.5732,-2.5732,-2.6771,0.0,-2.7961,-2.9081,-2.9672,-2.9532,-3.0048,-3.0354,-3.0462,-3.0175,-3.0163,-3.0477,-3.112,-3.1614,-3.1988,-3.2287,-3.2467,-3.2557,-3.3529,-3.3769,-3.3604,-3.4951,-3.5504,-3.5504,-3.5504,-3.5504,-3.5504,-3.5504,-3.5504,-3.5504,-2.9792,-2.9792,-2.9792,-2.9792,-2.9934,-3.0279,-3.1106,-3.1462,-3.2177,-3.3808,-3.3576,-3.336,-3.3498,-3.2901,-3.2243,-3.1541,-3.1482,-3.0986,-2.9669,-2.949,-2.8876,-2.7619,-2.7625,-2.726,-2.6602,-2.5944,-2.5001,-2.3759,-2.3759,-2.3999,-2.4477,-2.4477,-2.4477,-2.4477,-2.4477,-2.4148,-2.3595,-2.3595,-2.3595,-2.3595,-2.3595,-2.3595,-2.3595,-2.3595,-2.3595,-2.3595,-2.3595,-2.3595,-2.3595,-2.3595,-2.3595,-2.3595,-2.3595,-2.3595,-2.3595,-2.3595,-2.3161,-2.2724,-2.2724,-2.1799,-2.0692,-2.0004,-1.9839,-1.9809,-1.9705,-1.969,-1.969,-1.969,-1.9765,-1.9939,-2.0174,-2.0056,-2.0157,-2.078,-2.0146,-1.9666,-1.9949,0.0,-2.1002,-2.2855,-2.3801,-2.5013,-2.686,-2.7621,-2.806,-2.8315,-2.9533,-3.0323,-3.0426,-3.1215,-3.1237,-3.0412,-3.1117,-3.1202,-3.0658,-3.0649,-3.1001,-3.1631,-3.2243,-3.2617,-3.2826,-3.329,-3.3245,-3.2871,-3.3993,-3.4158,-3.3739,-3.4996,-3.5504,-3.5504,-3.5504,-3.5504,-3.5504,-3.5504,-3.5504,-3.5504,-2.9792,-2.9792,-2.9792,-2.9792,-3.0495,-3.1044,-3.118,-3.2522,-3.3671,-3.3959,-3.4185,-3.4092,-3.3574,-3.2901,-3.2243,-3.1541,-3.1482,-3.0986,-2.9669,-2.9071,-2.8397,-2.7655,-2.7625,-2.726,-2.6602,-2.5944,-2.5241,-2.4418,-2.4418,-2.4223,-2.3759,-2.3759,-2.3759,-2.3759,-2.3759,-2.3699,-2.3595,-2.3595,-2.3595,-2.3595,-2.3595,-2.3595,-2.3595,-2.3595,-2.3595,-2.3595,-2.3595,-2.3595,-2.3595,-2.3595,-2.3595,-2.3595,-2.3595,-2.3595,-2.3595,-2.3595,-2.3161,-2.2724,-2.2724,-2.2113,-2.138,-2.0722,-2.0557,-2.0408,-1.9824,-1.969,-1.969,-1.969,-2.0154,-2.0378,-1.9888,-2.0492,-2.0925,-2.0475,-1.9136,-1.8578,-1.9821,0.0,-2.0243,-2.3454,-2.4927,-2.6476,-2.8431,-2.8738,-2.9313,-3.0581,-3.0886,-3.1304,-3.2012,-3.2747,-3.2546,-3.1228,-3.1327,-3.139,-3.1324,-3.1315,-3.1704,-3.2362,-3.2467,-3.3095,-3.4158,-3.3709,-3.3739,-3.4188,-3.4382,-3.4412,-3.4382,-3.5175,-3.5504,-3.5504,-3.5504,-3.5504,-3.5504,-3.5504,-3.5504,-3.5504,-3.0558,-3.0558,-3.0558,-3.0558,-3.0895,-3.1536,-3.2522,-3.3449,-3.3897,-3.3633,-3.3383,-3.301,-3.235,-3.1718,-3.1353,-3.1497,-3.1482,-3.0986,-2.9669,-2.9295,-2.8667,-2.767,-2.7625,-2.726,-2.6602,-2.6303,-2.5809,-2.5151,-2.5151,-2.5181,-2.5211,-2.4852,-2.4687,-2.4657,-2.4313,-2.3939,-2.3595,-2.3595,-2.3595,-2.3595,-2.3595,-2.3595,-2.3595,-2.3595,-2.3595,-2.3595,-2.3595,-2.3595,-2.3595,-2.3595,-2.3595,-2.3595,-2.3595,-2.3595,-2.3595,-2.3595,-2.3161,-2.2607,-2.2248,-2.1934,-2.162,-2.1321,-2.1246,-2.1066,-2.0393,-2.0243,-2.0139,-1.9765,-2.0228,-2.0737,-2.0969,-2.1501,-2.1827,-2.1631,-2.0615,0.0,0.0,-2.1683,-2.2739,-2.5179,-2.6754,-2.7981,-2.8907,-2.9702,-3.0463,-3.114,-3.1616,-3.216,-3.2932,-3.2595,-3.2297,-3.2075,-3.2023,-3.1826,-3.1482,-3.2243,-3.2557,-3.2527,-3.323,-3.3888,-3.4472,-3.4547,-3.4547,-3.4502,-3.4861,-3.4816,-3.4532,-3.522,-3.5504,-3.5504,-3.5504,-3.5504,-3.5504,-3.5504,-3.5504,-3.5504,-3.1462,-3.1536,-3.1536,-3.1536,-3.1669,-3.2321,-3.3808,-3.3897,-3.3705,-3.3215,-3.2464,-3.1754,-3.1233,-3.0621,-3.0488,-3.1161,-3.1029,-3.0353,-2.9116,-2.9222,-2.8806,-2.7634,-2.7625,-2.7335,-2.6826,-2.6811,-2.6497,-2.5839,-2.5839,-2.6019,-2.6348,-2.5689,-2.5375,-2.536,-2.4687,-2.4088,-2.3595,-2.3595,-2.3595,-2.3595,-2.3595,-2.3595,-2.3595,-2.3595,-2.3595,-2.3595,-2.3595,-2.3595,-2.3595,-2.3595,-2.3595,-2.3595,-2.3595,-2.3595,-2.3595,-2.3595,-2.3266,-2.2787,-2.2278,-2.2143,-2.2099,-2.1964,-2.1919,-2.171,-2.0902,-2.0722,-2.0513,-1.9824,-2.0363,-2.1122,-2.1824,-2.2433,-2.2837,-2.2965,0.0,0.0,0.0,-2.3947,-2.5062,-2.7029,-2.8202,-2.9106,-2.9719,-3.0784,-3.154,-3.1715,-3.2326,-3.2842,-3.3259,-3.2258,-3.1905,-3.2312,-3.2445,-3.2273,-3.1764,-3.2916,-3.332,-3.2976,-3.3993,-3.4562,-3.4726,-3.5265,-3.522,-3.4741,-3.528,-3.5205,-3.4756,-3.5295,-3.5504,-3.5504,-3.5504,-3.5504,-3.5504,-3.5504,-3.5504,-3.5504,-3.2321,-3.2536,-3.2536,-3.2536,-3.3241,-3.3808,-3.3959,-3.359,-3.32,-3.3237,-3.199,-3.1092,-3.1157,-3.0503,-3.0122,-3.0387,-2.9628,-2.8677,-2.7454,-2.8025,-2.8167,-2.7619,-2.7625,-2.7595,-2.755,-2.755,-2.7186,-2.6512,-2.6512,-2.6228,-2.5674,-2.5016,-2.4657,-2.4627,-2.3984,-2.3655,-2.3595,-2.3595,-2.3595,-2.3595,-2.3595,-2.3595,-2.3595,-2.3595,-2.3595,-2.3595,-2.3595,-2.3595,-2.3595,-2.3595,-2.3595,-2.3595,-2.3595,-2.3595,-2.3595,-2.3595,-2.3565,-2.352,-2.3475,-2.346,-2.3325,-2.2757,-2.2649,-2.2278,-2.1006,-2.0722,-2.0513,-1.9824,-2.0722,-2.162,-2.1543,-2.2896,-2.3927,-2.3835,0.0,0.0,-2.5205,-2.4552,-2.5151,-2.8426,-2.8606,-2.941,-3.1803,-3.2178,-3.2538,-3.3284,-3.339,-3.3226,-3.2678,-3.2563,-3.2226,-3.1582,-3.2168,-3.2497,-3.2437,-3.314,-3.3784,-3.4322,-3.4427,-3.4816,-3.5429,-3.5489,-3.5474,-3.5429,-3.5489,-3.5474,-3.5429,-3.5489,-3.5504,-3.5504,-3.5504,-3.5504,-3.5504,-3.5504,-3.5504,-3.5504,-3.3804,-3.3718,-3.3577,-3.403,-3.4066,-3.4245,-3.4839,-3.4257,-3.3389,-3.245,-3.1441,-3.0762,-3.0395,-2.9748,-2.9631,-3.0222,-2.9228,-2.8152,-2.7248,-2.7139,-2.7279,-2.7604,-2.7625,-2.7625,-2.7625,-2.7625,-2.7505,-2.72,-2.72,-2.7066,-2.6797,-2.5734,-2.5241,-2.5196,-2.4088,-2.3595,-2.3595,-2.3595,-2.3595,-2.3595,-2.3595,-2.3595,-2.3595,-2.3595,-2.3595,-2.3595,-2.3595,-2.3595,-2.3595,-2.3595,-2.3595,-2.3595,-2.3595,-2.3595,-2.3595,-2.3595,-2.3595,-2.3595,-2.3595,-2.3595,-2.3535,-2.331,-2.3251,-2.3011,-2.2128,-2.1934,-2.1739,-2.1066,-2.1665,-2.2485,-2.308,-2.4435,-2.5481,-2.5631,0.0,-2.5775,-2.6322,-2.6134,-2.672,-2.886,-2.9046,-2.9903,-3.209,-3.1994,-3.2298,-3.3409,-3.3158,-3.2809,-3.2625,-3.2176,-3.1992,-3.2123,-3.2781,-3.2931,-3.2512,-3.3993,-3.4651,-3.4487,-3.4906,-3.525,-3.5504,-3.5504,-3.5504,-3.5504,-3.5504,-3.5504,-3.5504,-3.5504,-3.5504,-3.5504,-3.5504,-3.5504,-3.5504,-3.5504,-3.5504,-3.5504,-3.4853,-3.4928,-3.484,-3.5073,-3.4753,-3.461,-3.4986,-3.4301,-3.309,-3.1295,-3.0556,-2.9888,-2.9222,-2.8606,-2.8488,-2.9175,-2.8077,-2.7023,-2.627,-2.612,-2.6438,-2.7218,-2.7458,-2.7625,-2.7625,-2.7625,-2.7625,-2.7625,-2.7415,-2.726,-2.7245,-2.5914,-2.53,-2.5255,-2.4328,-2.3924,-2.3924,-2.3924,-2.3924,-2.3909,-2.3684,-2.3595,-2.3595,-2.3595,-2.3595,-2.3595,-2.3595,-2.3595,-2.3595,-2.3595,-2.3595,-2.3595,-2.3595,-2.3595,-2.3595,-2.3595,-2.3595,-2.3595,-2.3595,-2.3595,-2.3595,-2.3595,-2.3595,-2.343,-2.2858,-2.2724,-2.2488,-2.1829,-2.2218,-2.3041,-2.4074,-2.5203,-2.6198,-2.6759,-2.7115,-2.7339,-2.7339,-2.7476,-2.8029,-2.9137,-2.9339,-3.0135,-3.1905,-3.1925,-3.2208,-3.3128,-3.2825,-3.2585,-3.2578,-3.2113,-3.2138,-3.2796,-3.3455,-3.3589,-3.314,-3.4711,-3.5265,-3.4801,-3.528,-3.5504,-3.5504,-3.5504,-3.5504,-3.5504,-3.5504,-3.5504,-3.5504,-3.5504,-3.5504,-3.5504,-3.5504,-3.5504,-3.5504,-3.5504,-3.5504,-3.5504,-3.5281,-3.6043,-3.6282,-3.5624,-3.5504,-3.5133,-3.4163,-3.3561,-3.2316,-2.9811,-2.9019,-2.845,-2.7802,-2.6973,-2.662,-2.6867,-2.6101,-2.5134,-2.4067,-2.49,-2.5742,-2.6457,-2.7203,-2.7625,-2.7625,-2.7625,-2.7625,-2.7625,-2.6916,-2.6587,-2.6557,-2.5241,-2.4582,-2.4582,-2.4582,-2.4567,-2.4567,-2.4582,-2.4582,-2.4522,-2.3879,-2.361,-2.361,-2.3595,-2.3595,-2.3595,-2.3595,-2.3595,-2.3595,-2.3595,-2.3595,-2.3595,-2.3595,-2.3595,-2.3595,-2.3595,-2.3595,-2.3595,-2.3595,-2.3595,-2.361,-2.3595,-2.3595,-2.343,-2.2817,-2.2724,-2.2503,-2.1844,-2.2233,-2.3069,-2.4199,-2.4936,-2.5804,-2.7005,-2.7817,-2.8307,-2.8307,-2.8433,-2.8748,-2.9332,-2.9437,-3.0029,-3.1374,-3.2093,-3.2507,-3.2594,-3.2586,-3.2563,-3.2482,-3.2512,-3.2826,-3.3484,-3.4128,-3.4472,-3.4487,-3.516,-3.5504,-3.5504,-3.5504,-3.5504,-3.5504,-3.5504,-3.5504,-3.5504,-3.5504,-3.5504,-3.5504,-3.5504,-3.5504,-3.5504,-3.5504,-3.5504,-3.5504,-3.5504,-3.5504,-3.5504,-3.6648,-3.6641,-3.6201,-3.5327,-3.4767,-3.4109,-3.3171,-3.2299,-3.1429,-3.0307,-2.957,-2.8963,-2.8302,-2.7706,-2.7249,-2.6931,-2.5768,-2.4757,-2.4054,-2.5333,-2.6398,-2.6987,-2.7398,-2.7625,-2.7625,-2.7625,-2.7625,-2.7625,-2.6916,-2.6587,-2.6557,-2.5241,-2.4582,-2.4567,-2.4118,-2.3909,-2.3939,-2.4373,-2.4582,-2.4567,-2.4403,-2.4313,-2.4268,-2.3789,-2.3595,-2.3595,-2.3595,-2.3595,-2.3595,-2.3595,-2.3595,-2.3595,-2.3595,-2.3595,-2.3595,-2.3595,-2.3595,-2.3595,-2.3595,-2.3954,-2.4208,-2.3729,-2.3595,-2.355,-2.337,-2.3325,-2.3266,-2.3071,-2.358,-2.4379,-2.5526,-2.6365,-2.7256,-2.8419,-2.849,-2.842,-2.842,-2.81,-2.8259,-2.9356,-2.9127,-2.9746,-3.1978,-3.1514,-3.152,-3.254,-3.212,-3.2025,-3.2482,-3.2512,-3.3021,-3.4143,-3.4382,-3.4711,-3.519,-3.54,-3.5504,-3.5504,-3.5504,-3.5504,-3.5504,-3.5504,-3.5504,-3.5504,-3.5504,-3.5504,-3.5504,-3.5504,-3.5504,-3.5504,-3.5504,-3.5504,-3.5504,-3.5504,-3.5504,-3.5504,-3.693,-3.6639,-3.5947,-3.4828,-3.3982,-3.3087,-3.1877,-3.155,-3.0908,-2.9353,-2.9136,-2.8759,-2.7841,-2.7424,-2.6906,-2.6116,-2.49,-2.4104,-2.4004,-2.5494,-2.663,-2.7179,-2.769,-2.7979,-2.7979,-2.776,-2.7625,-2.7625,-2.6436,-2.583,-2.58,-2.4454,-2.385,-2.385,-2.4253,-2.4388,-2.4433,-2.5121,-2.5405,-2.5375,-2.5121,-2.4821,-2.4537,-2.4163,-2.3834,-2.3625,-2.3909,-2.4014,-2.4014,-2.4014,-2.3819,-2.3595,-2.3595,-2.3595,-2.3595,-2.3595,-2.3595,-2.3595,-2.3595,-2.4103,-2.4477,-2.4118,-2.4208,-2.4388,-2.4388,-2.4388,-2.4388,-2.4388,-2.4882,-2.5708,-2.6965,-2.7574,-2.831,-2.9531,-2.9092,-2.8645,-2.892,-2.8384,-2.8372,-2.9419,-2.9441,-2.9962,-3.156,-3.1217,-3.1351,-3.2455,-3.2131,-3.2317,-3.3245,-3.329,-3.3784,-3.4846,-3.4891,-3.5085,-3.5504,-3.5504,-3.5504,-3.5504,-3.5504,-3.5504,-3.5504,-3.5504,-3.5504,-3.5504,-3.5504,-3.5504,-3.5504,-3.5504,-3.5504,-3.5504,-3.5504,-3.5504,-3.5504,-3.5504,-3.5504,-3.5504,-3.6671,-3.627,-3.5581,-3.4106,-3.3101,-3.2,-3.058,-3.1064,-3.0605,-2.7766,-2.8166,-2.8111,-2.6653,-2.6483,-2.5963,-2.4908,-2.3791,-2.3401,-2.4141,-2.5633,-2.6784,-2.745,-2.8184,-2.8629,-2.8682,-2.7949,-2.7625,-2.7625,-2.5672,-2.4737,-2.465,-2.3447,-2.2838,-2.2884,-2.4754,-2.5615,-2.5659,-2.6318,-2.6587,-2.6542,-2.5944,-2.533,-2.4746,-2.4686,-2.4328,-2.3864,-2.4492,-2.4672,-2.4657,-2.4612,-2.4208,-2.3684,-2.3625,-2.3595,-2.3595,-2.3595,-2.3595,-2.361,-2.367,-2.4193,-2.4686,-2.4746,-2.5345,-2.5824,-2.5644,-2.5615,-2.563,-2.5689,-2.6153,-2.7024,-2.842,-2.8651,-2.9051,-3.0359,-2.955,-2.8891,-2.949,-2.9071,-2.8936,-2.9579,-3.0163,-3.0522,-3.0597,-3.1225,-3.1869,-3.2467,-3.2572,-3.3155,-3.4412,-3.4472,-3.4801,-3.5489,-3.5504,-3.5504,-3.5504,-3.5504,-3.5504,-3.5504,-3.5504,-3.5504,-3.5504,-3.5504,-3.5504,-3.5504,-3.5504,-3.5504,-3.5504,-3.5504,-3.5504,-3.5504,-3.5504,-3.5504,-3.5504,-3.5504,-3.5504,-3.5504,-3.7396,-3.6564,-3.5354,-3.3241,-3.2105,-3.1154,-3.005,-3.0272,-2.9928,-2.8154,-2.826,-2.8017,-2.6653,-2.605,-2.5523,-2.4883,-2.3791,-2.3844,-2.5524,-2.6571,-2.7886,-2.9554,-2.8871,-2.8752,-2.937,-2.8188,-2.7625,-2.7625,-2.6061,-2.5106,-2.4679,-2.4307,-2.3904,-2.3565,-2.4946,-2.5615,-2.5659,-2.6318,-2.6587,-2.6572,-2.6437,-2.6303,-2.6108,-2.56,-2.53,-2.5196,-2.5345,-2.539,-2.5315,-2.4761,-2.4477,-2.4313,-2.3774,-2.3595,-2.3595,-2.3595,-2.3595,-2.3714,-2.4253,-2.4896,-2.5525,-2.6033,-2.7066,-2.7545,-2.5974,-2.5615,-2.5749,-2.6273,-2.6913,-2.7762,-2.9049,-2.9327,-2.9629,-3.0392,-2.9894,-2.9415,-2.9564,-2.946,-2.9609,-3.0223,-3.0417,-3.0717,-3.1255,-3.1913,-3.2362,-3.2497,-3.2991,-3.3634,-3.4442,-3.4472,-3.4801,-3.5489,-3.5504,-3.5504,-3.5504,-3.5504,-3.5504,-3.5504,-3.5504,-3.5504,-3.5504,-3.5504,-3.5504,-3.5504,-3.5504,-3.5504,-3.5504,-3.5504,-3.5504,-3.5504,-3.5504,-3.5504,-3.5504,-3.5504,-3.5504,-3.5504,-3.6541,-3.5523,-3.4267,-3.2255,-3.1536,-3.0952,-3.0222,-3.0606,-3.0348,-2.8627,-2.8503,-2.803,-2.664,-2.6189,-2.5987,-2.5807,-2.5009,-2.5236,-2.6972,-2.7847,-2.8604,-2.9284,-2.8742,-2.8448,-2.8601,-2.76,-2.7255,-2.7625,-2.5885,-2.4869,-2.4609,-2.4225,-2.3914,-2.373,-2.5368,-2.6078,-2.6123,-2.6782,-2.7066,-2.7066,-2.7066,-2.6871,-2.6557,-2.6213,-2.5884,-2.5644,-2.5959,-2.6078,-2.5929,-2.491,-2.4582,-2.4462,-2.3819,-2.3595,-2.3595,-2.3595,-2.3595,-2.3744,-2.4403,-2.5106,-2.5839,-2.6811,-2.7829,-2.8323,-2.7275,-2.7036,-2.7215,-2.7874,-2.8263,-2.892,-3.0273,-3.0492,-3.067,-3.1418,-3.0684,-3.0133,-3.0462,-3.0223,-3.0268,-3.0911,-3.1001,-3.1255,-3.1943,-3.2602,-3.311,-3.3425,-3.3769,-3.4262,-3.4936,-3.4966,-3.513,-3.5489,-3.5504,-3.5504,-3.5504,-3.5504,-3.5504,-3.5504,-3.5504,-3.5504,-3.5504,-3.5504,-3.5504,-3.5504,-3.5504,-3.5504,-3.5504,-3.5504,-3.5504,-3.5504,-3.5504,-3.5504,-3.5504,-3.5504,-3.5504,-3.5504,-3.5022,-3.4012,-3.2872,-3.1421,-3.118,-3.1022,-3.0573,-3.1373,-3.124,-2.9145,-2.8918,-2.8315,-2.6653,-2.6569,-2.6693,-2.7096,-2.6729,-2.706,-2.846,-2.8993,-2.8981,-2.8456,-2.805,-2.7768,-2.7515,-2.672,-2.6721,-2.7625,-2.5726,-2.4769,-2.471,-2.4295,-2.4058,-2.404,-2.5947,-2.6752,-2.6797,-2.7235,-2.7408,-2.7408,-2.7408,-2.708,-2.6604,-2.6703,-2.6422,-2.6019,-2.6557,-2.6752,-2.6572,-2.5375,-2.4956,-2.4837,-2.4163,-2.3939,-2.3939,-2.3939,-2.3939,-2.4088,-2.4777,-2.5435,-2.6243,-2.744,-2.8338,-2.8921,-2.8921,-2.8846,-2.8951,-2.9609,-2.9689,-3.0058,-3.1374,-3.1505,-3.162,-3.2275,-3.1425,-3.0881,-3.1392,-3.1046,-3.0926,-3.1556,-3.1735,-3.2078,-3.2632,-3.3275,-3.3888,-3.4442,-3.4592,-3.4906,-3.5474,-3.5504,-3.5504,-3.5504,-3.5504,-3.5504,-3.5504,-3.5504,-3.5504,-3.5504,-3.5504,-3.5504,-3.5504,-3.5504,-3.5504,-3.5504,-3.5504,-3.5504,-3.5504,-3.5504,-3.5504,-3.5504,-3.5504,-3.5504,-3.5504,-3.5504,-3.5504,-3.5504,-3.3921,-3.3003,-3.2106,-3.136,-3.118,-3.1154,-3.1074,-3.2124,-3.21,-2.9691,-2.9632,-2.8958,-2.6709,-2.6723,-2.72,-2.8063,-2.8041,-2.8568,-3.0036,-2.904,-2.8669,-2.9216,-2.6913,-2.6235,-2.7446,-2.6215,-2.6215,-2.7625,-2.6672,-2.5988,-2.5574,-2.5931,-2.5859,-2.5473,-2.6825,-2.749,-2.744,-2.6901,-2.6669,-2.6669,-2.6669,-2.6611,-2.6591,-2.7223,-2.738,-2.737,-2.741,-2.749,-2.732,-2.6572,-2.6318,-2.6213,-2.554,-2.533,-2.533,-2.533,-2.533,-2.548,-2.6153,-2.6811,-2.7485,-2.8263,-2.9355,-3.0238,-3.0238,-2.9834,-2.9624,-3.0253,-3.0353,-3.0573,-3.1354,-3.1504,-3.1519,-3.1625,-3.1507,-3.1377,-3.1467,-3.1392,-3.1644,-3.2302,-3.2886,-3.326,-3.335,-3.3963,-3.4382,-3.4472,-3.5026,-3.54,-3.5504,-3.5504,-3.5504,-3.5504,-3.5504,-3.5504,-3.5504,-3.5504,-3.5504,-3.5504,-3.5504,-3.5504,-3.5504,-3.5504,-3.5504,-3.5504,-3.5504,-3.5504,-3.5504,-3.5504,-3.5504,-3.5504,-3.5504,-3.5504,-3.5504,-3.5504,-3.5504,-3.5504,-3.2407,-3.1923,-3.1346,-3.0533,-3.0833,-3.118,-3.118,-3.1885,-3.1708,-2.9728,-2.9348,-2.8759,-2.7348,-2.8039,-2.8834,-2.9355,-2.9714,-3.0205,-3.097,-2.9709,-2.8692,-2.8234,-2.6724,-2.6167,-2.6877,-2.6664,-2.7256,-2.8697,-2.7243,-2.6366,-2.6159,-2.6381,-2.6352,-2.6211,-2.7187,-2.7625,-2.756,-2.6826,-2.651,-2.6457,-2.6068,-2.6122,-2.6563,-2.6878,-2.6982,-2.6938,-2.6557,-2.666,-2.6836,-2.576,-2.5379,-2.5351,-2.5092,-2.4985,-2.5096,-2.5458,-2.5615,-2.5839,-2.6856,-2.735,-2.7904,-2.931,-3.0088,-3.0612,-3.0986,-3.0866,-3.0746,-3.1016,-3.0776,-3.0717,-3.1347,-3.1482,-3.1482,-3.1482,-3.1482,-3.1482,-3.1482,-3.1795,-3.2332,-3.2976,-3.3649,-3.4038,-3.4038,-3.4666,-3.5055,-3.5055,-3.5325,-3.5504,-3.5504,-3.5504,-3.5504,-3.5504,-3.5504,-3.5504,-3.5504,-3.5504,-3.5504,-3.5504,-3.5504,-3.5504,-3.5504,-3.5504,-3.5504,-3.5504,-3.5504,-3.5504,-3.5504,-3.5504,-3.5504,-3.5504,-3.5504,-3.5504,-3.5504,-3.5504,-3.5504,-3.5504]}]]